     2              OBSERVATION DATA    GPS                 RINEX VERSION / TYPE
teqc 1998Mar9 19981223 02:04:47UTC                          PGM / RUN BY / DATE
                                                            COMMENT
Original Marker Name: H82R                                  COMMENT
Campaign Name: HPGN 1998                                    COMMENT
4-Character Station Name: H82R                              COMMENT
6-Character Antenna Code: TRMCMP                            COMMENT
Vertical Measurement Point: BPA                             COMMENT
Vertical Offset to Rinex Ref. Point: 0.0000                 COMMENT
Radial Measurement Point: RRP                               COMMENT
Radial Offset to Rinex Ref. Point: 0.0000                   COMMENT
Antenna Height from Field Measurement: 1.8000 m             COMMENT
Original XYZ: -2407353.6207 -4730310.3844 3525788.8268      COMMENT
New XYZ position is based on association with SCEC monument COMMENT
E1D0P0H4+0011. Position of that monument is believed to be  COMMENT
valid to within 1 m horizontally; vertical accuracy         COMMENT
should be no worse than 3-times this value.                 COMMENT
                                                            COMMENT
Revised Rinex header created by UCSD GPS archive for        COMMENT
GSAC on 31-Aug-1999 (1999:243) 16:59:35 GMT                 COMMENT
For assistance contact dagnew@ucsd.edu or hjohnson@ucsd.edu COMMENT
                                                            COMMENT
H-8-2 RESET 1-1987                                          MARKER NAME
unknown CALIF DEPT TRANSPORTATION                           OBSERVER / AGENCY
2249 TRIMBLE 4000 SSI NP 7.27; SP 3.07                      REC # / TYPE / VERS
80458 TR GEOD L1/L2 GP                                      ANT # / TYPE
 -2407350.0000 -4730313.0000  3525794.0000                  APPROX POSITION XYZ
        1.8000        0.0000        0.0000                  ANTENNA: DELTA H/E/N
     1     1     0                                          WAVELENGTH FACT L1/2
     7    C1    L1    L2    P1    P2    S1    S2            # / TYPES OF OBSERV
     0                                                      INTERVAL
  1998     6    12    15    57   15.000000                  TIME OF FIRST OBS
  1998     6    12    21    27    0.000000                  TIME OF LAST OBS
                                                            END OF HEADER
 98  6 12 15 57 15.0000000  0  7G 2G 4G 8G 7G 5G 9G24
  23576627.9144    5548693.51056   1941090.55156                  23576636.5904
        12.2504         12.7504
  20732014.6024   -2525565.54458  -1967972.81257                  20732020.6604
        31.7504         28.5004
  23015192.5084   -4888972.94655  -3615384.54556                  23015200.3404
        10.5004         13.2504
  22638644.7734    5654974.86057   4378186.23756                  22638652.6524
        22.7504         19.7504
  23054724.6174   -6498223.08556  -4924618.80356                  23054732.2854
        14.5004         13.7504
  21478598.5084   -2686853.82458  -2089910.80757                  21478604.5204
        28.0004         27.0004
  21370050.7894   -7287210.69658  -5669288.80057                  21370058.3164
        29.7504         28.0004
 98  6 12 15 57 30.0000000  0  7G 2G 4G 8G 7G 5G 9G24
  23584595.4844    5590560.33145   1973713.98346                  23584604.6174
        11.7504         13.2504
  20732439.3204   -2523333.07848  -1966233.23447                  20732445.2854
        32.2504         28.5004
  23008525.0864   -4924008.20545  -3642684.72546                  23008533.6684
        11.7504         13.7504
  22645983.6484    5693541.65647   4408238.24946                  22645991.8094
        22.7504         20.0004
  23048127.0704   -6532891.36446  -4951633.04446                  23048134.7854
        13.7504         13.5004
  21478631.3054   -2686681.44747  -2089776.48247                  21478637.5394
        27.2504         27.0004
  21364292.9924   -7317467.65848  -5692865.62647                  21364300.6604
        29.7504         27.7504
 98  6 12 15 57 45.0000000  0  7G 2G 4G 8G 7G 5G 9G24
  23592578.8444    5632515.88446   2006406.56246                  23592588.0704
        12.0004         12.7504
  20732898.2584   -2520921.52448  -1964354.09947                  20732904.2234
        31.5004         28.0004
  23001883.5234   -4958911.10946  -3669881.76546                  23001891.7304
        12.2504         13.7504
  22653331.1804    5732153.21247   4438325.15446                  22653339.7974
        21.5004         19.5004
  23041538.3754   -6567517.35646  -4978614.30546                  23041545.3754
        13.2504         13.0004
  21478696.3054   -2686338.83747  -2089509.52647                  21478703.0204
        26.7504         27.2504
  21358560.4144   -7347591.59248  -5716338.79247                  21358568.1414
        28.7504         27.0004
 98  6 12 15 58  0.0000000  0  7G 2G 4G 8G 7G 5G 9G24
  23600580.0234    5674561.78146   2039169.53246                  23600588.2424
        12.2504         13.0004
  20733392.6804   -2518323.04348  -1962329.29947                  20733398.6684
        32.0004         28.2504
  22995268.0164   -4993676.60946  -3696971.74746                  22995276.1764
        13.0004         14.2504
  22660687.4844    5770812.07347   4468448.91246                  22660696.4654
        20.2504         18.7504
  23034958.2424   -6602094.24246  -5005557.32546                  23034965.5474
        13.5004         12.7504
  21478794.2114   -2685825.46548  -2089109.51347                  21478800.3404
        28.0004         27.2504
  21352854.3984   -7377578.14248  -5739704.91547                  21352862.0434
        29.2504         27.5004
 98  6 12 15 58 15.0000000  0  7G 2G 4G 8G 7G 5G 9G24
  23608598.3524    5716696.51546   2072001.73446                  23608607.7424
        13.0004         12.5004
  20733922.8204   -2515536.53248  -1960157.98947                  20733928.8094
        31.7504         28.2504
  22988677.3524   -5028306.94946  -3723956.41146                  22988685.5354
        12.0004         14.2504
  22668052.8914    5809517.57746   4498609.01246                  22668061.8244
        18.7504         18.0004
  23028387.9304   -6636622.86146  -5032462.72046                  23028395.5864
        14.5004         13.0004
  21478923.8984   -2685144.47548  -2088578.88047                  21478929.8984
        28.0004         27.2504
  21347173.9924   -7407430.11048  -5762966.16847                  21347182.0594
        29.2504         27.7504
 98  6 12 15 58 30.0000000  0  7G 2G 4G 8G 7G 5G 9G24
  23616634.1414    5758925.75246   2104907.55646                  23616643.7424
        13.0004         12.0004
  20734489.1804   -2512560.67348  -1957839.14647                  20734495.4264
        31.7504         28.2504
  22982113.7504   -5062800.99046  -3750834.85646                  22982122.4734
        13.0004         13.7504
  22675427.3364    5848270.11846   4528805.78346                  22675436.0824
        18.7504         17.2504
  23021826.9844   -6671100.80946  -5059328.68846                  23021834.5474
        14.2504         12.0004
  21479086.1254   -2684291.47147  -2087914.21347                  21479092.3714
        26.0004         26.7504
  21341519.5784   -7437143.92848  -5786119.78847                  21341527.1764
        29.5004         27.5004
 98  6 12 15 58 45.0000000  0  7G 2G 4G 8G 7G 5G 9G24
  23624688.7814    5801253.60246   2137890.25946                  23624697.2814
        12.7504         12.5004
  20735091.6884   -2509395.17048  -1955372.52247                  20735098.1804
        30.7504         28.7504
  22975575.1644   -5097160.47046  -3777608.51446                  22975583.1954
        13.0004         14.0004
  22682810.3524    5887068.49547   4559038.25546                  22682818.7584
        20.0004         17.5004
  23015275.5314   -6705525.61946  -5086153.15646                  23015282.8134
        14.2504         12.2504
  21479281.6484   -2683264.26947  -2087113.81547                  21479288.0124
        26.5004         27.2504
  21335891.3054   -7466719.94948  -5809166.02547                  21335898.7974
        29.7504         27.5004
 98  6 12 15 59  0.0000000  0  7G 2G 4G 8G 7G 5G 9G24
  23632762.7734    5843682.48045   2170951.65146                  23632771.1564
        11.0004         12.0004
  20735729.9924   -2506040.85748  -1952758.76347                  20735736.1094
        32.2504         29.2504
  22969063.0234   -5131385.88346  -3804277.64646                  22969069.6214
        13.5004         14.0004
  22690201.7114    5925910.98547   4589305.10246                  22690209.5784
        20.2504         17.2504
  23008735.5944   -6739894.21446  -5112933.86046                  23008743.6844
        13.7504         12.2504
  21479509.3834   -2682066.33047  -2086180.36347                  21479515.6414
        27.7504         27.7504
  21330289.6334   -7496156.56848  -5832103.62347                  21330297.5944
        29.7504         28.0004
 98  6 12 15 59 15.0000000  0  7G 2G 4G 8G 7G 5G 9G24
  23640855.9534    5886209.22045   2204089.32045                  23640865.6844
        11.5004         11.5004
  20736402.9924   -2502503.80148  -1950002.62347                  20736408.8404
        32.2504         28.7504
  22962574.5554   -5165481.34146  -3830845.53046                  22962580.9064
        13.0004         14.2504
  22697600.5164    5964791.25146   4619601.38946                  22697608.6524
        19.7504         16.5004
  23002205.9924   -6774210.41946  -5139673.74646                  23002212.2854
        14.0004         12.0004
  21479768.3204   -2680705.86648  -2085120.26747                  21479774.6374
        28.0004         27.2504
  21324714.1024   -7525456.50048  -5854934.70847                  21324721.8984
        28.7504         27.0004
 98  6 12 15 59 30.0000000  0  7G 2G 4G 8G 7G 5G 9G24
  23648966.9304    5928835.68545   2237304.67545                  23648977.3754
        11.2504         11.7504
  20737112.0394   -2498777.83048  -1947099.27347                  20737118.0984
        30.7504         28.5004
  22956112.0864   -5199442.08446  -3857308.45146                  22956118.6024
        14.5004         14.0004
  22705007.1094    6003713.58946   4649930.46146                  22705014.4144
        19.5004         17.0004
  22995685.5784   -6808473.51546  -5166372.27546                  22995692.5784
        14.0004         12.2504
  21480058.2344   -2679182.22647  -2083933.02247                  21480064.8674
        26.7504         28.0004
  21319165.0704   -7554616.63548  -5877656.88047                  21319172.4804
        29.7504         27.7504
 98  6 12 15 59 45.0000000  0  7G 2G 4G 8G 7G 5G 9G24
  23657096.8054    5971558.64545   2270595.24245                  23657106.9694
        11.5004         11.7504
  20737857.1414   -2494862.76348  -1944048.57047                  20737863.3874
        32.2504         29.0004
  22949674.5474   -5233269.15046  -3883667.19946                  22949682.0044
        14.0004         14.0004
  22712421.7344    6042677.10246   4680291.59146                  22712428.9574
        18.0004         16.5004
  22989175.1174   -6842687.78146  -5193032.73246                  22989181.5634
        14.7504         13.5004
  21480379.0474   -2677497.05247  -2082619.90947                  21480385.7384
        26.7504         27.5004
  21313642.0944   -7583640.54248  -5900272.89147                  21313649.9144
        30.0004         28.0004
 98  6 12 16  0  0.0000000  0  7G 2G 4G 8G 7G 5G 9G24
  23665245.0314    6014377.95045   2303960.88845                  23665255.5124
        11.7504         11.7504
  20738637.7814   -2490759.98248  -1940851.60947                  20738644.1094
        32.2504         29.2504
  22943264.1254   -5266959.10546  -3909919.10146                  22943271.6294
        14.0004         14.0004
  22719844.4924    6081683.44146   4710686.10746                  22719851.6804
        17.7504         16.2504
  22982674.0394   -6876851.04046  -5219653.45046                  22982681.3444
        13.7504         13.2504
  21480731.0864   -2675645.42447  -2081177.08847                  21480737.5204
        27.0004         27.2504
  21308145.0004   -7612527.11448  -5922781.88347                  21308152.5984
        30.0004         27.5004
 98  6 12 16  0 15.0000000  0  7G 2G 4G 8G 7G 5G 9G24
  23673412.1954    6057291.58446   2337400.02846                  23673422.3364
        13.0004         13.0004
  20739453.1884   -2486475.75148  -1937513.24747                  20739459.4344
        32.2504         29.0004
  22936878.5394   -5300514.67646  -3936066.29546                  22936885.6334
        14.5004         14.5004
  22727275.2974    6120731.90246   4741113.44146                  22727282.1684
        17.7504         16.2504
  22976182.0084   -6910966.86946  -5246237.20046                  22976189.5824
        14.5004         13.5004
  21481115.7664   -2673624.91347  -2079602.67247                  21481122.2934
        27.0004         26.7504
  21302674.2814   -7641275.98048  -5945183.58247                  21302681.5274
        30.2504         27.2504
 98  6 12 16  0 30.0000000  0  7G 2G 4G 8G 7G 5G 9G24
  23681595.5784    6100298.03246   2370911.50346                  23681606.0004
        13.2504         13.7504
  20740301.8754   -2482014.88548  -1934037.24647                  20740308.2734
        30.5004         28.7504
  22930518.7894   -5333937.10246  -3962109.71346                  22930525.4344
        15.0004         14.2504
  22734713.5864    6159820.78046   4771572.28446                  22734720.3484
        19.2504         16.2504
  22969698.4454   -6945037.38246  -5272785.62746                  22969705.7034
        13.2504         13.0004
  21481532.3834   -2671435.90648  -2077896.96647                  21481538.8164
        28.2504         27.7504
  21297229.5314   -7669887.56548  -5967478.30247                  21297237.2704
        30.5004         27.7504
 98  6 12 16  0 45.0000000  0  7G 2G 4G 8G 7G 5G 9G24
  23689797.1024    6143395.21346   2404493.68446                  23689806.8674
        13.5004         14.2504
  20741184.0314   -2477379.27848  -1930425.08447                  20741190.2304
        31.0004         28.7504
  22924183.9694   -5367224.47146  -3988047.92546                  22924191.5664
        14.5004         14.5004
  22742159.4304    6198948.60546   4802061.47546                  22742166.6884
        18.7504         16.2504
  22963223.5944   -6979064.38546  -5299300.13646                  22963231.6604
        13.5004         13.7504
  21481980.5394   -2669081.46048  -2076062.34147                  21481987.0904
        28.5004         28.5004
  21291810.7504   -7698363.38148  -5989667.22847                  21291818.2424
        29.7504         27.5004
 98  6 12 16  1  0.0000000  0  7G 2G 4G 8G 7G 5G 9G24
  23698014.7504    6186581.82346   2438145.54546                  23698024.4344
        13.5004         13.7504
  20742099.2194   -2472569.92148  -1926677.54747                  20742105.4064
        29.7504         28.2504
  22917875.8834   -5400374.74446  -4013879.29246                  22917883.8094
        14.5004         14.7504
  22749612.4694    6238114.85246   4832580.58846                  22749620.5354
        19.2504         16.7504
  22956756.3444   -7013049.59946  -5325782.10346                  22956763.9884
        13.7504         13.0004
  21482460.1254   -2666562.43547  -2074099.46747                  21482466.9454
        27.5004         28.2504
  21286418.4534   -7726701.35648  -6011748.74847                  21286425.8054
        30.7504         27.5004
 98  6 12 16  1 15.0000000  0  7G 2G 4G 8G 7G 5G 9G24
  23706248.5784    6229849.56946   2471860.62146                  23706259.3524
        12.2504         13.2504
  20743046.0394   -2467593.33248  -1922799.68747                  20743052.5204
        30.5004         28.5004
  22911593.1644   -5433390.75846  -4039606.03946                  22911600.3524
        14.2504         13.7504
  22757071.8444    6277312.43546   4863124.13546                  22757080.0984
        19.7504         17.5004
  22950295.5704   -7046999.92646  -5352236.88746                  22950303.1914
        13.2504         13.0004
  21482969.9614   -2663881.89648  -2072010.74047                  21482976.6994
        28.0004         28.2504
  21281050.9304   -7754907.34048  -6033727.41847                  21281058.6094
        29.2504         27.2504
 98  6 12 16  1 30.0000000  0  7G 2G 4G 8G 7G 5G 9G24
  23714498.1724    6273202.64045   2505642.18046                  23714507.9844
        11.7504         13.0004
  20744026.1954   -2462442.87848  -1918786.34647                  20744032.7814
        30.2504         28.2504
  22905336.6174   -5466266.18446  -4065223.24546                  22905343.6294
        14.5004         14.0004
  22764538.3594    6316548.37747   4893697.54446                  22764547.0944
        20.5004         18.0004
  22943842.7424   -7080910.92246  -5378661.01646                  22943850.3524
        14.0004         13.5004
  21483513.5704   -2661026.57848  -2069785.82547                  21483519.9924
        29.0004         28.5004
  21275709.8284   -7782974.91448  -6055598.22847                  21275717.1804
        29.5004         27.2504
 98  6 12 16  1 45.0000000  0  8G 2G 4G 8G 7G 5G 9G16G24
  23722764.6804    6316642.22245   2539491.15646                  23722774.0124
        11.0004         12.0004
  20745039.1094   -2457120.71348  -1914639.21147                  20745045.1454
        30.2504         27.7504
  22899107.8054   -5499001.00146  -4090730.87846                  22899114.3794
        15.0004         13.7504
  22772011.9224    6355822.08447   4924300.41246                  22772020.4104
        21.0004         18.0004
  22937397.6804   -7114781.47646  -5405053.65346                  22937405.0784
        14.7504         13.2504
  21484090.9384   -2657992.09948  -2067421.31247                  21484097.1484
        29.7504         28.2504
  24868708.2584       -872.68554
         7.2504
  21270395.1644   -7810902.60548  -6077360.05547                  21270402.5274
        29.0004         27.0004
 98  6 12 16  2  0.0000000  0  8G 2G 4G 8G 7G 5G 9G16G24
  23731047.4304    6360167.87245   2573407.16346                  23731057.4654
        11.0004         12.2504
  20746083.2664   -2451632.88448  -1910362.99747                  20746089.2664
        29.7504         28.0004
  22892904.8914   -5531596.74346  -4116130.15546                  22892912.0204
        15.0004         14.2504
  22779491.7974    6395130.53147   4954930.33646                  22779500.2624
        20.7504         18.2504
  22930960.0944   -7148610.28346  -5431413.75246                  22930967.8674
        14.7504         13.7504
  21484702.2584   -2654779.09747  -2064917.68447                  21484708.6454
        27.7504         28.7504
  24867477.8834      -7339.93845
         8.0004
  21265106.9844   -7838692.12248  -6099014.20847                  21265114.2544
        30.0004         27.2504
 98  6 12 16  2 15.0000000  0  8G 2G 4G 8G 7G 5G 9G16G24
  23739347.5944    6403783.25946   2607393.14846                  23739357.5824
        12.2504         13.0004
  20747159.6804   -2445977.26048  -1905956.01347                  20747165.7034
        31.2504         28.2504
  22886728.6564   -5564051.54446  -4141419.59346                  22886736.0784
        14.2504         14.0004
  22786978.8524    6434473.75447   4985587.36346                  22786987.3284
        20.5004         18.0004
  22924530.7664   -7182395.28846  -5457739.68246                  22924537.7894
        14.7504         13.7504
  21485348.1024   -2651385.71148  -2062273.49747                  21485354.6294
        28.5004         29.0004
  24866273.0784     -13668.84045
         8.2504
  21259846.1564   -7866339.01548  -6120557.21947                  21259853.4384
        29.7504         27.7504
 98  6 12 16  2 30.0000000  0  8G 2G 4G 8G 7G 5G 9G16G24
  23747664.1484    6447487.64146   2641448.45046                  23747673.7274
        12.5004         12.2504
  20748268.1254   -2440152.34448  -1901417.12247                  20748274.0784
        31.2504         27.5004
  22880579.3204   -5596367.32946  -4166600.71346                  22880586.6724
        15.0004         13.5004
  22794472.2424    6473851.39246   5016271.22146                  22794480.0634
        19.2504         17.2504
  22918110.3444   -7216135.20446  -5484030.52146                  22918118.0234
        14.7504         13.5004
  21486027.1804   -2647815.78748  -2059491.74147                  21486033.7424
        30.5004         28.5004
  24865096.1804     -19858.76745
         8.7504
  21254612.1884   -7893843.80348  -6141989.50447                  21254619.6214
        29.5004         27.2504
 98  6 12 16  2 45.0000000  0  8G 2G 4G 8G 7G 5G 9G16G24
  23755998.2664    6491281.65646   2675573.62146                  23756007.0354
        14.0004         13.0004
  20749409.1724   -2434156.04748  -1896744.68447                  20749415.1844
        30.7504         28.2504
  22874455.7664   -5628545.21046  -4191674.37546                  22874463.1294
        14.7504         14.2504
  22801971.4774    6513263.04546   5046981.55446                  22801979.6374
        18.5004         17.5004
  22911698.3134   -7249831.14346  -5510287.07146                  22911705.9454
        15.2504         13.5004
  21486739.5864   -2644073.70848  -2056575.84147                  21486746.0204
        30.0004         29.2504
  24863942.3524     -25912.46944
         7.2504
  21249404.8674   -7921208.07848  -6163312.31147                  21249412.2304
        28.5004         28.2504
 98  6 12 16  3  0.0000000  0  8G 2G 4G 8G 7G 5G 9G16G24
  23764348.8204    6535165.96146   2709769.16346                  23764357.0274
        15.0004         13.2504
  20750582.3054   -2427991.10848  -1891940.84447                  20750588.2464
        31.2504         28.0004
  22868359.2114   -5660586.71146  -4216641.76246                  22868366.5394
        15.2504         15.0004
  22809477.9304    6552709.41146   5077718.95646                  22809486.1374
        18.0004         16.7504
  22905293.7034   -7283485.43246  -5536511.18046                  22905301.8404
        14.0004         14.5004
  21487484.8134   -2640158.08548  -2053524.72347                  21487491.3164
        29.5004         29.7504
  24862817.3984     -31829.18145      -304.08255                  24862830.5864
         8.7504          8.5004
  21244224.3594   -7948431.58748  -6184525.40847                  21244231.9804
        29.5004         28.0004
 98  6 12 16  3 15.0000000  0  8G 2G 4G 8G 7G 5G 9G16G24
  23772717.1564    6579141.04746   2744035.41346                  23772725.1294
        14.2504         13.2504
  20751787.5004   -2421657.25648  -1887005.38147                  20751793.3834
        30.7504         28.0004
  22862287.5704   -5692492.56446  -4241503.45546                  22862295.4384
        15.0004         15.0004
  22816990.9224    6592189.79746   5108482.85046                  22816998.5554
        18.7504         17.2504
  22898898.1484   -7317096.67146  -5562701.73146                  22898905.7114
        14.0004         13.7504
  21488262.9304   -2636068.18748  -2050337.79947                  21488269.0594
        31.0004         29.2504
  24861717.1954     -37608.85745     -4807.68045                  24861729.3754
         7.7504          8.5004
  21239070.0474   -7975516.48948  -6205630.50747                  21239077.7274
        28.7504         28.0004
 98  6 12 16  3 30.0000000  0  8G 2G 4G 8G 7G 5G 9G16G24
  23781102.6174    6623209.67646   2778374.53746                  23781110.9884
        12.7504         13.0004
  20753026.2424   -2415148.66548  -1881933.74947                  20753032.2194
        30.0004         28.2504
  22856242.2974   -5724260.57446  -4266257.74146                  22856250.0474
        15.0004         14.7504
  22824511.3914    6631708.79946   5139276.84546                  22824519.4694
        19.2504         17.5004
  22892510.6884   -7350662.33346  -5588856.77346                  22892518.5084
        14.2504         13.5004
  21489074.1334   -2631805.33448  -2047016.10147                  21489080.1454
        30.0004         28.5004
  24860644.7584     -43248.57945     -9202.24345                  24860655.6844
         9.0004          8.7504
  21233942.5394   -8002462.15048  -6226627.10947                  21233950.2894
        28.0004         27.5004
 98  6 12 16  3 45.0000000  0  8G 2G 4G 8G 7G 5G 9G16G24
  23789506.4534    6667372.20246   2812786.85046                  23789515.2934
        12.5004         12.5004
  20754297.7034   -2408466.45248  -1876726.82747                  20754303.6564
        31.0004         28.2504
  22850223.0704   -5755891.77646  -4290905.38746                  22850230.4224
        14.5004         14.7504
  22832039.4534    6671269.31046   5170103.18246                  22832048.0704
        18.0004         17.2504
  22886132.4224   -7384182.41246  -5614976.29646                  22886140.1254
        15.0004         13.2504
  21489917.1884   -2627375.91248  -2043564.62347                  21489923.1994
        28.7504         27.7504
  24859596.8594     -48750.49245    -13489.42845                  24859607.9144
         7.5004          8.7504
  21228841.6334   -8029267.35848  -6247514.26947                  21228849.4534
        28.2504         27.2504
 98  6 12 16  4  0.0000000  0  8G 2G 4G 8G 7G 5G 9G16G24
  23797928.0234    6711626.99845   2847271.06845                  23797937.0634
        11.0004         11.2504
  20755602.8364   -2401608.89148  -1871383.28047                  20755608.7664
        32.2504         27.2504
  22844229.5314   -5787386.20146  -4315446.49846                  22844237.0234
        14.7504         14.5004
  22839575.4774    6710871.42246   5200961.93246                  22839583.8954
        17.7504         17.2504
  22879761.9844   -7417657.34446  -5641060.63946                  22879769.6294
        13.7504         12.2504
  21490790.3914   -2622786.58048  -2039988.52547                  21490796.5784
        29.7504         27.5004
  24858575.5704     -54117.48745    -17671.45345                  24858585.0314
         8.2504          8.7504
  21223767.2664   -8055932.84548  -6268292.55447                  21223775.2384
        28.0004         26.7504
 98  6 12 16  4 15.0000000  0  8G 2G 4G 8G 7G 5G 9G16G24
  23806366.8834    6755972.44445   2881825.90345                  23806376.1914
        10.5004         10.7504
  20756941.7424   -2394573.28348  -1865900.99547                  20756947.7774
        31.7504         28.0004
  22838262.8914   -5818740.73646  -4339878.55446                  22838270.1134
        14.7504         14.7504
  22847119.6564    6750515.60446   5231853.46946                  22847127.9344
        18.2504         18.0004
  22873400.9384   -7451085.05846  -5667108.19346                  22873408.5704
        13.0004         13.0004
  21491693.9144   -2618038.20848  -2036288.49047                  21491700.3014
        30.0004         28.5004
  24857580.2584     -59348.69645    -21747.70445                  24857592.5664
         8.7504          9.2504
  21218720.3284   -8082455.51048  -6288959.55047                  21218727.9614
        28.2504         27.5004
 98  6 12 16  4 30.0000000  0  8G 2G 4G 8G 7G 5G 9G16G24
  23814823.1174    6800407.92945   2916450.90745                  23814830.7504
        10.0004         11.2504
  20758314.6024   -2387358.47848  -1860279.06547                  20758320.5904
        32.0004         28.7504
  22832323.0474   -5849957.47246  -4364203.28546                  22832330.6564
        15.0004         14.2504
  22854671.8834    6790202.39846   5262778.21946                  22854680.1374
        19.2504         18.2504
  22867048.5084   -7484466.67246  -5693119.83446                  22867055.6844
        12.7504         12.2504
  21492627.3134   -2613133.59848  -2032466.72347                  21492633.9344
        29.0004         28.5004
  24856610.3524     -64445.29745    -25719.08345                  24856620.1644
         8.5004          8.5004
  21213700.6254   -8108834.09447  -6309514.28847                  21213708.3984
        27.7504         27.7504
 98  6 12 16  4 45.0000000  0  8G 2G 4G 8G 7G 5G 9G16G24
  23823295.8754    6844935.53145   2951147.69045                  23823306.4384
         9.7504         11.5004
  20759721.8054   -2379963.48548  -1854516.72947                  20759727.7934
        31.7504         29.5004
  22826409.2344   -5881034.63646  -4388419.23446                  22826416.0944
        15.2504         15.5004
  22862232.3984    6829935.03146   5293738.69646                  22862240.8284
        19.2504         18.5004
  22860705.5084   -7517800.39746  -5719094.14546                  22860712.5554
        12.5004         12.2504
  21493590.6884   -2608072.33848  -2028522.90047                  21493596.8634
        29.0004         28.2504
  24855666.9844     -69405.89645    -29584.45245                  24855678.2624
         9.0004          8.7504
  21208708.1414   -8135067.77347  -6329956.09247                  21208716.2304
        27.5004         28.2504
 98  6 12 16  5  0.0000000  0  8G 2G 4G 8G 7G 5G 9G16G24
  23831787.3834    6889556.65945   2985917.34245                  23831797.3714
        11.2504         11.7504
  20761163.3914   -2372388.21348  -1848613.92147                  20761169.3554
        31.5004         28.7504
  22820522.1954   -5911971.24446  -4412525.66846                  22820529.5354
        16.5004         15.5004
  22869801.8284    6869710.80747   5324732.76746                  22869809.6254
        20.0004         18.0004
  22854370.4144   -7551089.40846  -5745033.62846                  22854378.5744
        12.5004         12.2504
  21494583.6644   -2602852.16348  -2024455.23247                  21494589.6524
        29.7504         28.0004
  24854748.8914     -74230.16245    -33343.62445                  24854760.3674
         8.0004          7.7504
  21203743.6094   -8161158.30948  -6350286.36847                  21203751.4184
        28.0004         28.0004
 98  6 12 16  5 15.0000000  0  8G 2G 4G 8G 7G 5G 9G16G24
  23840295.2974    6934268.37945   3020757.59745                  23840303.8204
        11.0004         11.7504
  20762639.1094   -2364632.64148  -1842570.61747                  20762645.1564
        31.7504         28.7504
  22814661.6024   -5942767.92346  -4436523.06646                  22814668.9414
        15.5004         16.0004
  22877378.1954    6909524.27646   5355756.21546                  22877386.0514
        19.2504         18.0004
  22848044.1254   -7584334.13346  -5770938.58546                  22848051.0904
        12.2504         12.0004
  21495606.6334   -2597476.73248  -2020266.57947                  21495612.8204
        28.0004         28.0004
  24853855.5554     -78918.69945    -36996.93345                  24853865.3204
         7.7504          7.7504
  21198805.6804   -8187107.76848  -6370506.71747                  21198813.6414
        28.2504         28.5004
 98  6 12 16  5 30.0000000  0  8G 2G 4G 8G 7G 5G 9G16G24
  23848821.5084    6979070.24745   3055668.08845                  23848830.6524
        11.0004         11.5004
  20764150.4224   -2356691.02048  -1836382.34147                  20764156.4104
        32.0004         29.2504
  22808828.4064   -5973423.41746  -4460410.45846                  22808836.2154
        15.2504         16.0004
  22884961.4064    6949374.88946   5386808.61946                  22884969.5784
        18.2504         18.0004
  22841727.2344   -7617531.08546  -5796806.32846                  22841735.3714
        12.7504         12.5004
  21496658.8984   -2591947.51148  -2015958.10447                  21496665.4964
        28.7504         28.5004
  24852988.2974     -83472.86243    -40545.61545                  24853000.8164
         5.7504          7.7504
  21193894.7664   -8212914.90248  -6390616.15047                  21193902.6804
        29.5004         29.0004
 98  6 12 16  5 45.0000000  0  8G 2G 4G 8G 7G 5G 9G16G24
  23857364.3524    7023963.10746   3090649.46345                  23857373.6484
        12.2504         11.0004
  20765696.6724   -2348564.67348  -1830050.12747                  20765702.9304
        30.2504         28.7504
  22803021.1644   -6003936.61246  -4484186.95746                  22803028.4454
        15.2504         15.7504
  22892552.6094    6989264.51946   5417891.39646                  22892561.3444
        18.0004         17.2504
  22835419.3674   -7650677.46546  -5822634.65746                  22835427.6684
        12.7504         12.2504
  21497741.4224   -2586260.03848  -2011526.32847                  21497747.5864
        30.2504         28.2504
  24852146.8204     -87893.86043    -43990.51345                  24852160.3834
         6.0004          7.5004
  21189012.0004   -8238573.57148  -6410609.91247                  21189019.4804
        28.7504         28.2504
 98  6 12 16  6  0.0000000  0  8G 2G 4G 8G 7G 5G 9G16G24
  23865924.9774    7068949.28746   3125703.56546                  23865934.5434
        12.0004         12.0004
  20767278.3984   -2340251.63648  -1823572.42247                  20767284.4104
        30.5004         28.2504
  22797242.0164   -6034306.63946  -4507851.90046                  22797249.8134
        15.2504         15.7504
  22900150.3754    7029192.81846   5449004.34346                  22900158.5944
        17.7504         17.2504
  22829121.8134   -7683768.73746  -5848420.04946                  22829129.3754
        12.5004         12.2504
  21498854.8674   -2580406.88848  -2006965.42247                  21498861.0084
        30.2504         28.2504
  24851331.2814     -92179.50443    -47329.97145                  24851343.8834
         5.0004          7.2504
  21184157.4844   -8264083.55348  -6430487.79747                  21184164.8244
        28.7504         28.0004
 98  6 12 16  6 15.0000000  0  8G 2G 4G 8G 7G 5G 9G16G24
  23874503.4924    7114028.82346   3160830.43845                  23874513.4694
        12.7504         11.7504
  20768895.4774   -2331754.13848  -1816951.00847                  20768901.5354
        30.2504         27.7504
  22791489.8364   -6064535.44646  -4531406.78846                  22791498.5944
        14.0004         15.0004
  22907754.9454    7069156.00746   5480144.44946                  22907763.5394
        16.7504         16.5004
  22822836.0234   -7716804.75845  -5874162.39946                  22822845.4494
        11.7504         12.2504
  21500000.9064   -2574384.69848  -2002272.80947                  21500007.5864
        28.5004         28.2504
  24850543.5474     -96329.19645    -50563.46545                  24850556.7814
         7.7504          9.0004
  21179330.5554   -8289448.43548  -6450252.63147                  21179338.3284
        28.0004         27.7504
 98  6 12 16  6 30.0000000  0  8G 2G 4G 8G 7G 5G 9G16G24
  23883100.0554    7159204.66546   3196032.35246                  23883110.0904
        12.2504         12.7504
  20770547.6564   -2323071.66348  -1810185.44447                  20770553.9024
        30.0004         28.5004
  22785764.3054   -6094623.13946  -4554851.73846                  22785772.2664
        14.5004         14.7504
  22915366.5554    7109155.59546   5511312.93146                  22915373.7304
        18.7504         16.5004
  22816559.6804   -7749784.87346  -5899861.16146                  22816568.1214
        12.0004         12.0004
  21501179.4534   -2568191.70448  -1997447.12147                  21501185.8754
        30.5004         28.5004
  24849780.3754    -100341.68544    -53690.08745                  24849791.9454
         7.2504          8.2504
  21174530.8754   -8314671.95547  -6469907.30447                  21174538.6844
        27.5004         27.7504
 98  6 12 16  6 45.0000000  0  8G 2G 4G 8G 7G 5G 9G16G24
  23891715.3754    7204477.64546   3231309.93446                  23891725.2344
        12.2504         13.0004
  20772235.2034   -2314204.18348  -1803275.71447                  20772241.8014
        31.0004         29.2504
  22780064.9454   -6124571.00246  -4578187.68846                  22780073.0944
        14.2504         14.2504
  22922985.5474    7149193.06646   5542510.93246                  22922993.0394
        19.7504         17.0004
  22810294.0314   -7782711.21245  -5925518.03746                  22810303.0824
        11.7504         12.7504
  21502390.8834   -2561826.85348  -1992487.50247                  21502396.7194
        32.0004         28.7504
  24849042.0554    -104216.19045    -56709.16245                  24849052.8984
         7.7504          8.7504
  21169757.0004   -8339758.82648  -6489455.51447                  21169764.8094
        28.5004         28.7504
 98  6 12 16  7  0.0000000  0  8G 2G 4G 8G 7G 5G 9G16G24
  23900347.6724    7249843.60145   3266659.97046                  23900358.1414
        11.5004         12.7504
  20773957.1414   -2305154.68048  -1796224.14347                  20773963.4804
        31.2504         29.0004
  22774392.4224   -6154381.01546  -4601416.26546                  22774400.3594
        12.5004         14.2504
  22930610.4534    7189262.75146   5573734.04446                  22930618.1564
        19.5004         17.0004
  22804037.8914   -7815587.76245  -5951136.09246                  22804046.2624
        11.7504         12.2504
  21503634.3914   -2555290.71248  -1987394.40947                  21503640.4494
        30.7504         28.5004
  24848330.5864    -107952.88444    -59620.80045                  24848342.0984
         6.5004          8.2504
  21165008.3134   -8364713.71948  -6508900.86847                  21165016.5554
        29.7504         29.0004
 98  6 12 16  7 15.0000000  0  8G 2G 4G 8G 7G 5G 9G16G24
  23908998.2504    7295300.55946   3302080.91146                  23909007.6054
        12.7504         12.5004
  20775713.7734   -2295924.38448  -1789031.70947                  20775719.9614
        31.0004         28.5004
  22768746.5314   -6184050.58246  -4624535.41646                  22768754.2814
        14.2504         14.2504
  22938242.1414    7229364.47146   5604982.09746                  22938250.3244
        18.2504         16.7504
  22797791.6724   -7848412.20145  -5976713.58345                  22797799.9494
        10.7504         11.7504
  21504911.0004   -2548583.20748  -1982167.79747                  21504917.5864
        29.7504         28.7504
  24847646.4304    -111550.14745    -62423.82145                  24847657.4614
         8.0004          8.0004
  21160285.1644   -8389533.92848  -6528241.27447                  21160292.8444
        29.0004         28.2504
 98  6 12 16  7 30.0000000  0  8G 2G 4G 8G 7G 5G 9G16G24
  23917664.8594    7340844.63746   3337569.73446                  23917674.6724
        12.7504         13.0004
  20777504.0554   -2286516.38648  -1781700.80647                  20777510.4064
        31.2504         29.0004
  22763126.6954   -6213581.09046  -4647546.16446                  22763134.5634
        13.0004         14.2504
  22945878.8444    7269498.23546   5636255.11346                  22945886.9694
        17.7504         16.5004
  22791555.7034   -7881181.69245  -6002248.27346                  22791563.3244
        11.2504         12.2504
  21506219.8054   -2541705.45748  -1976808.51447                  21506226.5904
        31.5004         29.7504
  24846987.0084    -115012.20645    -65121.51645                  24846996.7974
         7.5004          7.2504
  21155587.2974   -8414219.02848  -6547476.39947                  21155594.8714
        28.2504         28.7504
 98  6 12 16  7 45.0000000  0  8G 2G 4G 8G 7G 5G 9G16G24
  23926347.5234    7386476.38745   3373126.90446                  23926357.9694
        11.7504         12.2504
  20779326.9224   -2276936.82148  -1774236.21047                  20779333.3914
        30.7504         29.2504
  22757534.2274   -6242970.65546  -4670447.13746                  22757541.9064
        13.0004         14.0004
  22953522.3914    7309666.02346   5667554.67046                  22953530.6454
        18.0004         17.0004
  22785330.4384   -7913897.64745  -6027741.20945                  22785338.5984
        11.7504         11.7504
  21507561.0394   -2534655.83048  -1971315.29747                  21507567.5664
        30.5004         29.2504
  24846353.2344    -118339.91344    -67714.47545                  24846363.7384
         6.5004          8.0004
  21150915.8674   -8438768.83647  -6566606.10747                  21150923.6764
        27.0004         28.7504
 98  6 12 16  8  0.0000000  0  8G 2G 4G 8G 7G 5G 9G16G24
  23935048.3364    7432196.93545   3408753.24145                  23935059.2504
        11.2504         11.5004
  20781182.2504   -2267187.67448  -1766639.47047                  20781188.5904
        31.2504         29.7504
  22751968.4924   -6272219.06946  -4693238.10146                  22751975.7624
        13.2504         14.2504
  22961172.5164    7349867.39946   5698880.37846                  22961180.7344
        18.5004         17.0004
  22779114.2274   -7946561.36145  -6053193.42546                  22779122.0474
        11.5004         12.5004
  21508935.2584   -2527435.15548  -1965688.80547                  21508941.3404
        30.7504         29.0004
  24845746.4534    -121530.49443    -70200.67045                  24845757.0164
         5.7504          8.0004
  21146269.5084   -8463185.29948  -6585631.90947                  21146277.1764
        29.5004         29.0004
 98  6 12 16  8 15.0000000  0  8G 2G 4G 8G 7G 5G 9G16G24
  23943765.6254    7478006.46345   3444448.91145                  23943776.5394
        11.0004         11.7504
  20783069.6564   -2257268.65848  -1758910.36747                  20783076.2544
        30.2504         29.2504
  22746430.0704   -6301324.01546  -4715917.25046                  22746437.4924
        13.5004         14.2504
  22968829.3524    7390102.72447   5730232.53746                  22968837.7464
        20.5004         16.7504
  22772908.6414   -7979176.04046  -6078607.42346                  22772916.7074
        12.2504         12.5004
  21510341.3364   -2520046.10648  -1959931.12347                  21510347.6294
        30.0004         29.2504
  24845166.0554    -124582.15244    -72578.50545                  24845176.8984
         6.7504          6.7504
  21141648.3364   -8487470.69848  -6604555.58047                  21141655.8404
        30.2504         29.5004
 98  6 12 16  8 30.0000000  0  8G 2G 4G 8G 7G 5G 9G16G24
  23952500.0704    7523903.20446   3480212.57546                  23952510.8094
        12.0004         12.0004
  20784989.1334   -2247181.50648  -1751050.24047                  20784995.5434
        31.2504         29.5004
  22740919.4774   -6330283.63846  -4738483.19346                  22740926.5594
        14.7504         14.7504
  22976492.7894    7430372.31546   5761611.41746                  22976501.2194
        19.7504         17.0004
  22766710.8984   -8011742.57845  -6103983.94146                  22766719.0594
        11.2504         12.7504
  21511778.7034   -2512492.38248  -1954045.10947                  21511785.1844
        29.2504         29.5004
  24844611.1724    -127495.69743    -74848.80245                  24844624.0314
         5.5004          7.5004
  21137052.7664   -8511620.12548  -6623373.29247                  21137060.3404
        28.5004         29.2504
 98  6 12 16  8 45.0000000  0  8G 2G 4G 8G 7G 5G 9G16G24
  23961249.3834    7569882.47846   3516040.52546                  23961260.6954
        13.2504         12.7504
  20786940.3984   -2236928.85048  -1743061.15947                  20786946.5164
        31.5004         28.7504
  22735436.4694   -6359098.55946  -4760936.34746                  22735443.3984
        17.0004         15.7504
  22984161.8444    7470674.33646   5793015.54846                  22984169.6524
        18.2504         16.2504
  22760522.4384   -8044262.74745  -6129324.31846                  22760530.6334
        11.2504         12.2504
  21513247.1254   -2504774.96948  -1948031.54547                  21513253.6524
        28.5004         28.5004
  24844083.3204    -130273.30244    -77013.05045                  24844094.8674
         6.5004          7.0004
  21132483.6484   -8535631.42248  -6642083.39047                  21132491.2584
        29.0004         29.0004
 98  6 12 16  9  0.0000000  0  8G 2G 4G 8G 7G 5G 9G16G24
  23970014.6484    7615942.79746   3551931.61446                  23970025.7034
        13.2504         12.7504
  20788922.3054   -2226514.03148  -1734945.72547                  20788928.4804
        29.5004         28.7504
  22729980.5864   -6387767.90746  -4783276.08846                  22729987.8444
        16.2504         16.2504
  22991836.6334    7511006.21046   5824442.95946                  22991844.6764
        17.7504         16.0004
  22754342.9224   -8076734.71345  -6154627.14546                  22754350.5784
        11.0004         12.2504
  21514747.0004   -2496893.69247  -1941890.30347                  21514753.3054
        26.7504         28.7504
  24843579.8984    -132915.37745    -79071.79645                  24843588.2934
         7.5004          7.2504
  21127941.2814   -8559498.91548  -6660681.42947                  21127948.7974
        29.2504         28.5004
 98  6 12 16  9 15.0000000  0  8G 2G 4G 8G 7G 5G 9G16G24
  23978795.2584    7662084.86746   3587886.42546                  23978806.4654
        13.0004         12.0004
  20790935.1414   -2215936.69148  -1726703.62447                  20790941.3984
        31.7504         29.0004
  22724553.2814   -6416288.71546  -4805500.09146                  22724560.7504
        16.5004         16.0004
  22999517.6644    7551370.28446   5855895.45446                  22999525.4844
        17.0004         15.7504
  22748173.1724   -8109156.20545  -6179890.60646                  22748181.2034
        11.0004         12.0004
  21516278.1884   -2488848.70748  -1935621.48847                  21516284.5514
        28.5004         29.0004
  24843103.4694    -135422.71945    -81025.54145                  24843115.6604
         8.0004          8.2504
  21123427.9614   -8583218.12448  -6679163.91747                  21123435.5474
        29.0004         28.2504
 98  6 12 16  9 30.0010000  0  8G 2G 4G 8G 7G 5G 9G16G24
  23987592.3884    7708313.03146   3623908.32045                  23987603.1264
        13.0004         11.7504
  20792978.8564   -2205195.24248  -1718333.65747                  20792984.8924
        32.0004         29.0004
  22719153.9194   -6444662.59946  -4827609.59446                  22719161.1884
        15.7504         16.0004
  23007205.4034    7591771.39746   5887376.79346                  23007214.2314
        17.5004         15.7504
  22742013.1774   -8141528.14045  -6205115.49246                  22742020.5994
        11.2504         12.0004
  21517840.2244   -2480639.85447  -1929224.98247                  21517847.2714
        27.2504         29.2504
  24842651.0674    -137798.24545    -82876.57645                  24842661.1854
         9.2504          8.5004
  21118942.4664   -8606790.17748  -6697531.73447                  21118949.9814
        29.0004         28.5004
 98  6 12 16  9 45.0010000  0  8G 2G 4G 8G 7G 5G 9G16G24
  23996405.4814    7754626.15146   3659996.40046                  23996416.4664
        12.5004         12.2504
  20795054.3804   -2194287.99348  -1709834.50947                  20795060.3684
        30.2504         29.0004
  22713783.1304   -6472885.86646  -4849601.72346                  22713790.5284
        15.7504         16.0004
  23014899.8494    7632206.05146   5918884.28646                  23014908.7824
        18.2504         16.2504
  22735863.8724   -8173846.79145  -6230298.83246                  22735871.2944
        11.7504         12.7504
  21519433.4814   -2472265.69847  -1922699.67347                  21519440.4464
        27.0004         29.7504
  24842224.4274    -140041.51845    -84624.56245                  24842236.6424
         8.2504          8.7504
  21114485.2084   -8630212.26548  -6715782.69947                  21114492.4784
        29.0004         29.0004
 98  6 12 16 10  0.0010000  0  8G 2G 4G 8G 7G 5G 9G16G24
  24005234.7944    7801024.55546   3696150.91245                  24005246.3534
        12.7504         11.7504
  20797161.6064   -2183215.02848  -1701206.21747                  20797167.8414
        30.2504         28.5004
  22708439.5674   -6500965.92846  -4871482.29846                  22708447.5524
        15.0004         15.7504
  23022601.3884    7672674.05646   5950417.76246                  23022610.4854
        16.5004         15.2504
  22729721.9274   -8206117.85745  -6255445.10146                  22729729.6304
        11.0004         12.2504
  21521058.3644   -2463726.80947  -1916045.99447                  21521064.9034
        26.2504         28.2504
  24841823.3254    -142151.58045    -86268.71845                  24841835.1304
         9.0004          8.5004
  21110055.7714   -8653490.60148  -6733921.64747                  21110062.9934
        29.7504         29.0004
 98  6 12 16 10 15.0010000  0  8G 2G 4G 8G 7G 5G 9G16G24
  24014079.8804    7847507.47445   3732371.33145                  24014090.5714
        11.7504         11.5004
  20799301.5054   -2171969.78048  -1692443.69147                  20799307.5404
        30.5004         28.5004
  22703123.2244   -6528903.17046  -4893251.54346                  22703130.6464
        16.2504         16.2504
  23030308.9354    7713178.02846   5981979.26846                  23030317.7634
        15.7504         15.2504
  22723591.2784   -8238338.62546  -6280552.19046                  22723598.5244
        12.2504         12.7504
  21522715.4034   -2455019.97348  -1909261.45147                  21522721.8604
        29.0004         29.5004
  24841447.6304    -144123.57545    -87805.25645                  24841457.8644
         9.5004          9.0004
  21105653.5834   -8676623.73748  -6751947.45047                  21105661.0874
        28.5004         29.0004
 98  6 12 16 10 30.0010000  0  8G 2G 4G 8G 7G 5G 9G16G24
  24022941.6694    7894072.52146   3768655.70745                  24022951.8684
        12.2504         10.7504
  20801474.2864   -2160552.37148  -1683547.00247                  20801480.2864
        30.5004         28.5004
  22697834.1064   -6556699.33446  -4914910.88646                  22697841.3414
        16.5004         15.7504
  23038023.1924    7753717.64746   6013568.56546                  23038031.8214
        17.7504         15.5004
  22717469.6064   -8270508.79546  -6305619.81746                  22717477.3334
        12.0004         13.2504
  21524404.2714   -2446145.40048  -1902346.19747                  21524411.0564
        30.0004         30.2504
  24841098.2474    -145959.20845    -89235.58045                  24841108.5634
        10.5004         10.0004
  21101279.7084   -8699608.33347  -6769857.50947                  21101287.4114
        27.5004         28.7504
 98  6 12 16 10 45.0010000  0  8G 2G 4G 8G 7G 5G 9G16G24
  24031817.9744    7940720.48146   3805004.72445                  24031827.4234
        12.7504         11.0004
  20803679.7944   -2148960.33348  -1674514.23647                  20803685.8174
        30.0004         28.5004
  22692571.3494   -6584355.32346  -4936461.00946                  22692578.6774
        15.2504         16.2504
  23045743.8724    7794292.31646   6045185.16346                  23045751.2004
        18.5004         15.2504
  22711356.8964   -8302627.70746  -6330647.54746                  22711364.7044
        12.0004         13.0004
  21526125.2864   -2437100.79948  -1895298.46647                  21526132.3804
        29.0004         30.5004
  24840775.0524    -147657.64645    -90558.99945                  24840785.9424
        11.5004         10.0004
  21096934.0604   -8722444.44847  -6787651.88147                  21096941.6574
        27.7504         28.2504
 98  6 12 16 11  0.0010000  0  8G 2G 4G 8G 7G 5G 9G16G24
  24040711.3494    7987454.39646   3841420.69445                  24040721.3024
        12.0004         11.0004
  20805919.6064   -2137190.58448  -1665343.01347                  20805925.7354
        29.7504         29.0004
  22687335.2864   -6611869.67046  -4957900.75246                  22687342.9894
        16.5004         16.2504
  23053472.2394    7834902.56546   6076829.48446                  23053479.9784
        18.0004         15.2504
  22705254.5754   -8334696.43945  -6355636.14846                  22705262.7004
        11.7504         13.2504
  21527879.0834   -2427885.12648  -1888117.42847                  21527885.9424
        28.2504         30.0004
  24840478.7314    -149217.67846    -91774.59345                  24840487.9114
        14.2504         11.0004
  21092616.6304   -8745134.09248  -6805332.10847                  21092623.9354
        29.7504         28.2504
 98  6 12 16 11 15.0010000  0  8G 2G 4G 8G 7G 5G 9G16G24
  24049621.3104    8034277.45645   3877906.13445                  24049631.8374
        10.7504         10.2504
  20808194.0524   -2125238.72248  -1656029.88147                  20808200.1104
        29.7504         29.0004
  22682126.3724   -6639241.76146  -4979229.64946                  22682134.6264
        15.5004         16.7504
  23061207.2474    7875549.67846   6108502.52646                  23061215.2554
        16.2504         15.2504
  22699161.7554   -8366714.89545  -6380585.56846                  22699169.6814
        11.2504         13.2504
  21529664.9034   -2418500.06448  -1880804.38947                  21529671.3024
        29.0004         29.7504
  24840208.8804    -150635.58646    -92879.41745                  24840217.0874
        14.2504         11.0004
  21088326.6694   -8767677.25248  -6822898.21247                  21088333.8684
        28.5004         28.5004
 98  6 12 16 11 30.0010000  0  8G 2G 4G 8G 7G 5G 9G16G24
  24058547.8104    8081187.93245   3914459.70445                  24058558.1734
        10.0004          9.7504
  20810503.2314   -2113103.78548  -1646574.08447                  20810509.3134
        30.2504         29.2504
  22676944.2944   -6666473.74446  -5000449.37646                  22676952.1144
        15.7504         16.2504
  23068948.3254    7916231.57446   6140202.67446                  23068957.1184
        16.0004         15.0004
  22693077.9504   -8398685.65646  -6405497.83946                  22693085.0564
        12.2504         13.0004
  21531482.8884   -2408946.54048  -1873360.08847                  21531489.4504
        28.7504         29.5004
  24839966.4894    -151911.27946    -93873.41445                  24839975.3644
        14.2504         11.0004
  21084063.5674   -8790079.12448  -6840354.18547                  21084071.3174
        28.2504         28.7504
 98  6 12 16 11 45.0010000  0  8G 2G 4G 8G 7G 5G 9G16G24
  24067491.3644    8128184.62645   3951080.46545                  24067501.2594
        11.0004         10.0004
  20812846.6384   -2100789.15048  -1636978.27047                  20812852.6264
        31.2504         28.7504
  22671788.4974   -6693567.72246  -5021561.55146                  22671795.9894
        16.7504         15.7504
  23076695.4814    7956942.43946   6171925.38046                  23076704.0874
        17.0004         15.0004
  22687003.4194   -8430608.02346  -6430372.38546                  22687010.8994
        12.0004         12.7504
  21533332.7394   -2399226.70248  -1865786.21047                  21533339.0094
        29.5004         29.5004
  24839749.7164    -153045.31546    -94757.05345                  24839758.3454
        12.0004          9.7504
  21079827.1924   -8812342.29248  -6857702.10847                  21079834.6144
        28.0004         28.5004
 98  6 12 16 12  0.0010000  0  8G 2G 4G 8G 7G 5G 9G16G24
  24076450.2864    8175265.29545   3987766.63345                  24076461.3414
        11.0004         10.5004
  20815224.0054   -2088295.88848  -1627243.25647                  20815230.1344
        29.7504         29.0004
  22666658.9424   -6720523.16846  -5042565.77446                  22666667.0094
        16.7504         16.2504
  23084447.8494    7997682.29646   6203670.69546                  23084456.0444
        17.0004         15.2504
  22680938.4814   -8462482.22846  -6455209.42946                  22680945.7394
        12.5004         12.7504
  21535213.9194   -2389339.60848  -1858081.98347                  21535220.1064
        31.7504         30.0004
  24839561.3644    -154034.00645    -95527.38745                  24839569.2674
        11.7504          9.5004
  21075617.2314   -8834465.01747  -6874940.57947                  21075625.0054
        27.7504         28.2504
 98  6 12 16 12 15.0010000  0  8G 2G 4G 8G 7G 5G 9G16G24
  24085425.4194    8222430.66746   4024518.85145                  24085437.2244
        12.2504         11.2504
  20817635.3724   -2075624.34848  -1617369.34147                  20817641.5834
        29.7504         29.0004
  22661557.0364   -6747335.72046  -5063458.68546                  22661564.9384
        15.7504         16.0004
  23092206.8174    8038452.52546   6235439.65946                  23092216.2784
        16.2504         15.0004
  22674881.6694   -8494306.69246  -6480007.69446                  22674888.7744
        12.0004         12.7504
  21537126.9974   -2379284.87448  -1850247.12147                  21537133.1494
        30.2504         29.7504
  24839401.8174    -154875.36645    -96182.92645                  24839411.6884
        11.2504         10.2504
  21071434.8334   -8856443.64248  -6892066.76647                  21071442.0324
        29.7504         28.5004
 98  6 12 16 12 30.0010000  0  8G 2G 4G 8G 7G 5G 9G16G24
  24094417.8254    8269682.26646   4061338.22145                  24094428.7984
        12.7504         10.7504
  20820080.2944   -2062777.17648  -1607358.56347                  20820086.4704
        30.7504         29.5004
  22656482.2944   -6774004.78946  -5084239.75346                  22656489.7394
        16.7504         16.0004
  23099970.0284    8079249.79346   6267229.74146                  23099979.8994
        14.5004         15.2504
  22668834.2714   -8526084.29145  -6504769.42846                  22668842.0674
        11.0004         13.0004
  21539072.0444   -2369064.94348  -1842283.55747                  21539078.1964
        28.7504         29.5004
  24839268.5754    -155575.21346    -96728.21745                  24839277.4384
        14.0004         10.5004
  21067280.1064   -8878276.17948  -6909079.12547                  21067287.1534
        29.7504         28.2504
 98  6 12 16 12 45.0010000  0  8G 2G 4G 8G 7G 5G 9G16G24
  24103426.4354    8317022.55546   4098226.68245                  24103436.6814
        12.7504         10.5004
  20822557.6224   -2049758.33648  -1597214.00947                  20822564.0094
        30.5004         29.5004
  22651434.7554   -6800529.78246  -5104908.56846                  22651441.4114
        17.2504         15.5004
  23107738.3564    8120072.00346   6299039.23246                  23107746.4584
        15.0004         15.2504
  22662796.5284   -8557815.28445  -6529494.85146                  22662804.7824
        11.5004         13.5004
  21541048.2394   -2358680.61648  -1834191.87647                  21541054.3564
        30.2504         29.5004
  24839161.9814    -156135.77346    -97164.99745                  24839171.2314
        13.2504         10.5004
  21063153.3254   -8899963.34148  -6925978.19847                  21063160.4894
        28.5004         28.5004
 98  6 12 16 13  0.0010000  0  8G 2G 4G 8G 7G 5G 9G16G24
  24112451.8804    8364450.17646   4135183.23245                  24112462.2434
        13.2504         11.5004
  20825066.9274   -2036569.83748  -1586937.26347                  20825073.4074
        30.2504         29.7504
  22646414.3964   -6826909.46046  -5125464.14246                  22646421.8414
        15.2504         15.5004
  23115511.0364    8160918.75946   6330867.82146                  23115519.3024
        17.5004         16.0004
  22656767.2244   -8589500.05846  -6554184.28046                  22656774.3064
        12.5004         13.0004
  21543055.1144   -2348133.92348  -1825973.67647                  21543061.2554
        30.2504         30.2504
  24839081.3254    -156557.46446    -97493.50745                  24839090.9504
        12.2504          9.7504
  21059053.3884   -8921508.44447  -6942766.58047                  21059060.7634
        27.2504         28.5004
 98  6 12 16 13 15.0010000  0  8G 2G 4G 8G 7G 5G 9G16G24
  24121494.2004    8411966.50145   4172208.89645                  24121504.3884
        11.7504         10.2504
  20827609.2474   -2023212.14248  -1576528.68147                  20827615.5404
        30.0004         29.5004
  22641423.1694   -6853141.39946  -5145904.62246                  22641431.1184
        15.7504         15.5004
  23123288.9974    8201792.40046   6362717.39946                  23123296.6184
        17.7504         15.5004
  22650747.0524   -8621133.39845  -6578833.61546                  22650754.4974
        11.0004         12.5004
  21545093.2314   -2337423.64648  -1817628.01647                  21545099.6654
        29.5004         30.2504
  24839027.8644    -156837.12845    -97711.43145                  24839036.7394
        10.7504          9.7504
  21054981.1774   -8942908.89948  -6959442.26147                  21054988.5284
        28.0004         28.7504
 98  6 12 16 13 30.0010000  0  8G 2G 4G 8G 7G 5G 9G16G24
  24130552.3644    8459569.87146   4209302.33745                  24130560.9704
        12.0004          9.7504
  20830183.0604   -2009686.62848  -1565989.32147                  20830189.4704
        29.2504         29.2504
  22636459.0994   -6879225.43946  -5166229.82646                  22636466.0994
        16.0004         15.2504
  23131072.6854    8242695.78446   6394590.14546                  23131080.4234
        17.2504         15.7504
  22644737.9354   -8652713.98945  -6603441.83946                  22644745.3334
        10.5004         12.2504
  21547163.0914   -2326546.56948  -1809152.38047                  21547169.4194
        28.0004         29.2504
  24839002.0834    -156973.51446    -97817.67045                  24839013.0094
        12.2504         10.7504
  21050936.3024   -8964165.36748  -6976005.72547                  21050943.3254
        31.7504         29.5004
 98  6 12 16 13 45.0010000  0  8G 2G 4G 8G 7G 5G 9G16G24
  24139627.7084    8507261.34646   4246464.47845                  24139637.4504
        12.7504         10.5004
  20832788.1854   -1995995.77648  -1555321.12147                  20832794.5484
        30.2504         29.5004
  22631523.7084   -6905161.02146  -5186439.31646                  22631531.1774
        15.7504         15.2504
  23138862.0214    8283628.79946   6426485.95146                  23138870.1344
        17.0004         15.2504
  22638737.8024   -8684241.87645  -6628009.00946                  22638744.9314
        11.2504         13.0004
  21549264.8104   -2315501.22547  -1800545.64147                  21549270.9854
        27.7504         29.2504
  24839002.9034    -156966.71645    -97812.34045                  24839014.6614
         9.0004         10.0004
  21046919.1384   -8985275.45348  -6992455.12647                  21046925.8764
        32.2504         30.0004
 98  6 12 16 14  0.0010000  0  8G 2G 4G 8G 7G 5G 9G16G24
  24148719.9664    8555040.99745   4283695.27945                  24148729.8254
        11.7504          9.5004
  20835425.1694   -1982138.71448  -1544523.41447                  20835431.3334
        30.7504         29.5004
  22626616.5674   -6930947.79046  -5206532.88146                  22626624.3534
        15.0004         15.5004
  23146657.1774    8324592.46246   6458405.65546                  23146665.7944
        17.7504         15.5004
  22632748.4354   -8715718.90245  -6652536.54846                  22632755.2674
        11.2504         12.5004
  21551398.8254   -2304287.23647  -1791807.45447                  21551405.8134
        27.5004         29.7504
  24839032.0914    -156815.82645    -97694.76245                  24839043.9314
         9.2504          9.2504
  21042930.1464   -9006237.10948  -7008788.86547                  21042936.9074
        30.5004         30.2504
 98  6 12 16 14 15.0010000  0  8G 2G 4G 8G 7G 5G 9G16G24
  24157829.0834    8602907.80645   4320994.02645                  24157837.7004
        11.5004          9.5004
  20838094.2004   -1968113.54948  -1533594.71747                  20838100.1534
        30.7504         28.7504
  22621737.5134   -6956586.20246  -5226510.85946                  22621745.1574
        15.7504         16.0004
  23154458.8254    8365589.28646   6490351.21446                  23154467.1264
        17.0004         14.7504
  22626767.9504   -8747147.60345  -6677026.41446                  22626774.3844
        11.5004         12.5004
  21553564.6384   -2292906.63847  -1782939.44947                  21553571.9074
        27.0004         29.0004
  24839087.3964    -156522.66245    -97466.31145                  24839099.6224
        10.0004          9.5004
  21038969.7394   -9027050.49048  -7025007.07947                  21038976.6104
        30.2504         29.5004
 98  6 12 16 14 30.0010000  0  8G 2G 4G 8G 7G 5G 9G16G24
  24166954.0364    8650862.04745   4358360.90145                  24166963.2394
        11.5004          9.5004
  20840795.7084   -1953916.99748  -1522532.47547                  20840801.7204
        30.7504         28.7504
  22616886.7244   -6982075.39846  -5246372.56846                  22616894.2394
        16.5004         16.0004
  23162266.6924    8406620.31746   6522323.42846                  23162274.8294
        16.2504         15.0004
  22620796.6384   -8778524.23545  -6701475.73246                  22620803.3174
        11.7504         12.5004
  21555761.9974   -2281359.17948  -1773941.44047                  21555768.8064
        28.7504         29.2504
  24839170.5444    -156087.53146    -97127.23745                  24839181.5874
        12.2504         10.2504
  21035037.3334   -9047715.53148  -7041109.69247                  21035044.2744
        32.0004         29.7504
 98  6 12 16 14 45.0010000  0  8G 2G 4G 8G 7G 5G 9G16G24
  24176096.2244    8698901.61045   4395794.25145                  24176106.1424
        11.2504         10.2504
  20843530.2314   -1939546.34748  -1511334.56047                  20843536.2434
        31.2504         29.0004
  22612065.7394   -7007412.90146  -5266116.04246                  22612073.8884
        14.2504         15.2504
  23170081.6464    8447687.15346   6554323.54346                  23170090.1924
        16.0004         15.5004
  22614835.9894   -8809849.00445  -6725884.65246                  22614842.2244
        11.5004         13.0004
  21557990.7944   -2269647.28047  -1764815.29247                  21557997.2514
        27.7504         28.7504
  24839281.6694    -155506.61146    -96674.52145                  24839293.5444
        12.5004         11.0004
  21031133.0914   -9068232.51447  -7057096.93647                  21031140.1854
        27.0004         30.5004
 98  6 12 16 15  0.0010000  0  8G 2G 4G 8G 7G 5G 9G16G24
  24185252.8414    8747022.27545   4433290.79245                  24185264.0604
        10.7504          9.7504
  20846298.0524   -1925001.66648  -1500001.04447                  20846303.8174
        32.0004         29.2504
  22607272.8414   -7032597.54646  -5285740.45846                  22607280.4274
        14.5004         14.7504
  23177903.5834    8488792.65146   6586353.77046                  23177912.0134
        16.0004         15.7504
  22608885.1224   -8841121.99145  -6750253.18446                  22608892.2164
        11.5004         13.2504
  21560250.0284   -2257774.66948  -1755563.91147                  21560256.5324
        28.2504         29.0004
  24839420.1224    -154777.96645    -96106.71845                  24839431.7164
        11.5004         11.2504
  21027256.1464   -9088604.75148  -7072971.39947                  21027262.7904
        31.2504         30.5004
 98  6 12 16 15 15.0010000  0  8G 2G 4G 8G 7G 5G 9G16G24
  24194424.5134    8795219.70745   4470847.21945                  24194434.5244
         9.5004          9.5004
  20849098.9034   -1910284.03348  -1488532.76047                  20849104.9974
        31.5004         29.0004
  22602509.3724   -7057630.54946  -5305246.65746                  22602517.0994
        14.7504         15.5004
  23185732.3564    8529932.85346   6618411.04146                  23185741.9354
        15.7504         16.2504
  22602943.4664   -8872344.28345  -6774582.22746                  22602950.1344
        11.5004         12.7504
  21562539.2164   -2245744.74848  -1746189.95447                  21562545.7434
        28.2504         29.0004
  24839586.2474    -153902.75746    -95424.73745                  24839598.4384
        12.5004         11.0004
  21023406.7634   -9108833.88548  -7088734.34047                  21023413.6464
        32.0004         31.0004
 98  6 12 16 15 30.0010000  0  8G 2G 4G 8G 7G 5G 9G16G24
  24203611.1464    8843493.63745   4508463.20145                  24203621.8844
        10.5004          9.5004
  20851932.3884   -1895394.59548  -1476930.59847                  20851938.4114
        31.7504         29.0004
  22597774.6224   -7082513.31346  -5324635.81246                  22597782.2554
        14.2504         14.7504
  23193567.4664    8571104.73346   6650492.99146                  23193577.0674
        16.2504         16.2504
  22597011.2244   -8903520.04546  -6798874.99746                  22597017.2474
        12.2504         12.7504
  21564858.0674   -2233559.50748  -1736694.97047                  21564864.7244
        28.7504         29.5004
  24839780.6854    -152882.18945    -94629.46845                  24839793.1224
        11.5004         11.5004
  21019584.4354   -9128920.64048  -7104386.35147                  21019591.6574
        31.2504         30.5004
 98  6 12 16 15 45.0010000  0  8G 2G 4G 8G 7G 5G 9G16G24
  24212812.0524    8891844.09546   4546138.83745                  24212822.0174
        12.2504         10.2504
  20854798.6064   -1880332.45148  -1465193.86447                  20854804.7354
        32.0004         29.7504
  22593067.9584   -7107247.00746  -5343908.83346                  22593074.7554
        14.7504         14.0004
  23201407.5604    8612307.69746   6682599.15946                  23201416.9624
        16.2504         16.0004
  22591087.3414   -8934651.32346  -6823133.13446                  22591094.0564
        12.5004         13.2504
  21567206.0444   -2221221.40848  -1727080.87247                  21567212.9504
        28.0004         28.7504
  24840001.7714    -151718.49145    -93722.63345                  24840014.1854
        11.5004         11.2504
  21015789.0364   -9148864.32048  -7119926.86247                  21015796.3644
        30.5004         30.5004
 98  6 12 16 16  0.0010000  0  8G 2G 4G 8G 7G 5G 9G16G24
  24222027.1614    8940273.36145   4583875.89145                  24222036.4234
        10.5004          9.7504
  20857697.5284   -1865097.81948  -1453322.72547                  20857703.5404
        31.5004         29.0004
  22588389.8724   -7131828.51346  -5363063.20846                  22588396.8964
        15.0004         14.2504
  23209254.8414    8653542.71146   6714730.30246                  23209263.3064
        16.5004         15.5004
  22585172.5364   -8965731.15546  -6847351.17246                  22585179.2634
        12.0004         13.2504
  21569582.8564   -2208730.15348  -1717347.43447                  21569589.5364
        28.0004         28.2504
  24840250.3334    -150413.03545    -92705.40645                  24840261.6694
        11.5004         10.7504
  21012021.8414   -9168661.92448  -7135353.55447                  21012029.1104
        31.7504         30.5004
 98  6 12 16 16 15.0010000  0  8G 2G 4G 8G 7G 5G 9G16G24
  24231257.8804    8988779.72845   4621672.98345                  24231268.2674
        11.2504         10.7504
  20860628.8564   -1849692.41848  -1441318.51047                  20860634.9274
        31.2504         29.5004
  22583741.3254   -7156257.65446  -5382098.90246                  22583748.2434
        15.7504         13.7504
  23217108.3494    8694812.16646   6746888.28046                  23217117.7044
        15.7504         15.5004
  22579268.5054   -8996758.11446  -6871527.98946                  22579275.2904
        12.7504         13.5004
  21571989.0134   -2196086.47848  -1707495.22547                  21571995.3414
        30.0004         28.7504
  24840524.9894    -148967.75045    -91579.20145                  24840537.0174
         9.0004         10.7504
  21008281.8964   -9188315.37848  -7150667.92947                  21008289.2354
        32.0004         30.7504
 98  6 12 16 16 30.0010000  0  8G 2G 4G 8G 7G 5G 9G16G24
  24240502.7634    9037362.39445   4659529.54545                  24240513.8994
        10.2504         10.0004
  20863592.6694   -1834117.67248  -1429182.35847                  20863598.7164
        31.2504         29.2504
  22579122.3024   -7180532.97146  -5401014.71446                  22579129.1734
        15.0004         14.2504
  23224968.2474    8736117.89346   6779074.52846                  23224976.6884
        15.5004         15.7504
  22573375.1224   -9027728.28446  -6895660.58146                  22573382.0524
        12.7504         13.5004
  21574424.2944   -2183288.74148  -1697522.96547                  21574430.5874
        30.5004         29.7504
  24840827.6384    -147380.47345    -90342.29145                  24840839.1034
        10.0004         10.2504
  21004569.2314   -9207824.40048  -7165869.74347                  21004576.3604
        32.0004         30.7504
 98  6 12 16 16 45.0010000  0  8G 2G 4G 8G 7G 5G 9G16G24
  24249761.9504    9086020.03845   4697444.50545                  24249773.4274
         9.0004          9.2504
  20866587.8414   -1818378.30348  -1416917.92247                  20866593.8764
        31.7504         29.5004
  22574531.2164   -7204657.23546  -5419812.84046                  22574538.2284
        15.7504         15.0004
  23232834.2164    8777455.20046   6811285.39446                  23232842.4704
        15.7504         15.0004
  22567491.2944   -9058646.42446  -6919752.61946                  22567498.0444
        12.5004         13.7504
  21576888.9114   -2170336.75748  -1687430.52747                  21576895.4384
        29.5004         30.2504
  24841155.7314    -145653.34345    -88996.50245                  24841167.7824
         9.2504          9.7504
  21000883.6144   -9227192.01248  -7180961.37647                  21000891.2354
        29.5004         30.5004
 98  6 12 16 17  0.0010000  0  8G 2G 4G 8G 7G 5G 9G16G24
  24259036.3494    9134755.51945   4735420.18045                  24259046.1734
         8.7504          9.7504
  20869613.6464   -1802476.93448  -1404527.23747                  20869619.6814
        31.2504         29.7504
  22569969.0524   -7228631.91046  -5438494.34346                  22569976.4274
        16.0004         14.7504
  23240706.7474    8818823.71346   6843520.56146                  23240715.2004
        16.2504         15.7504
  22561617.7164   -9089512.37046  -6943803.96546                  22561625.0674
        13.0004         14.7504
  21579383.5364   -2157228.39548  -1677216.23247                  21579390.1574
        30.2504         29.7504
  24841510.5364    -143786.41345    -87541.77045                  24841521.0404
         8.2504          9.0004
  20997225.3494   -9246416.56848  -7195941.53347                  20997233.3804
        29.7504         30.7504
 98  6 12 16 17 15.0010000  0  8G 2G 4G 8G 7G 5G 9G16G24
  24268326.2084    9183573.21945   4773459.87345                  24268335.8804
         8.2504          9.0004
  20872669.9194   -1786415.90148  -1392012.14947                  20872676.1304
        29.7504         29.0004
  22565434.9034   -7252459.91246  -5457061.66046                  22565440.8454
        16.5004         13.7504
  23248584.0364    8860219.50446   6875777.00246                  23248593.0054
        16.2504         14.7504
  22555754.5524   -9120323.27546  -6967812.46546                  22555762.0094
        13.0004         15.0004
  21581908.4194   -2143958.71148  -1666876.21647                  21581914.9814
        29.5004         28.7504
  24841892.3724    -141781.49545    -85979.46745                  24841903.1464
         7.7504          8.2504
  20993594.7554   -9265496.04048  -7210808.65047                  20993602.3064
        31.2504         30.0004
 98  6 12 16 17 30.0010000  0  8G 2G 4G 8G 7G 5G 9G16G24
  24277632.2784    9232475.14945   4811565.19345                  24277642.8884
        10.0004          9.5004
  20875756.6774   -1770195.14148  -1379372.60547                  20875763.0754
        30.2504         29.2504
  22560928.1144   -7276144.35346  -5475517.03646                  22560934.0794
        16.7504         14.0004
  23256466.1064    8901641.45046   6908053.81546                  23256474.5134
        16.0004         15.2504
  22549902.2474   -9151079.37446  -6991778.22146                  22549909.5054
        14.2504         14.7504
  21584464.8804   -2130524.79048  -1656408.22547                  21584471.7514
        28.7504         29.0004
  24842299.5754    -139640.01845    -84310.79845                  24842311.3684
         7.7504          8.2504
  20989991.9974   -9284427.95348  -7225560.77847                  20989999.4784
        32.2504         31.0004
 98  6 12 16 17 45.0010000  0  8G 2G 4G 8G 7G 5G 9G16G24
  24286953.2314    9281459.08345   4849734.45845                  24286963.3024
         9.7504         10.0004
  20878873.3334   -1753817.00048  -1366610.42847                  20878879.7674
        31.2504         29.5004
  22556447.6224   -7299688.99446  -5493863.46346                  22556453.7634
        16.0004         14.0004
  23264353.9744    8943091.70546   6940352.69946                  23264362.0404
        15.0004         14.5004
  22544060.1064   -9181781.05246  -7015701.60046                  22544067.5634
        14.5004         15.2504
  21587052.7864   -2116925.86948  -1645811.68947                  21587059.4784
        28.7504         29.0004
  24842733.0134    -137364.05245    -82537.28445                  24842743.2244
        10.0004          8.5004
  20986417.3884   -9303213.06048  -7240198.51347                  20986424.6814
        32.0004         30.7504
 98  6 12 16 18  0.0010000  0  8G 2G 4G 8G 7G 5G 9G16G24
  24296290.4504    9330529.98245   4887971.44345                  24296301.4354
         8.2504          9.2504
  20882020.6774   -1737278.41448  -1353723.21947                  20882026.9934
        31.5004         29.2504
  22551994.5214   -7323090.83446  -5512098.68546                  22552000.4274
        17.0004         15.2504
  23272248.1694    8984575.96546   6972678.05646                  23272257.3844
        13.2504         14.0004
  22538229.6384   -9212419.80846  -7039575.93046                  22538236.3414
        15.0004         15.7504
  21589673.4814   -2103155.20048  -1635081.30747                  21589679.8924
        30.0004         29.5004
  24843193.0994    -134949.65245    -80655.94445                  24843202.5714
        10.7504          8.5004
  20982871.4424   -9321845.52748  -7254717.30247                  20982878.9584
        30.7504         30.7504
 98  6 12 16 18 15.0010000  0  8G 2G 4G 8G 7G 5G 9G16G24
  24305645.9814    9379688.92645   4926277.01745                  24305658.3724
         9.2504          9.7504
  20885198.4504   -1720578.41448  -1340710.23247                  20885204.5794
        30.0004         28.7504
  22547568.0604   -7346350.05346  -5530222.72446                  22547574.0714
        17.0004         15.0004
  23280148.2714    9026093.31146   7005029.20446                  23280158.2124
        13.2504         14.2504
  22532410.9424   -9242997.60146  -7063402.77646                  22532417.2594
        14.5004         15.7504
  21592326.7864   -2089210.36248  -1624215.19547                  21592333.2784
        30.5004         30.0004
  24843678.9664    -132396.52945    -78666.47545                  24843688.8724
        11.2504          9.0004
  20979355.3724   -9340323.32548  -7269115.58047                  20979363.2514
        29.5004         31.0004
 98  6 12 16 18 30.0010000  0  8G 2G 4G 8G 7G 5G 9G16G24
  24315016.0914    9428930.21245   4964646.79345                  24315027.0524
         8.2504          9.2504
  20888406.7784   -1703718.97948  -1327573.00747                  20888412.7904
        30.2504         29.2504
  22543168.3884   -7369472.38746  -5548240.11746                  22543175.3764
        16.2504         16.2504
  23288053.6924    9067636.43546   7037400.43246                  23288063.3994
        14.5004         15.2504
  22526601.9744   -9273524.84046  -7087190.21046                  22526608.6884
        15.7504         16.5004
  21595012.0604   -2075098.06848  -1613218.61647                  21595019.0604
        29.0004         30.0004
  24844190.3804    -129705.20145    -76569.35245                  24844201.0954
         9.0004          8.5004
  20975867.8334   -9358651.52948  -7283397.27747                  20975875.4194
        32.0004         31.0004
 98  6 12 16 18 45.0010000  0  8G 2G 4G 8G 7G 5G 9G16G24
  24324402.9274    9478259.16845   5003084.84245                  24324415.0954
         9.5004         10.0004
  20891646.3104   -1686695.67548  -1314308.10747                  20891652.5794
        30.5004         29.0004
  22538794.9274   -7392453.02746  -5566147.10046                  22538802.1494
        16.5004         15.5004
  23295964.1694    9109203.85446   7069790.59046                  23295974.0404
        13.0004         14.7504
  22520802.6144   -9303999.63446  -7110936.80046                  22520809.1304
        15.5004         16.2504
  21597730.1224   -2060816.41348  -1602090.06247                  21597737.5324
        29.0004         30.2504
  24844729.5674    -126872.51345    -74362.01045                  24844739.6964
        10.0004          8.7504
  20972409.2864   -9376827.18648  -7297560.12447                  20972416.4154
        32.0004         30.7504
 98  6 12 16 19  0.0010000  0  8G 2G 4G 8G 7G 5G 9G16G24
  24333808.2714    9527679.34945   5041594.01945                  24333819.2434
        11.7504         10.2504
  20894917.1304   -1669506.93748  -1300914.29047                  20894923.6814
        30.2504         29.5004
  22534449.3564   -7415289.65646  -5583941.85546                  22534457.1774
        17.5004         16.7504
  23303878.9974    9150796.76046   7102200.61246                  23303888.8454
        13.0004         14.5004
  22515013.2394   -9334421.91646  -7134642.43146                  22515019.4854
        16.2504         16.2504
  21600479.9424   -2046365.85448  -1590829.90347                  21600486.6224
        30.5004         29.7504
  24845296.4274    -123899.18945    -72045.15445                  24845306.2634
         9.2504          8.7504
  20968979.7784   -9394848.82248  -7311602.93847                  20968987.0484
        31.5004         30.7504
 98  6 12 16 19 15.0010000  0  8G 2G 4G 8G 7G 5G 9G16G24
  24343228.9114    9577187.59445   5080171.81045                  24343239.6964
        11.2504         10.7504
  20898219.2164   -1652154.58548  -1287392.97547                  20898225.8724
        31.2504         29.7504
  22530130.9114   -7437982.24146  -5601624.37446                  22530138.7084
        16.2504         16.7504
  23311798.2474    9192414.90346   7134630.29546                  23311807.3104
        13.0004         14.5004
  22509234.2314   -9364791.39446  -7158306.94146                  22509240.5834
        16.2504         16.7504
  21603261.1384   -2031750.19348  -1579441.07047                  21603267.3374
        30.2504         29.0004
  24845888.3644    -120785.57345    -69618.92145                  24845898.6814
         9.7504          8.7504
  20965579.1144   -9412718.36748  -7325527.24847                  20965586.4664
        31.5004         30.7504
 98  6 12 16 19 30.0010000  0  8G 2G 4G 8G 7G 5G 9G16G24
  24352666.4274    9626780.50845   5118815.59945                  24352676.0174
        11.0004         10.2504
  20901552.6064   -1634637.18648  -1273743.05547                  20901558.9814
        30.2504         29.0004
  22525840.8564   -7460527.71746  -5619192.25446                  22525848.7354
        17.2504         16.7504
  23319723.3494    9234060.27346   7167081.21446                  23319732.6814
        14.0004         14.2504
  22503465.1464   -9395108.57646  -7181930.70946                  22503471.7554
        17.0004         16.7504
  21606073.1774   -2016970.19248  -1567924.19747                  21606079.9154
        29.5004         29.2504
  24846507.4504    -117531.39545    -67083.18545                  24846517.9664
         9.7504          8.7504
  20962207.2394   -9430437.70348  -7339334.51047                  20962214.6734
        31.2504         31.0004
 98  6 12 16 19 45.0010000  0  8G 2G 4G 8G 7G 5G 9G16G24
  24362118.8334    9676454.22545   5157522.29745                  24362129.0564
        10.5004          9.7504
  20904917.7004   -1616953.14748  -1259963.29447                  20904923.9354
        29.7504         29.0004
  22521578.9504   -7482922.65546  -5636642.83746                  22521586.8884
        16.7504         17.0004
  23327653.2394    9275735.96446   7199555.73446                  23327662.1964
        13.7504         14.7504
  22497705.7394   -9425373.12246  -7205513.45146                  22497712.6104
        16.5004         16.7504
  21608917.1854   -2002028.07948  -1556281.01147                  21608924.0564
        30.0004         29.2504
  24847152.9974    -114135.89445    -64437.34145                  24847164.6034
         8.5004          8.7504
  20958863.0994   -9448011.16548  -7353028.09847                  20958870.4034
        32.0004         30.7504
 98  6 12 16 20  0.0010000  0  8G 2G 4G 8G 7G 5G 9G16G24
  24371587.2554    9726209.98045   5196292.95345                  24371597.3254
         9.7504         10.2504
  20908314.3964   -1599103.28448  -1246054.31147                  20908320.7474
        30.7504         29.2504
  22517346.2864   -7505164.51646  -5653974.15346                  22517354.3294
        15.0004         16.5004
  23335590.4664    9317440.21646   7232052.50346                  23335600.0214
        14.5004         14.7504
  22491956.4354   -9455586.41946  -7229056.26046                  22491963.0324
        17.5004         17.0004
  21611791.1064   -1986925.27448  -1544512.60847                  21611797.5524
        30.5004         30.0004
  24847825.7084    -110598.52545    -61680.93545                  24847837.1264
         8.0004          8.2504
  20955546.5994   -9465440.33048  -7366609.25547                  20955553.7164
        31.5004         31.0004
 98  6 12 16 20 15.0010000  0  8G 2G 4G 8G 7G 5G 9G16G24
  24381071.8724    9776050.28245   5235129.48145                  24381082.9744
         9.7504         11.0004
  20911743.3254   -1581084.09148  -1232013.38647                  20911749.7474
        29.7504         29.7504
  22513144.3414   -7527247.09646  -5671181.35146                  22513152.1144
        17.0004         17.5004
  23343531.6224    9359170.71246   7264569.75546                  23343540.7084
        15.7504         15.7504
  22486216.6774   -9485748.87746  -7252559.45346                  22486222.7824
        17.2504         17.0004
  21614695.3414   -1971662.94048  -1532619.87947                  21614701.6924
        29.5004         29.5004
  24848526.9814    -106918.50045    -58813.36945                  24848538.0244
         8.7504          8.7504
  20952257.5674   -9482724.76848  -7380077.64247                  20952264.5324
        32.0004         31.2504
 98  6 12 16 20 30.0010000  0  8G 2G 4G 8G 7G 5G 9G16G24
  24390571.2474    9825972.99745   5274030.21345                  24390583.3804
         9.2504         10.0004
  20915205.1224   -1562892.43948  -1217838.07347                  20915212.0174
        30.0004         29.5004
  22508973.2944   -7549165.13346  -5688260.27846                  22508981.6884
        16.5004         16.5004
  23351477.8644    9400927.74046   7297107.65946                  23351486.5634
        17.2504         15.2504
  22480486.2634   -9515860.30246  -7276022.87146                  22480493.5214
        16.5004         16.7504
  21617629.7784   -1956242.85448  -1520604.24647                  21617636.3884
        29.5004         28.7504
  24849254.4034    -103093.84845    -55833.12945                  24849264.8494
        10.0004          9.0004
  20948995.2394   -9499867.05848  -7393435.25147                  20949002.4744
        31.2504         30.5004
 98  6 12 16 20 45.0010000  0  8G 2G 4G 8G 7G 5G 9G16G24
  24400086.7864    9875976.31745   5312993.77745                  24400097.9934
         9.5004          9.7504
  20918699.6534   -1544528.79848  -1203528.75247                  20918706.4034
        30.0004         29.2504
  22504834.2864   -7570915.86046  -5705208.90846                  22504842.4934
        15.0004         16.5004
  23359429.0994    9442711.65846   7329666.53046                  23359437.8334
        17.2504         14.7504
  22474766.7944   -9545917.31846  -7299443.89246                  22474773.0874
        16.7504         17.0004
  21620594.1064   -1940666.49048  -1508466.83147                  21620600.9384
        30.0004         29.2504
  24850009.8334     -99124.31945    -52739.98445                  24850019.9744
        10.5004          9.0004
  20945759.4354   -9516870.92648  -7406685.00247                  20945766.8104
        31.5004         31.0004
 98  6 12 16 21  0.0010000  0  8G 2G 4G 8G 7G 5G 9G16G24
  24409616.9584    9926058.93845   5352019.10145                  24409626.2314
         9.0004          9.0004
  20922226.4424   -1525994.79448  -1189086.67447                  20922232.9354
        30.7504         28.7504
  22500726.9584   -7592500.28146  -5722027.92646                  22500734.4624
        19.0004         17.7504
  23367385.8964    9484524.18146   7362247.69846                  23367393.2124
        16.7504         14.7504
  22469057.8174   -9575918.00846  -7322821.02546                  22469064.8414
        16.5004         17.0004
  21623587.6774   -1924934.12848  -1496207.86347                  21623594.0524
        31.2504         28.7504
  24850792.6144     -95013.27145    -49536.58745                  24850803.3414
         9.7504          8.0004
  20942550.2864   -9533735.63348  -7419826.32547                  20942557.4504
        32.0004         30.7504
 98  6 12 16 21 15.0010000  0  8G 2G 4G 8G 7G 5G 9G16G24
  24419161.8884    9976214.55745   5391101.29645                  24419171.7244
        10.0004          9.5004
  20925785.7164   -1507291.95148  -1174513.03147                  20925791.9854
        31.2504         29.2504
  22496650.5754   -7613922.17246  -5738720.27846                  22496657.5994
        18.2504         18.0004
  23375347.6614    9526364.81146   7394850.72746                  23375355.5874
        16.7504         14.0004
  22463359.5754   -9605863.64846  -7346155.26446                  22463366.7164
        16.7504         17.0004
  21626610.6924   -1909046.37648  -1483827.80347                  21626616.8214
        29.0004         28.5004
  24851602.1464     -90760.59645    -46222.79645                  24851610.6694
        11.0004          8.5004
  20939367.0284   -9550462.90348  -7432860.54447                  20939374.0634
        31.7504         30.5004
 98  6 12 16 21 30.0010000  0  8G 2G 4G 8G 7G 5G 9G16G24
  24428720.5214   10026445.36145   5430242.12845                  24428729.5714
        11.0004         10.0004
  20929377.0134   -1488418.45148  -1159806.40847                  20929383.4934
        30.7504         29.0004
  22492605.5524   -7635181.25946  -5755285.78846                  22492613.2314
        18.0004         17.2504
  23383315.2784    9568233.75646   7427475.85646                  23383324.0244
        15.2504         13.5004
  22457672.1694   -9635749.78846  -7369443.15146                  22457678.3804
        17.0004         16.7504
  21629664.2164   -1893000.70948  -1471324.70147                  21629670.7314
        28.2504         28.2504
  24852437.8494     -86364.98845    -42797.69245                  24852448.4354
        10.2504          8.5004
  20936210.2864   -9567051.76148  -7445786.92147                  20936217.2284
        31.2504         30.0004
 98  6 12 16 21 45.0010000  0  8G 2G 4G 8G 7G 5G 9G16G24
  24438293.1224   10076750.00145   5469440.48045                  24438303.7904
        11.2504         10.0004
  20933001.1064   -1469374.92548  -1144967.29847                  20933007.4464
        30.7504         29.0004
  22488590.4504   -7656279.78146  -5771726.18846                  22488597.8844
        19.5004         18.5004
  23391287.2314    9610128.21046   7460120.83846                  23391295.5094
        15.5004         13.5004
  22451995.7784   -9665579.80246  -7392687.29446                  22452002.8134
        17.0004         17.2504
  21632747.5444   -1876798.59848  -1458699.69447                  21632754.1774
        30.5004         29.5004
  24853301.4584     -81828.34445    -39262.58845                  24853311.5524
        11.0004          8.7504
  20933079.7164   -9583503.39148  -7458606.36347                  20933086.9154
        30.2504         30.5004
 98  6 12 16 22  0.0010000  0  8G 2G 4G 8G 7G 5G 9G16G24
  24447880.3724   10127131.93045   5508699.06045                  24447890.2904
        11.2504          9.2504
  20936656.8494   -1450163.45548  -1129997.32347                  20936662.8494
        31.5004         28.7504
  22484604.9664   -7677221.87146  -5788044.66646                  22484611.7394
        18.5004         18.0004
  23399264.0134    9652046.04446   7492784.05246                  23399272.5014
        16.0004         13.2504
  22446329.2714   -9695356.79746  -7415890.11346                  22446336.2244
        16.7504         17.5004
  21635860.1304   -1860441.55948  -1445953.95447                  21635866.9894
        29.2504         29.2504
  24854191.4814     -77149.94946    -35617.04045                  24854201.3644
        12.5004          8.7504
  20929975.8104   -9599813.55448  -7471315.55547                  20929983.4544
        32.0004         31.2504
 98  6 12 16 22 15.0010000  0  8G 2G 4G 8G 7G 5G 9G16G24
  24457483.0754   10177592.05345   5548018.55645                  24457491.5754
        11.7504          8.7504
  20940344.3024   -1430784.87748  -1114897.14047                  20940350.2314
        29.7504         28.2504
  22480649.9814   -7698007.79646  -5804241.49346                  22480656.9584
        18.5004         17.7504
  23407246.0444    9693988.74246   7525466.66146                  23407255.0134
        16.2504         13.5004
  22440673.1774   -9725079.74146  -7439050.83946                  22440680.0214
        17.7504         17.2504
  21639002.2084   -1843929.70948  -1433087.59247                  21639008.8414
        28.2504         28.5004
  24855108.4814     -72329.24845    -31860.64145                  24855121.5404
        10.7504          9.0004
  20926900.0914   -9615978.68248  -7483911.75847                  20926907.7714
        32.2504         31.5004
 98  6 12 16 22 30.0010000  0  8G 2G 4G 8G 7G 5G 9G16G24
  24467099.4114   10228126.58045   5587396.04045                  24467109.4814
        11.0004          8.7504
  20944063.3884   -1411240.55348  -1099667.79447                  20944069.6574
        29.5004         28.2504
  22476723.8724   -7718638.95446  -5820317.72746                  22476730.3884
        19.7504         18.5004
  23415232.2314    9735959.19646   7558170.87146                  23415240.8844
        16.5004         14.0004
  22435026.9664   -9754748.39346  -7462169.26146                  22435033.8964
        17.7504         17.0004
  21642173.7314   -1827263.77248  -1420101.16147                  21642180.1884
        28.7504         28.5004
  24856053.0134     -67364.88145    -27992.27345                  24856064.5954
         9.2504          8.0004
  20923851.2084   -9631999.81448  -7496395.74547                  20923858.7124
        31.7504         31.2504
 98  6 12 16 22 45.0010000  0  8G 2G 4G 8G 7G 5G 9G16G24
  24476729.8724   10278736.54745   5626832.29145                  24476742.7434
         9.5004          9.2504
  20947813.7004   -1391533.25048  -1084311.45147                  20947820.1344
        29.7504         29.0004
  22472826.6224   -7739118.30647  -5836275.64346                  22472833.5054
        20.0004         18.7504
  23423224.6384    9777959.47246   7590898.32546                  23423233.8174
        17.7504         14.5004
  22429391.8104   -9784362.33446  -7485245.02946                  22429398.4664
        17.7504         16.7504
  21645374.4034   -1810443.61948  -1406994.56247                  21645380.8964
        29.5004         29.0004
  24857024.9424     -62255.06845    -24010.56445                  24857036.9934
         9.2504          8.0004
  20920830.2634   -9647874.97348  -7508765.97947                  20920837.9894
        30.2504         31.0004
 98  6 12 16 23  0.0010000  0  8G 2G 4G 8G 7G 5G 9G16G24
  24486375.1464   10329422.31945   5666327.60445                  24486386.5054
         9.7504          8.5004
  20951594.1854   -1371667.15148  -1068831.38647                  20951600.0674
        29.7504         28.2504
  22468957.9114   -7759449.41546  -5852118.04846                  22468964.5674
        17.7504         18.5004
  23431223.0284    9819990.07546   7623649.38246                  23431232.1144
        17.2504         14.5004
  22423767.0834   -9813923.02846  -7508279.33646                  22423773.7984
        17.5004         17.2504
  21648604.6064   -1793467.75248  -1393766.61847                  21648611.5014
        28.7504         29.2504
  24858025.6384     -57000.17545    -19915.79645                  24858038.4504
        10.5004          8.2504
  20917837.5134   -9663600.85048  -7521019.90347                  20917845.2044
        31.5004         31.2504
 98  6 12 16 23 15.0010000  0  8G 2G 4G 8G 7G 5G 9G16G24
  24496034.6924   10380187.16345   5705884.55545                  24496047.1774
         8.2504          8.2504
  20955405.0754   -1351639.65648  -1053225.54747                  20955411.0524
        29.5004         27.7504
  22465117.0834   -7779631.10446  -5867844.02646                  22465124.0604
        19.0004         18.2504
  23439228.1774    9862054.85246   7656427.10346                  23439237.0054
        18.2504         14.5004
  22418151.9194   -9843429.04846  -7531271.01146                  22418158.8494
        17.0004         17.2504
  21651865.8104   -1776330.35048  -1380412.81247                  21651873.0214
        28.2504         28.2504
  24859054.2164     -51596.03745    -15704.82245                  24859065.3764
        10.2504          8.2504
  20914874.5524   -9679172.42448  -7533153.59047                  20914881.9384
        32.5004         31.5004
 98  6 12 16 23 30.0010000  0  8G 2G 4G 8G 7G 5G 9G16G24
  24505709.3254   10431028.46144   5745501.13345                  24505718.7744
         7.2504          7.2504
  20959246.1304   -1331454.65548  -1037496.96947                  20959252.4584
        29.5004         28.0004
  22461304.4584   -7799667.76446  -5883457.00846                  22461311.5524
        18.7504         18.0004
  23447238.2714    9904148.63046   7689227.42746                  23447245.9154
        18.2504         14.2504
  22412547.1304   -9872884.31646  -7554223.14746                  22412554.1654
        17.2504         17.2504
  21655156.9664   -1759035.69548  -1366936.47147                  21655163.6924
        28.7504         28.0004
  24860110.8414     -46045.14545    -11379.43445                  24860122.2004
        11.2504          8.5004
  20911939.8804   -9694594.25648  -7545170.58547                  20911947.3134
        32.2504         31.5004
 98  6 12 16 23 45.0010000  0  8G 2G 4G 8G 7G 5G 9G16G24
  24515398.8644   10481947.70144   5785178.35145                  24515412.0404
         6.2504          6.2504
  20963117.3024   -1311112.54148  -1021645.97847                  20963123.6774
        28.7504         27.7504
  22457519.7164   -7819556.08646  -5898954.39146                  22457526.6224
        18.5004         17.2504
  23455254.0364    9946272.20146   7722050.96046                  23455261.5404
        18.0004         13.7504
  22406951.6384   -9902286.95846  -7577134.27946                  22406958.5674
        18.2504         17.5004
  21658478.0054   -1741582.72548  -1353336.75547                  21658484.4974
        29.7504         27.7504
  24861195.2864     -40346.64846     -6939.05245                  24861206.1304
        12.0004          9.0004
  20909033.9664   -9709864.53548  -7557069.48147                  20909041.7514
        31.0004         30.7504
 98  6 12 16 24  0.0010000  0  8G 2G 4G 8G 7G 5G 9G16G24
  24525104.3964   10532946.61243   5824917.71645                  24525117.7714
         6.0004          6.7504
  20967018.9274   -1290609.66048  -1005669.71447                  20967024.8924
        28.7504         27.0004
  22453764.1534   -7839292.53346  -5914333.44546                  22453771.3534
        18.5004         16.7504
  23463275.6384    9988428.11946   7754899.68646                  23463283.9744
        16.2504         13.2504
  22401367.3254   -9931633.22446  -7600001.48246                  22401374.7594
        18.5004         17.2504
  21661829.5674   -1723969.43848  -1339612.12647                  21661836.6264
        28.5004         27.2504
  24862308.0604     -34497.17945     -2380.99945                  24862318.4234
        10.5004          8.0004
  20906158.1614   -9724978.32548  -7568846.45447                  20906165.6304
        31.7504         30.0004
 98  6 12 16 24 15.0010000  0  8G 2G 4G 8G 7G 5G 9G16G24
  24534822.8564   10584020.94444   5864715.86445                  24534834.6854
         6.2504          6.5004
  20970950.2244   -1269950.27348   -989571.49147                  20970956.2244
        30.2504         27.0004
  22450037.1144   -7858878.48846  -5929595.21346                  22450044.9584
        18.0004         17.5004
  23471303.1774   10030614.40946   7787772.07646                  23471311.1264
        14.0004         12.5004
  22395793.5994   -9960922.16846  -7622824.01746                  22395801.0444
        18.2504         17.7504
  21665211.1064   -1706199.56648  -1325765.49447                  21665218.1424
        28.2504         27.2504
  24863448.9354     -28500.27545      2291.93145                  24863459.8844
        10.7504          7.5004
  20903311.3724   -9739937.95548  -7580503.30847                  20903318.5014
        32.0004         30.0004
 98  6 12 16 24 30.0010000  0  8G 2G 4G 8G 7G 5G 9G16G24
  24544556.6464   10635169.59544   5904571.89945                  24544567.6774
         7.2504          6.2504
  20974911.6614   -1249132.34148   -973349.73047                  20974917.6854
        29.7504         27.7504
  22446339.2714   -7878308.78446  -5944735.69346                  22446347.3134
        16.7504         16.7504
  23479336.6304   10072831.64946   7820668.61246                  23479345.2004
        12.7504         12.2504
  22390231.5524   -9990149.87546  -7645598.82746                  22390238.5994
        18.2504         17.5004
  21668623.1694   -1688270.19348  -1311794.56547                  21668629.5444
        29.5004         27.7504
  24864618.2164     -22356.79145      7079.08445                  24864628.3454
         9.7504          8.0004
  20900493.3644   -9754745.66448  -7592041.76547                  20900500.2474
        32.0004         30.5004
 98  6 12 16 24 45.0010000  0  8G 2G 4G 8G 7G 5G 9G16G24
  24554304.0524   10686391.42544   5944484.88445                  24554312.4934
         7.2504          6.5004
  20978902.8644   -1228158.20948   -957006.24747                  20978909.3334
        29.2504         28.7504
  22442670.8564   -7897585.79346  -5959756.70246                  22442679.0404
        18.0004         17.2504
  23487375.4974   10115074.76546   7853585.29046                  23487384.4314
        13.5004         12.2504
  22384680.9114  -10019319.11946  -7668328.07546                  22384688.3454
        18.0004         18.5004
  21672065.1304   -1670182.48148  -1297700.24047                  21672071.4704
        29.0004         27.7504
  24865814.4274     -16069.66345     11978.15645                  24865824.7784
        10.0004          7.7504
  20897704.0914   -9769404.05648  -7603463.86847                  20897711.0444
        32.5004         31.5004
 98  6 12 16 25  0.0010000  0  8G 2G 4G 8G 7G 5G 9G16G24
  24564065.0994   10737686.84544   5984455.20045                  24564074.2084
         7.2504          6.0004
  20982923.6534   -1207029.38548   -940542.23147                  20982929.7944
        28.5004         28.2504
  22439031.3724   -7916710.01946  -5974658.68846                  22439039.5214
        17.2504         17.2504
  23495418.6774   10157339.63746   7886518.90246                  23495427.3414
        13.5004         12.0004
  22379141.7164  -10048428.01446  -7691010.31346                  22379149.0444
        18.2504         18.7504
  21675537.6694   -1651934.29948  -1283480.89847                  21675544.1494
        29.2504         28.2504
  24867037.5284      -9640.46645     16987.90445                  24867045.3024
         8.5004          7.0004
  20894942.8024   -9783913.96748  -7614770.27847                  20894949.9314
        32.2504         31.0004
 98  6 12 16 25 15.0010000  0  8G 2G 4G 8G 7G 5G 9G16G24
  24573840.1464   10789056.85144   6024483.74645                  24573850.0634
         7.2504          4.7504
  20986974.3804   -1185742.95548   -923955.41047                  20986980.3334
        30.0004         28.7504
  22435422.1384   -7935680.28847  -5989440.69746                  22435429.7594
        20.2504         18.2504
  23503465.3964   10199627.41646   7919470.38946                  23503474.7164
        12.7504         12.5004
  22373614.5284  -10077475.18346  -7713644.43846                  22373621.3024
        19.0004         19.2504
  21679041.3884   -1633522.98848  -1269134.44247                  21679048.2204
        28.7504         29.0004
  24868289.0754      -3068.07445     22109.27445                  24868300.3764
         7.7504          7.0004
  20892210.0524   -9798275.65648  -7625961.19947                  20892217.3334
        32.0004         31.7504
 98  6 12 16 25 30.0010000  0  8G 2G 4G 8G 7G 5G 9G16G24
  24583630.0834   10840501.17043   6064570.10845                  24583637.3174
         5.5004          4.5004
  20991055.1774   -1164298.35748   -907245.33547                  20991061.1884
        30.2504         29.0004
  22431841.6304   -7954495.11446  -6004101.55946                  22431848.9704
        19.2504         18.5004
  23511516.5604   10241935.43746   7952437.64346                  23511525.1064
        13.7504         12.7504
  22368098.5524  -10106459.94346  -7736229.94146                  22368105.3844
        18.7504         18.7504
  21682575.2084   -1614952.78948  -1254664.16447                  21682581.6534
        29.5004         28.2504
  24869566.0214       3645.75845     27340.80745                  24869573.5834
         7.7504          7.0004
  20889504.8024   -9812490.34148  -7637037.57047                  20889511.9314
        32.0004         31.7504
 98  6 12 16 25 45.0010000  0  8G 2G 4G 8G 7G 5G 9G16G24
  24593433.4114   10892017.85043   6104712.87045                  24593447.8884
         5.5004          6.0004
  20995165.1534   -1142699.81848   -890415.30147                  20995171.2824
        29.2504         29.0004
  22428291.8024   -7973150.62446  -6018638.31146                  22428299.4584
        18.0004         18.0004
  23519571.2084   10284261.78546   7985419.16246                  23519581.0914
        15.0004         13.0004
  22362594.6774  -10135383.31646  -7758767.61946                  22362601.1924
        19.7504         19.2504
  21686138.8024   -1596227.05448  -1240072.68247                  21686144.8494
        30.0004         27.5004
  24870869.7784      10498.23944     32680.42745                  24870880.5054
         7.2504          6.7504
  20886827.6614   -9826558.49848  -7647999.75347                  20886834.6854
        32.2504         31.2504
 98  6 12 16 26  0.0010000  0  8G 2G 4G 8G 7G 5G 9G16G24
  24603252.0364   10943611.30044   6144915.46345                  24603267.6494
         6.5004          6.7504
  20999305.3334   -1120943.43848   -873462.27747                  20999311.4154
        29.0004         28.5004
  22424772.7394   -7991641.11146  -6033046.46646                  22424780.1034
        19.2504         18.0004
  23527630.1464   10326610.23946   8018417.94646                  23527639.9584
        15.0004         12.7504
  22357103.5054  -10164240.52846  -7781253.73446                  22357110.2674
        19.7504         19.0004
  21689732.3024   -1577342.15748  -1225357.19247                  21689738.3724
        28.2504         27.2504
  24872201.0054      17492.72845     38130.70045                  24872211.0524
         8.7504          7.0004
  20884179.4424   -9840475.22648  -7658843.93947                  20884186.4314
        31.5004         30.7504
 98  6 12 16 26 15.0010000  0  8G 2G 4G 8G 7G 5G 9G16G24
  24613083.1774   10995280.71343   6185177.27945                  24613094.4194
         6.0004          6.7504
  21003474.6924   -1099032.84748   -856389.10147                  21003480.7744
        28.5004         28.7504
  22421284.7004   -8009970.34246  -6047328.95146                  22421291.4854
        18.2504         17.7504
  23535692.4974   10368979.20846   8051432.70846                  23535701.6654
        15.0004         12.5004
  22351623.6534  -10193036.55146  -7803692.17146                  22351630.2284
        19.5004         19.5004
  21693355.3334   -1558304.14448  -1210522.40047                  21693361.5564
        30.0004         28.7504
  24873558.8804      24626.90545     43689.79545                  24873570.7434
         8.2504          7.7504
  20881559.7784   -9854242.17648  -7669571.41947                  20881566.8724
        30.2504         31.7504
 98  6 12 16 26 30.0010000  0  8G 2G 4G 8G 7G 5G 9G16G24
  24622932.2634   11047026.12845   6225498.28245                  24622943.9624
         7.7504          7.2504
  21007673.2164   -1076969.77748   -839197.10947                  21007679.1814
        30.2504         28.5004
  22417828.0914   -8028137.29046  -6061484.99946                  22417835.2904
        19.2504         18.0004
  23543758.7864   10411367.08146   8084462.17246                  23543766.5954
        16.0004         12.7504
  22346155.1304  -10221774.84446  -7826085.62846                  22346161.5404
        19.7504         19.2504
  21697007.1224   -1539112.97348  -1195568.25347                  21697013.2984
        30.2504         28.2504
  24874943.4274      31901.01645     49357.92645                  24874953.6264
        10.0004          8.0004
  20878968.1694   -9867860.87248  -7680183.38447                  20878975.1344
        32.2504         31.0004
 98  6 12 16 26 45.0010000  0  8G 2G 4G 8G 7G 5G 9G16G24
  24632792.5214   11098848.40945   6265879.21745                  24632802.7904
         7.7504          8.5004
  21011901.0364   -1054751.37548   -821884.06747                  21011907.1654
        29.7504         29.2504
  22414401.5444   -8046143.16446  -6075515.54846                  22414408.2944
        19.5004         18.0004
  23551828.3964   10453774.67146   8117507.05246                  23551836.4504
        13.2504         12.7504
  22340697.2554  -10250455.28346  -7848434.00246                  22340703.9584
        19.5004         19.5004
  21700688.6144   -1519767.64848  -1180493.97847                  21700694.7674
        29.7504         27.7504
  24876354.1144      39317.62345     55137.05445                  24876365.2744
         9.2504          9.2504
  20876404.5364   -9881332.67948  -7690680.89147                  20876411.5834
        32.2504         31.0004
 98  6 12 16 27  0.0010000  0  8G 2G 4G 8G 7G 5G 9G16G24
  24642670.0604   11150750.17245   6306322.07045                  24642681.5484
        10.0004          9.7504
  21016159.7714   -1032372.84448   -804446.24447                  21016166.0994
        29.2504         28.5004
  22411005.7784   -8063986.51246  -6089419.44446                  22411011.9074
        19.2504         18.0004
  23559902.3804   10496204.47846   8150569.22046                  23559911.1614
        12.5004         12.2504
  22335251.5754  -10279073.76647  -7870734.08946                  22335257.9274
        20.0004         19.2504
  21704399.5054   -1500266.39248  -1165298.20747                  21704405.6574
        28.7504         27.2504
  24877793.8644      46882.86645     61032.06445                  24877805.1654
        11.0004          9.0004
  20873869.8414   -9894652.72948  -7701060.13447                  20873877.2984
        32.0004         31.0004
 98  6 12 16 27 15.0010000  0  8G 2G 4G 8G 7G 5G 9G16G24
  24652561.3104   11202726.79645   6346823.22545                  24652572.3534
        10.7504          9.2504
  21020448.2084   -1009836.35148   -786885.34847                  21020454.4664
        29.2504         28.5004
  22407640.9034   -8081670.41946  -6103199.09946                  22407647.3724
        18.7504         18.2504
  23567980.9354   10538654.63046   8183647.22446                  23567990.6064
        12.5004         12.7504
  22329816.3104  -10307634.72347  -7892989.36246                  22329822.8254
        20.5004         19.5004
  21708138.7714   -1480616.37948  -1149986.51247                  21708144.9704
        30.2504         28.0004
  24879261.3644      54593.14345     67040.09345                  24879272.0094
        11.7504          9.7504
  20871363.7784   -9907823.48248  -7711323.03847                  20871371.0364
        32.2504         31.0004
 98  6 12 16 27 30.0010000  0  8G 2G 4G 8G 7G 5G 9G16G24
  24662465.4034   11254778.66945   6387383.06645                  24662477.2904
         9.5004          8.7504
  21024767.6064    -987138.45448   -769198.68947                  21024773.6654
        30.0004         28.5004
  22404306.6694   -8099191.43147  -6116851.81246                  22404314.0324
        20.2504         18.7504
  23576062.9504   10581126.68346   8216742.30946                  23576073.3374
        12.0004         12.2504
  22324392.6694  -10336136.33447  -7915198.39146                  22324399.0564
        20.2504         19.7504
  21711906.0834   -1460818.63148  -1134559.69847                  21711912.5754
        31.2504         28.2504
  24880756.2864      62449.11546     73161.60245                  24880765.2674
        12.0004         10.0004
  20868886.4584   -9920841.19448  -7721466.70247                  20868893.2554
        32.2504         30.5004
 98  6 12 16 27 45.0010000  0  8G 2G 4G 8G 7G 5G 9G16G24
  24672385.4274   11306906.47745   6428002.07045                  24672398.6614
         9.0004          8.2504
  21029117.3254    -964279.23548   -751386.30747                  21029123.7244
        30.5004         29.2504
  22401003.6534   -8116548.86746  -6130377.07646                  22401011.2514
        19.2504         19.2504
  23584148.3564   10623620.10745   8249854.03546                  23584159.0244
        11.0004         12.5004
  22318980.8964  -10364576.52847  -7937359.57046                  22318987.0954
        20.2504         20.0004
  21715701.6774   -1440872.89048  -1119017.59247                  21715708.0284
        30.0004         28.5004
  24882278.5524      70450.47345     79396.41945                  24882286.9814
        11.0004          9.7504
  20866438.5674   -9933704.08648  -7731489.72747                  20866445.6144
        32.0004         30.7504
 98  6 12 16 28  0.0010000  0  8G 2G 4G 8G 7G 5G 9G16G24
  24682318.5444   11359110.56245   6468680.48345                  24682329.0244
         8.2504          7.5004
  21033498.1534    -941257.69248   -733447.44447                  21033504.8214
        30.5004         29.5004
  22397730.8494   -8133746.57446  -6143777.86246                  22397738.1304
        18.7504         19.2504
  23592239.0834   10666137.06845   8282984.09346                  23592248.6854
        10.7504         12.2504
  22313580.8494  -10392953.25547  -7959471.29746                  22313587.6574
        21.2504         20.5004
  21719525.8724   -1420776.55548  -1103358.11547                  21719532.5634
        28.7504         28.0004
  24883828.9814      78599.02545     85745.95645                  24883839.4974
        11.0004          9.5004
  20864019.9114   -9946415.25748  -7741394.52747                  20864027.1104
        30.7504         30.5004
 98  6 12 16 28 15.0010000  0  8G 2G 4G 8G 7G 5G 9G16G24
  24692269.3174   11411396.31545   6509422.50645                  24692281.0284
         8.7504          8.0004
  21037911.4894    -918066.78248   -715376.61847                  21037918.2634
        29.5004         30.0004
  22394488.9194   -8150784.91847  -6157054.48646                  22394496.3994
        20.0004         19.7504
  23600335.3174   10708681.78745   8316135.75846                  23600345.7744
        10.5004         12.2504
  22308193.5214  -10421262.67747  -7981530.55046                  22308200.3644
        20.5004         20.5004
  21723379.2554   -1400525.53748  -1087578.10147                  21723385.8414
        29.0004         28.2504
  24885409.3644      86900.10745     92214.34345                  24885419.6344
        11.2504         10.0004
  20861630.1464   -9958972.48648  -7751179.36847                  20861637.3924
        32.0004         31.5004
 98  6 12 16 28 30.0010000  0  8G 2G 4G 8G 7G 5G 9G16G24
  24702234.2314   11463758.94145   6550224.50245                  24702243.7514
         8.5004          8.0004
  21042356.2714    -894708.70648   -697175.52447                  21042362.6224
        29.5004         29.2504
  22391276.1774   -8167667.20047  -6170209.50546                  22391283.7284
        20.0004         20.2504
  23608436.3964   10751251.88946   8349307.26045                  23608442.8764
        12.2504         11.7504
  22302818.2714  -10449507.77147  -8003539.69246                  22302824.9744
        20.0004         20.0004
  21727262.3494   -1380121.57448  -1071678.91947                  21727268.8644
        30.2504         28.5004
  24887017.7784      95351.19945     98799.61145                  24887029.2084
        10.5004          9.2504
  20859268.9504   -9971380.28548  -7760847.76647                  20859276.3604
        32.0004         31.5004
 98  6 12 16 28 45.0010000  0  8G 2G 4G 8G 7G 5G 9G16G24
  24712212.3884   11516195.88845   6591084.38845                  24712222.9154
         9.0004          9.5004
  21046832.4974    -871185.53948   -678845.78847                  21046838.6144
        30.2504         29.2504
  22388093.2714   -8184394.86146  -6183244.03246                  22388100.8564
        19.5004         20.5004
  23616542.3414   10793847.25446   8382498.42246                  23616549.8104
        14.0004         12.5004
  22297456.5444  -10477686.80246  -8025497.36346                  22297463.4274
        19.7504         20.0004
  21731174.3174   -1359563.48148  -1055659.63547                  21731181.0324
        29.2504         28.7504
  24888653.5364     103950.21645    105500.12945                  24888665.0714
        10.0004          8.7504
  20856935.6464   -9983641.84248  -7770402.20747                  20856943.1494
        31.7504         31.5004
 98  6 12 16 29  0.0010000  0  8G 2G 4G 8G 7G 5G 9G16G24
  24722206.2314   11568711.18245   6632005.26345                  24722217.3684
         8.7504          9.7504
  21051340.2864    -847497.42248   -660387.52547                  21051346.7204
        30.2504         29.7504
  22384940.0134   -8200963.50646  -6196154.65546                  22384947.9624
        19.5004         20.7504
  23624653.8174   10836472.49146   8415712.86646                  23624662.0954
        12.7504         12.5004
  22292106.8564  -10505798.06246  -8047402.21646                  22292113.9854
        19.5004         20.0004
  21735116.4974   -1338848.36247  -1039517.98647                  21735123.3064
        27.0004         28.5004
  24890318.4114     112698.91045    112317.29945                  24890329.8884
        10.5004          9.0004
  20854631.3414   -9995752.29548  -7779838.93047                  20854638.5284
        31.2504         31.0004
 98  6 12 16 29 15.0010000  0  8G 2G 4G 8G 7G 5G 9G16G24
  24732213.4664   11621301.66045   6672984.81145                  24732225.2944
         8.5004         10.0004
  21055877.5284    -823654.51348   -641808.63747                  21055884.3254
        29.7504         29.5004
  22381816.5524   -8217376.02947  -6208943.62546                  22381824.4784
        20.7504         20.7504
  23632768.8884   10879121.05645   8448945.50045                  23632777.3414
        11.7504         11.7504
  22286768.7004  -10533848.72246  -8069259.85646                  22286776.0174
        19.0004         19.7504
  21739086.7314   -1317984.11748  -1023260.14547                  21739093.5174
        28.2504         28.2504
  24892010.2474     121588.90445    119244.52845                  24892022.7554
        10.0004          9.5004
  20852354.1144  -10007716.66848  -7789161.80747                  20852361.5134
        32.0004         31.0004
 98  6 12 16 29 30.0010000  0  8G 2G 4G 8G 7G 5G 9G16G24
  24742236.4584   11673970.97045   6714025.69745                  24742248.6264
         8.2504         10.0004
  21060444.1384    -799656.79348   -623109.12147                  21060450.6424
        29.5004         29.0004
  22378724.2394   -8233628.99647  -6221608.25646                  22378732.2244
        20.5004         21.0004
  23640889.9584   10921796.82546   8482199.31946                  23640899.1614
        13.2504         12.5004
  22281442.5444  -10561837.65746  -8091069.39446                  22281450.1064
        18.7504         19.7504
  21743086.0674   -1296966.65948  -1006882.90847                  21743092.5834
        29.7504         27.7504
  24893728.3964     130621.17445    126282.67845                  24893738.8884
        11.5004          9.5004
  20850105.3024  -10019534.30048  -7798370.33647                  20850112.7124
        31.7504         30.7504
 98  6 12 16 29 45.0010000  0  8G 2G 4G 8G 7G 5G 9G16G24
  24752273.7864   11726720.68945   6755129.27145                  24752285.0524
         9.0004         10.2504
  21065039.8644    -775506.53848   -604290.75447                  21065046.1924
        29.0004         29.2504
  22375661.2784   -8249724.45547  -6234150.16046                  22375668.7004
        21.5004         21.2504
  23649016.4974   10964498.93846   8515473.65546                  23649026.1814
        12.5004         12.5004
  22276128.5214  -10589763.95346  -8112830.12246                  22276135.8374
        19.0004         20.0004
  21747115.4034   -1275791.83648   -990383.05147                  21747121.8844
        28.7504         28.0004
  24895475.3964     139796.73446    133432.46945                  24895487.2474
        12.0004          9.7504
  20847884.3414  -10031207.11748  -7807466.02747                  20847891.7984
        32.2504         31.5004
 98  6 12 16 30  0.0010000  0  8G 2G 4G 8G 7G 5G 9G16G24
  24762327.2084   11779554.02944   6796298.03745                  24762338.8844
         7.2504          9.2504
  21069664.3724    -751204.14748   -585353.83847                  21069670.7594
        28.7504         29.0004
  22372628.3494   -8265661.66547  -6246568.77446                  22372635.4784
        20.7504         20.7504
  23657147.8884   11007232.18046   8548772.27146                  23657158.3104
        12.2504         13.2504
  22270826.3884  -10617627.24046  -8134541.75946                  22270833.7864
        19.2504         20.0004
  21751175.4194   -1254458.22947   -973759.47847                  21751181.9584
        27.5004         28.2504
  24897249.0214     149120.09645    140697.38345                  24897259.6064
        11.2504         10.0004
  20845690.4894  -10042735.85948  -7816449.45947                  20845698.0054
        31.0004         31.7504
 98  6 12 16 30 15.0010000  0  8G 2G 4G 8G 7G 5G 9G16G24
  24772397.4664   11832471.19445   6837532.05645                  24772410.0214
         7.7504          9.7504
  21074317.8564    -726749.58548   -566298.33547                  21074324.3844
        28.7504         28.5004
  22369626.2084   -8281438.34647  -6258862.26946                  22369633.3254
        20.5004         20.2504
  23665285.9424   11049995.45946   8582094.25446                  23665297.4074
        12.5004         13.0004
  22265536.1064  -10645428.43746  -8156205.00946                  22265543.0244
        19.5004         20.0004
  21755265.0994   -1232965.49147   -957011.89847                  21755271.7784
        27.7504         27.7504
  24899052.3024     158593.25845    148079.06645                  24899064.2004
        11.7504          9.2504
  20843524.1064  -10054118.85748  -7825319.31547                  20843531.2474
        30.5004         30.2504
 98  6 12 16 30 30.0010000  0  8G 2G 4G 8G 7G 5G 9G16G24
  24782482.4194   11885468.66245   6878828.67545                  24782493.4624
         7.5004          8.5004
  21079000.0604    -702145.33248   -547126.19647                  21079006.2124
        29.5004         28.7504
  22366654.8724   -8297053.30947  -6271029.76846                  22366661.7904
        20.2504         20.2504
  23673428.2634   11092785.32646   8615436.97846                  23673438.7434
        12.2504         13.0004
  22260257.0524  -10673169.67446  -8177821.53446                  22260264.0874
        18.7504         20.0004
  21759384.9894   -1211315.17148   -940141.50347                  21759391.3294
        30.5004         28.7504
  24900882.4584     168213.68545    155575.51945                  24900892.4464
        10.7504          8.7504
  20841386.2554  -10065353.80648  -7834073.80347                  20841393.5834
        30.2504         30.5004
 98  6 12 16 30 45.0010000  0  9G 2G 4G 8G 7G 5G 9G16G24G30
  24792583.7554   11938549.48444   6920190.28245                  24792596.9314
         6.7504          8.2504
  21083710.3724    -677391.49948   -527837.49747                  21083716.3844
        29.5004         28.0004
  22363715.0444   -8312500.43647  -6283066.48846                  22363721.9744
        21.0004         20.0004
  23681576.2634   11135604.11645   8648802.24946                  23681586.3804
        11.5004         12.0004
  22254990.0524  -10700847.95946  -8199389.01646                  22254996.7554
        19.7504         20.7504
  21763535.8024   -1189503.86348   -923145.68947                  21763541.9784
        29.7504         28.2504
  24902741.7554     177984.54345    163189.15745                  24902752.4354
        10.7504          8.2504
  20839277.3254  -10076437.66748  -7842710.56847                  20839284.7944
        32.0004         31.0004
  25045400.6534      -5309.87654
         6.5004
 98  6 12 16 31  0.0010000  0  9G 2G 4G 8G 7G 5G 9G16G24G30
  24802699.7004   11991710.93944   6961614.69045                  24802713.5914
         6.2504          7.7504
  21088449.0134    -652489.34748   -508433.23347                  21088455.1774
        29.0004         28.0004
  22360807.1694   -8327782.56847  -6294974.62546                  22360814.3564
        22.0004         20.2504
  23689729.2864   11178448.19546   8682187.24946                  23689739.6144
        12.0004         12.0004
  22249734.1774  -10728467.07847  -8220910.39246                  22249741.0484
        20.2504         20.5004
  21767716.6064   -1167532.82848   -906025.42447                  21767722.6774
        29.5004         28.0004
  24904629.6694     187903.59945    170918.30845                  24904641.7904
         9.7504          8.0004
  20837196.3494  -10087373.02848  -7851231.62047                  20837203.9464
        31.2504         30.5004
  25037818.6064     -45147.56044
         6.2504
 98  6 12 16 31 15.0010000  0  8G 4G 8G 7G 5G 9G16G24G30
  21093217.4814    -627432.02648   -488908.05647                  21093223.5634
        29.2504         28.7504
  22357931.0994   -8342897.95547  -6306752.83846                  22357938.3214
        21.2504         21.0004
  23697886.8494   11221314.97646   8715589.88346                  23697897.0714
        12.0004         12.0004
  22244490.3334  -10756024.45847  -8242383.66446                  22244497.2044
        20.7504         21.2504
  21771928.3414   -1145401.21148   -888780.00647                  21771934.2944
        30.0004         29.2504
  24906545.7944     197974.33045    178765.59345                  24906557.4354
        10.2504          9.0004
  20835143.6384  -10098158.95548  -7859636.22747                  20835151.1654
        30.7504         30.7504
  25030240.8724     -84974.61345
         7.5004
 98  6 12 16 31 30.0010000  0  8G 4G 8G 7G 5G 9G16G24G30
  21098016.2474    -602215.31048   -469258.67147                  21098022.2824
        30.0004         28.7504
  22355084.8884   -8357853.43647  -6318406.44246                  22355091.6964
        21.0004         21.0004
  23706047.5754   11264201.09646   8749007.61345                  23706057.2244
        12.0004         11.2504
  22239258.1614  -10783519.20947  -8263808.12146                  22239265.3254
        21.0004         21.2504
  21776170.1224   -1123109.53648   -871409.87847                  21776176.6614
        29.5004         29.0004
  24908491.5524     208197.08445    186731.37945                  24908502.7474
        11.0004          8.7504
  20833119.0214  -10108798.03048  -7867926.40747                  20833125.9974
        29.7504         30.2504
  25022662.0214    -124797.08144
         7.2504
 98  6 12 16 31 45.0010000  0  8G 4G 8G 7G 5G 9G16G24G30
  21102845.4194    -576836.67648   -449483.11047                  21102851.3844
        30.2504         29.2504
  22352268.7394   -8372651.80347  -6329937.63246                  22352275.7394
        21.0004         21.5004
  23714212.6384   11307108.36945   8782441.82145                  23714221.5714
        11.7504         11.7504
  22234038.2394  -10810948.51046  -8285181.58146                  22234045.2394
        19.2504         20.7504
  21780443.3964   -1100653.48748   -853911.67547                  21780449.8644
        29.7504         29.2504
  24910466.4814     218574.73545    194817.87645                  24910476.5994
        11.0004          8.7504
  20831123.1774  -10119287.12548  -7876099.71047                  20831130.1184
        30.2504         30.7504
  25015085.1384    -164613.32244
         6.2504
 98  6 12 16 32  0.0010000  0  8G 4G 8G 7G 5G 9G16G24G30
  21107705.3804    -551296.43148   -429581.62047                  21107711.3804
        30.0004         28.0004
  22349482.7394   -8387293.07647  -6341346.41946                  22349489.5484
        21.2504         20.7504
  23722381.6924   11350036.38645   8815892.22145                  23722389.0444
        11.2504         11.0004
  22228831.1614  -10838312.95446  -8306504.51446                  22228838.4894
        19.7504         20.2504
  21784746.8724   -1078038.85048   -836289.88247                  21784753.2474
        28.2504         28.2504
  24912471.0674     229106.14845    203024.15445                  24912482.0404
        10.5004          8.7504
  20829155.8644  -10129623.82348  -7884154.26047                  20829163.1104
        30.5004         30.0004
  25007510.0364    -204422.43445     -2066.24055                  25007519.5094
         7.5004          6.5004
 98  6 12 16 32 15.0010000  0  8G 4G 8G 7G 5G 9G16G24G30
  21112597.0054    -525591.38948   -409551.73047                  21112603.1104
        28.5004         29.0004
  22346727.1854   -8401773.04947  -6352629.48346                  22346734.1034
        21.7504         20.7504
  23730554.8804   11392986.73945   8849359.97145                  23730560.7394
        11.7504         10.5004
  22223636.0914  -10865611.76747  -8327776.28446                  22223643.1494
        20.2504         20.0004
  21789080.5214   -1055265.71848   -818544.59047                  21789086.7434
        30.5004         29.0004
  24914503.8414     239791.32145    211350.25945                  24914516.1964
        10.5004          9.5004
  20827219.2004  -10139801.91348  -7892085.23847                  20827226.4704
        30.2504         30.2504
  24999937.0054    -244219.68644    -33077.05445                  24999945.4114
         6.7504          8.0004
 98  6 12 16 32 30.0010000  0  8G 4G 8G 7G 5G 9G16G24G30
  21117519.4504    -499723.37248   -389394.83547                  21117525.6614
        28.7504         28.7504
  22344002.4504   -8416092.86947  -6363787.79246                  22344009.1424
        20.5004         20.7504
  23738731.9114   11435955.22746   8882841.88545                  23738738.4854
        12.5004         11.0004
  22218453.4584  -10892848.09747  -8348999.38146                  22218460.4704
        20.2504         20.0004
  21793443.5834   -1032337.65148   -800678.57547                  21793449.7824
        31.2504         29.5004
  24916564.8254     250625.63845    219792.56345                  24916575.9384
         9.0004          8.2504
  20825312.4274  -10149822.00248  -7899893.09247                  20825319.8254
        30.0004         29.7504
  24992366.5214    -284006.15145    -64079.47545                  24992375.0324
         8.2504          7.7504
 98  6 12 16 32 45.0010000  0  8G 4G 8G 7G 5G 9G16G24G30
  21122473.4894    -473690.13748   -369109.20347                  21122479.4894
        29.5004         29.0004
  22341308.1304   -8430250.62647  -6374819.78446                  22341315.5404
        21.5004         21.2504
  23746912.7314   11478947.87545   8916342.60745                  23746919.1884
        11.7504         11.5004
  22213282.5754  -10920022.17447  -8370173.98446                  22213289.1494
        20.5004         20.0004
  21797836.2634   -1009253.57248   -782690.99047                  21797842.9544
        30.7504         29.5004
  24918655.4034     261611.06445    228352.65145                  24918665.2984
         9.7504          8.5004
  20823435.9274  -10159682.44848  -7907576.54547                  20823443.3024
        30.0004         30.0004
  24984797.6064    -323777.45545    -95070.05145                  24984805.9314
         7.7504          7.5004
 98  6 12 16 33  0.0010000  0  8G 4G 8G 7G 5G 9G16G24G30
  21127458.6304    -447492.39848   -348695.38747                  21127464.6774
        29.2504         29.2504
  22338643.6064   -8444250.35247  -6385728.65446                  22338651.1344
        20.2504         21.5004
  23755098.5834   11521962.21245   8949860.21446                  23755106.4854
        11.7504         12.0004
  22208122.6534  -10947138.10547  -8391303.26846                  22208129.3804
        21.0004         20.0004
  21802258.1464    -986016.17948   -764583.94547                  21802264.9664
        30.7504         29.7504
  24920774.0604     272746.10345    237029.27745                  24920786.1924
         8.5004          8.0004
  20821589.7394  -10169385.42748  -7915137.29747                  20821596.9854
        29.5004         30.2504
  24977232.6224    -363536.17345   -126050.79145                  24977241.8134
         7.5004          8.0004
 98  6 12 16 33 15.0010000  0  8G 4G 8G 7G 5G 9G16G24G30
  21132475.6854    -421127.13548   -328151.02847                  21132482.0244
        29.0004         29.0004
  22336010.1144   -8458090.12047  -6396512.89346                  22336017.4314
        20.5004         21.7504
  23763288.3254   11565002.33846   8983397.94546                  23763297.6104
        12.2504         12.7504
  22202974.3494  -10974191.28547  -8412383.64946                  22202981.1574
        21.0004         20.5004
  21806709.7864    -962623.58048   -746355.94747                  21806716.1734
        31.7504         30.0004
  24922922.2314     284033.04245    245824.27745                  24922931.6464
         9.0004          7.2504
  20819774.2944  -10178925.75348  -7922571.29847                  20819781.8334
        29.5004         30.2504
  24969668.8254    -403278.40345   -157018.78245                  24969678.0874
         8.2504          7.7504
 98  6 12 16 33 30.0010000  0  8G 4G 8G 7G 5G 9G16G24G30
  21137523.8174    -394599.44448   -307480.12347                  21137530.3924
        28.0004         29.2504
  22333407.1614   -8471770.28247  -6407172.74746                  22333413.8414
        23.2504         22.5004
  23771483.8254   11608068.52845   9016955.95046                  23771492.7244
        10.5004         12.2504
  22197838.0284  -11001181.98247  -8433415.33546                  22197845.1104
        20.2504         20.7504
  21811190.3414    -939077.62648   -728008.45047                  21811196.5404
        30.7504         29.7504
  24925099.9424     295469.28045    254735.61645                  24925108.4074
        10.0004          7.7504
  20817990.0284  -10188301.62048  -7929877.15047                  20817997.0634
        30.7504         29.7504
  24962109.9664    -443002.62044   -187972.66545                  24962119.1344
         7.2504          8.0004
 98  6 12 16 33 45.0010000  0  8G 4G 8G 7G 5G 9G16G24G30
  21142601.4584    -367916.41948   -286688.14947                  21142608.0794
        29.5004         29.0004
  22330834.6464   -8485289.11747  -6417706.89146                  22330841.8684
        21.7504         22.2504
  23779685.3104   11651165.28945   9050537.81846                  23779694.9704
        11.0004         12.5004
  22192714.0214  -11028110.82047  -8454398.83546                  22192721.0914
        20.5004         20.5004
  21815700.4114    -915377.14348   -709540.57247                  21815706.6344
        29.5004         29.2504
  24927302.1304     307051.95445    263761.02745                  24927314.6494
         8.0004          7.5004
  20816237.2634  -10197511.29448  -7937053.52147                  20816244.6034
        29.7504         29.5004
  24954554.8254    -482702.42644   -218907.52845                  24954565.6924
         7.2504          7.7504
 98  6 12 16 34  0.0010000  0  8G 4G 8G 7G 5G 9G16G24G30
  21147707.6614    -341083.55448   -265779.43047                  21147713.7674
        29.0004         29.5004
  22328293.4354   -8498642.66647  -6428112.25646                  22328300.5284
        23.2504         23.0004
  23787891.4894   11694292.54045   9084143.44846                  23787901.6654
        11.5004         12.7504
  22187600.0444  -11054981.39647  -8475336.92346                  22187607.1734
        20.2504         20.7504
  21820238.7714    -891527.78348   -690956.67747                  21820245.1814
        31.2504         29.7504
  24929534.1924     318777.32945    272897.70345                  24929547.0404
         8.0004          7.2504
  20814515.9584  -10206557.44048  -7944102.46147                  20814523.4154
        28.7504         29.2504
  24947006.8334    -522374.43345   -249820.75045                  24947017.2554
         7.7504          8.7504
 98  6 12 16 34 15.0010000  0  8G 4G 8G 7G 5G 9G16G24G30
  21152842.7944    -314098.52248   -244752.14447                  21152849.1574
        29.5004         29.7504
  22325784.6694   -8511826.36347  -6438385.25046                  22325791.5284
        23.0004         22.7504
  23796104.5214   11737449.12046   9117771.92446                  23796114.1574
        12.5004         12.5004
  22182497.9274  -11081794.30447  -8496230.07846                  22182504.9624
        20.2504         21.0004
  21824805.5214    -867529.49948   -672256.72347                  21824811.8964
        29.5004         29.5004
  24931791.9354     330644.05145    282144.48745                  24931801.8534
         8.0004          7.5004
  20812825.7314  -10215440.64148  -7951024.42147                  20812833.2594
        29.0004         29.7504
  24939462.6694    -562014.94445   -280709.37145                  24939471.4504
         8.7504          8.7504
 98  6 12 16 34 30.0010000  0  8G 4G 8G 7G 5G 9G16G24G30
  21158006.8964    -286961.40648   -223606.34947                  21158013.5284
        28.7504         29.7504
  22323308.2784   -8524840.67047  -6448526.25946                  22323315.5244
        23.2504         23.0004
  23804322.2394   11780633.99746   9151422.43646                  23804331.6064
        13.5004         13.0004
  22177406.7714  -11108549.39047  -8517078.18046                  22177413.5324
        21.0004         21.0004
  21829401.1064    -843378.75948   -653437.97147                  21829407.4584
        29.7504         28.7504
  24934077.4504     342652.59444    291501.83745                  24934091.5634
         6.5004          6.2504
  20811165.1534  -10224166.44548  -7957823.73147                  20811172.3064
        30.2504         29.7504
  24931924.3564    -601626.83745   -311575.75545                  24931935.9154
         8.2504          7.7504
 98  6 12 16 34 45.0010000  0  8G 4G 8G 7G 5G 9G16G24G30
  21163200.0134    -259671.78248   -202341.71347                  21163206.7864
        30.0004         29.2504
  22320863.9504   -8537685.51047  -6458535.22646                  22320871.2314
        23.5004         22.7504
  23812545.6384   11823848.57546   9185096.09846                  23812554.8414
        13.5004         12.5004
  22172326.6774  -11135244.62447  -8537879.63746                  22172333.5214
        20.7504         21.0004
  21834025.9584    -819074.10548   -634499.28547                  21834032.3804
        30.0004         28.7504
  24936389.6144     354804.96845    300971.24345                  24936402.7434
         8.7504          7.0004
  20809533.7084  -10232739.23348  -7964503.81247                  20809540.5174
        30.0004         29.2504
  24924391.5604    -641211.28245   -342420.76245                  24924400.4934
         8.2504          8.7504
 98  6 12 16 35  0.0010000  0  8G 4G 8G 7G 5G 9G16G24G30
  21168422.2474    -232228.21148   -180957.11647                  21168428.5874
        29.7504         29.2504
  22318452.5054   -8550358.47147  -6468410.24846                  22318459.0214
        25.0004         22.7504
  23820774.9114   11867094.97046   9218794.55346                  23820784.1614
        14.0004         12.7504
  22167259.4034  -11161872.58247  -8558628.68546                  22167265.9894
        20.7504         21.2504
  21838681.2944    -794611.93048   -615437.87647                  21838687.7284
        30.7504         29.2504
  24938729.4274     367103.56244    310554.57345                  24938741.7474
         6.7504          7.2504
  20807931.4354  -10241159.50248  -7971065.05647                  20807938.5174
        28.7504         28.5004
  24916864.2554    -680767.71045   -373243.93445                  24916873.2244
         8.2504          8.5004
 98  6 12 16 35 15.0010000  0  8G 4G 8G 7G 5G 9G16G24G30
  21173673.0834    -204633.74048   -159454.92147                  21173679.2824
        29.5004         29.5004
  22316073.1144   -8562861.34047  -6478152.73846                  22316079.4074
        24.2504         22.7504
  23829010.0994   11910369.72546   9252515.10346                  23829019.0324
        13.0004         13.0004
  22162206.1384  -11188430.19547  -8579322.91546                  22162212.5484
        21.2504         21.2504
  21843365.7244    -769994.87848   -596255.77747                  21843372.2984
        29.7504         28.7504
  24941096.9424     379546.16344    320250.10545                  24941109.3334
         6.7504          7.2504
  20806356.9814  -10249431.88248  -7977511.05547                  20806364.1574
        29.7504         28.5004
  24909341.1854    -720300.61744   -404048.74545                  24909348.9704
         7.2504          7.5004
 98  6 12 16 35 30.0010000  0  8G 4G 8G 7G 5G 9G16G24G30
  21178952.5674    -176891.54048   -137837.63647                  21178958.9544
        29.2504         28.7504
  22313726.1224   -8575194.92647  -6487763.32346                  22313733.1694
        23.2504         22.0004
  23837249.9894   11953671.61146   9286256.79746                  23837258.2314
        14.2504         13.0004
  22157165.8334  -11214916.76247  -8599961.77546                  22157172.3494
        22.2504         21.0004
  21848078.4894    -745227.29248   -576956.37047                  21848085.2044
        28.7504         28.7504
  24943492.4194     392130.92843    330056.40645                  24943501.3414
         6.0004          7.0004
  20804810.4584  -10257560.66448  -7983845.16147                  20804817.5404
        31.2504         29.0004
  24901821.7784    -759813.95044   -434838.32545                  24901830.4194
         6.7504          8.0004
 98  6 12 16 35 45.0010000  0  8G 4G 8G 7G 5G 9G16G24G30
  21184261.2164    -148993.94748   -116099.26247                  21184267.9894
        29.2504         29.7504
  22311412.1534   -8587355.82947  -6497239.34046                  22311418.9274
        23.7504         22.5004
  23845496.5674   11997005.89346   9320023.75346                  23845505.4544
        13.7504         13.5004
  22152139.8334  -11241328.25747  -8620542.14846                  22152146.7864
        21.2504         21.5004
  21852820.8174    -720306.18847   -557537.33147                  21852827.7124
        27.0004         28.2504
  24945914.7474     404864.16243    339978.36845                  24945928.2514
         5.0004          6.0004
  20803291.3884  -10265542.09848  -7990064.45347                  20803298.4934
        29.5004         29.2504
  24894306.3104    -799305.26844   -465610.75445                  24894315.9934
         7.2504          7.7504
 98  6 12 16 36  0.0010000  0  8G 4G 8G 7G 5G 9G16G24G30
  21189599.7554    -120940.05248    -94239.08847                  21189606.4114
        29.7504         29.7504
  22309130.1924   -8599345.25047  -6506581.72446                  22309137.1574
        21.7504         21.2504
  23853748.5054   12040370.51146   9353814.33646                  23853757.5674
        13.5004         13.0004
  22147128.0994  -11267665.19847  -8641064.41746                  22147134.9934
        21.2504         21.0004
  21857591.7784    -695235.92147   -538002.07047                  21857598.7314
        27.7504         28.2504
  24948367.3254     417746.73542    350016.68145                  24948378.0634
         4.0004          5.5004
  20801800.1694  -10273379.74948  -7996171.70247                  20801807.2164
        28.5004         28.7504
  24886796.2244    -838779.61444   -496369.99645                  24886803.2474
         7.2504          7.2504
 98  6 12 16 36 15.0010000  0  8G 4G 8G 7G 5G 9G16G24G30
  21194969.0834     -92724.29348    -72252.78147                  21194975.3414
        31.2504         29.7504
  22306881.9894   -8611161.73547  -6515789.37646                  22306889.4234
        22.7504         22.5004
  23862006.0284   12083764.70946   9387627.96146                  23862014.3644
        14.2504         12.7504
  22142131.2714  -11293923.03946  -8661525.04946                  22142138.1774
        18.7504         20.7504
  21862390.9274    -670015.93048   -518350.13547                  21862397.8924
        28.0004         28.5004
  24950848.5524     430783.66343    360175.35745                  24950862.5954
         5.5004          4.5004
  20800336.3104  -10281071.62248  -8002165.34147                  20800343.3334
        29.7504         29.0004
  24879286.4194    -878238.33844   -527116.97345                  24879297.2394
         6.7504          8.0004
 98  6 12 16 36 30.0010000  0  8G 4G 8G 7G 5G 9G16G24G30
  21200369.2314     -64347.59848    -50141.08347                  21200375.1964
        31.7504         30.0004
  22304665.5914   -8622807.10547  -6524863.68046                  22304673.4114
        20.5004         21.7504
  23870269.6854   12127190.82446   9421466.45046                  23870278.5954
        13.0004         12.7504
  22137150.9354  -11320095.65646  -8681919.28646                  22137157.9704
        19.2504         21.0004
  21867219.1144    -644643.24248   -498579.23547                  21867226.1614
        28.0004         28.7504
  24953357.8804     443978.93942    370457.27745                  24953368.5484
         3.7504          5.2504
  20798900.5754  -10288615.56748  -8008043.73947                  20798907.1494
        31.5004         29.5004
  24871780.8724    -917682.92745   -557852.99145                  24871788.9034
         7.7504          8.0004
 98  6 12 16 36 45.0010000  0  8G 4G 8G 7G 5G 9G16G24G30
  21205798.1694     -35815.81848    -27908.51747                  21205804.4624
        30.0004         30.0004
  22302481.0914   -8634285.88447  -6533808.17246                  22302488.3254
        22.0004         22.5004
  23878539.2714   12170645.82646   9455327.45746                  23878547.4664
        14.2504         13.2504
  22132186.0834  -11346184.53447  -8702248.26046                  22132192.9274
        20.5004         20.7504
  21872075.0364    -619123.65647   -478693.85347                  21872082.1654
        26.0004         28.5004
  24955898.7554     457330.90241    380861.52345                  24955912.2244
         3.5004          5.2504
  20797492.8724  -10296014.87848  -8013809.43047                  20797499.9424
        30.5004         30.2504
  24864276.2634    -957120.57245   -588583.62345                  24864284.8334
         7.5004          7.7504
 98  6 12 16 37  0.0010000  0  8G 4G 8G 7G 5G 9G16G24G30
  21211257.0134      -7129.97248     -5555.90747                  21211263.3994
        29.5004         30.0004
  22300328.9814   -8645594.72247  -6542620.24346                  22300336.1694
        22.0004         22.2504
  23886814.4504   12214131.52946   9489212.40046                  23886824.1924
        13.5004         13.0004
  22127238.0214  -11372185.35746  -8722508.62746                  22127245.0674
        19.2504         20.2504
  21876960.0604    -593455.33748   -458692.58047                  21876966.9664
        28.7504         28.2504
  24958469.6614     470841.10442    391388.96245                  24958478.8644
         4.7504          4.7504
  20796113.5524  -10303262.62948  -8019457.02547                  20796120.8804
        29.5004         29.5004
  24856773.2164    -996548.05345   -619306.27145                  24856783.0284
         8.5004          8.2504
 98  6 12 16 37 15.0010000  0  8G 4G 8G 7G 5G 9G16G24G30
  21216745.0674      21710.28048     16917.00847                  21216751.2434
        30.7504         29.2504
  22298209.3494   -8656734.80847  -6551300.81946                  22298216.7004
        23.0004         22.5004
  23895095.0364   12257648.94746   9523122.05746                  23895104.0524
        13.7504         13.2504
  22122307.1924  -11398099.01546  -8742701.06446                  22122314.2984
        19.5004         20.2504
  21881872.9114    -567637.79847   -438575.01347                  21881879.4274
        27.7504         28.2504
  24961072.2864     484512.71743    402042.11545                  24961082.3334
         5.0004          5.7504
  20794763.9974  -10310353.43748  -8024982.31447                  20794771.2674
        30.2504         29.2504
  24849272.5674   -1035962.24145   -650018.57245                  24849281.3604
         7.7504          7.5004
 98  6 12 16 37 30.0010000  0  8G 4G 8G 7G 5G 9G16G24G30
  21222261.6064      50700.40248     39506.70547                  21222268.0634
        30.2504         29.7504
  22296121.0994   -8667709.20547  -6559852.28746                  22296128.2864
        21.5004         21.7504
  23903381.8884   12301195.12046   9557054.09246                  23903392.2744
        14.5004         13.7504
  22117391.5444  -11423931.45147  -8762830.21246                  22117398.0014
        20.7504         20.7504
  21886813.6144    -541673.36248   -418342.99547                  21886820.2944
        28.0004         28.5004
  24963704.5674     498343.78644    412819.62345                  24963717.1464
         7.2504          7.0004
  20793444.7864  -10317286.82748  -8030384.93947                  20793451.7394
        31.0004         29.2504
  24841775.0214   -1075364.00945   -680721.23745                  24841781.0564
         8.5004          6.7504
 98  6 12 16 37 45.0010000  0  8G 4G 8G 7G 5G 9G16G24G30
  21227807.4424      79843.66748     62215.75347                  21227813.7474
        29.5004         29.2504
  22294064.4504   -8678516.29647  -6568273.38646                  22294071.8134
        22.7504         22.2504
  23911674.8724   12344771.57746   9591009.75646                  23911684.3104
        15.0004         14.2504
  22112491.0754  -11449683.65447  -8782896.83946                  22112498.2864
        20.2504         21.2504
  21891783.3024    -515557.92747   -397993.31647                  21891790.4424
        27.2504         28.5004
  24966366.4194     512334.20244    423721.20745                  24966376.3024
         6.7504          7.0004
  20792156.3804  -10324058.03348  -8035661.19647                  20792163.1884
        30.5004         29.5004
  24834279.4114   -1114749.89844   -711411.46945                  24834286.6694
         6.5004          7.0004
 98  6 12 16 38  0.0010000  0  8G 4G 8G 7G 5G 9G16G24G30
  21233381.9274     109137.55148     85042.14547                  21233388.1144
        30.2504         29.5004
  22292040.9114   -8689151.25647  -6576560.36246                  22292048.0404
        22.5004         22.5004
  23919972.0754   12388377.80246   9624988.61246                  23919981.7714
        14.7504         14.2504
  22107605.9274  -11475354.08946  -8802899.75746                  22107613.1964
        19.7504         21.2504
  21896782.7864    -489287.19947   -377522.63647                  21896789.4544
        27.7504         28.5004
  24969060.5524     526485.06645    434747.89745                  24969068.7244
         8.0004          6.5004
  20790899.6614  -10330662.97548  -8040807.90447                  20790906.7904
        30.0004         29.2504
  24826788.8724   -1154114.49943   -742085.17245                  24826795.1424
         6.0004          5.7504
 98  6 12 16 38 15.0010000  0  8G 4G 8G 7G 5G 9G16G24G30
  21238983.4974     138573.45548    107979.19747                  21238989.6264
        29.7504         29.5004
  22290048.8804   -8699619.60147  -6584717.51146                  22290055.9504
        23.5004         23.2504
  23928274.5284   12432006.63946   9658985.07846                  23928284.4234
        15.0004         13.2504
  22102735.5914  -11500948.55547  -8822843.48146                  22102742.8024
        20.5004         21.5004
  21901811.1304    -462862.85147   -356932.24547                  21901817.7514
        27.0004         28.7504
  24971781.7394     540789.24744    445894.00545                  24971794.9744
         6.7504          6.0004
  20789673.0524  -10337107.11448  -8045829.30147                  20789680.3454
        30.2504         29.7504
  24819300.9894   -1193459.37443   -772743.46845                  24819306.9784
         6.0004          6.5004
 98  6 12 16 38 30.0010000  0  8G 4G 8G 7G 5G 9G16G24G30
  21244611.8254     168151.13548    131026.74647                  21244617.9784
        29.5004         29.2504
  22288088.6924   -8709920.96647  -6592744.54546                  22288095.5754
        23.5004         23.2504
  23936581.4974   12475659.10846   9692999.95646                  23936592.0134
        15.0004         13.5004
  22097879.1224  -11526468.80547  -8842729.35546                  22097885.7784
        20.2504         20.5004
  21906868.8644    -436283.48347   -336221.06347                  21906875.4274
        26.5004         28.5004
  24974532.9424     555246.50545    457159.43545                  24974541.1144
         7.7504          6.2504
  20788478.0364  -10343387.52648  -8050723.11447                  20788485.2474
        31.0004         29.7504
  24811818.3564   -1232782.21843   -803384.65845                  24811826.0364
         6.0004          6.7504
 98  6 12 16 38 45.0010000  0  8G 4G 8G 7G 5G 9G16G24G30
  21250267.9504     197873.59148    154187.10347                  21250274.1264
        31.2504         29.2504
  22286160.7164   -8720050.86947  -6600637.95846                  22286167.6574
        23.7504         23.7504
  23944893.5754   12519336.49846   9727034.25546                  23944903.0714
        17.0004         13.7504
  22093036.5604  -11551915.77847  -8862558.15046                  22093043.0054
        20.5004         20.2504
  21911957.0834    -409544.48447   -315385.49247                  21911963.5874
        27.0004         28.2504
  24977313.3644     569856.90845    468544.10445                  24977319.9624
         9.2504          5.7504
  20787314.3964  -10349502.32848  -8055487.88347                  20787321.3134
        30.7504         29.5004
  24804339.6924   -1272082.56844   -834008.20745                  24804347.2434
         6.5004          6.7504
 98  6 12 16 39  0.0010000  0  8G 4G 8G 7G 5G 9G16G24G30
  21255952.4894     227746.23848    177464.47347                  21255958.4784
        29.5004         28.7504
  22284266.2864   -8730006.41947  -6608395.52046                  22284273.9544
        23.0004         23.7504
  23953210.0364   12563041.38046   9761089.96846                  23953219.3334
        17.0004         13.0004
  22088207.7244  -11577289.96946  -8882330.23346                  22088214.0634
        19.7504         19.7504
  21917076.5054    -382643.27848   -294423.53347                  21917082.9504
        28.0004         28.2504
  24980123.0364     584622.84045    480050.05545                  24980135.8494
         9.2504          7.2504
  20786183.3494  -10355447.41148  -8060120.40847                  20786190.2434
        31.2504         29.0004
  24796866.5214   -1311355.71844   -864610.61645                  24796875.1964
         6.2504          7.2504
 98  6 12 16 39 15.0010000  0  8G 4G 8G 7G 5G 9G16G24G30
  21261665.3964     257767.64648    200857.77547                  21261671.4424
        29.5004         28.5004
  22282404.2244   -8739792.74247  -6616021.22546                  22282411.7044
        23.2504         23.7504
  23961531.4034   12606770.18446   9795164.33946                  23961539.2944
        17.0004         13.0004
  22083392.5214  -11602596.54046  -8902049.62146                  22083398.5214
        19.5004         19.5004
  21922225.8884    -355581.99447   -273336.83547                  21922232.5094
        27.2504         28.0004
  24982962.0134     599540.42845    491674.17745                  24982974.0754
        10.5004          7.0004
  20785083.3174  -10361225.70248  -8064622.96147                  20785090.3414
        29.5004         28.5004
  24789398.1224   -1350600.73744   -895191.09645                  24789408.3804
         6.2504          6.5004
 98  6 12 16 39 30.0010000  0  8G 4G 8G 7G 5G 9G16G24G30
  21267406.7554     287938.30948    224367.39147                  21267412.9194
        29.5004         28.5004
  22280573.6224   -8749411.54547  -6623516.38046                  22280580.8334
        23.2504         24.0004
  23969856.6924   12650520.62846   9829255.55846                  23969864.9704
        16.2504         12.5004
  22078588.7554  -11627838.83647  -8921718.93046                  22078594.8254
        20.2504         19.5004
  21927405.6534    -328363.37647   -252127.54247                  21927412.3334
        26.5004         28.0004
  24985828.4584     614606.55445    503414.03445                  24985841.9854
         7.5004          5.7504
  20784014.9114  -10366841.75048  -8068999.09947                  20784021.7824
        30.2504         28.2504
  24781934.7554   -1389818.64443   -925750.48045                  24781944.9194
         5.7504          6.7504
 98  6 12 16 39 45.0010000  0  8G 4G 8G 7G 5G 9G16G24G30
  21273177.4504     318263.80248    247997.63747                  21273183.4854
        31.5004         29.0004
  22278776.3334   -8758855.73147  -6630875.46346                  22278783.7674
        21.7504         23.0004
  23978187.0834   12694296.96446   9863366.98846                  23978195.6774
        16.0004         12.0004
  22073798.9974  -11653011.62147  -8941334.07446                  22073805.0214
        20.7504         20.5004
  21932615.3564    -300984.31147   -230793.22447                  21932621.9194
        27.0004         28.0004
  24988723.9664     629822.00944    515270.34645                  24988733.0174
         7.2504          6.0004
  20782977.6304  -10372292.82148  -8073246.68747                  20782984.2984
        31.5004         29.0004
  24774477.4424   -1429009.02043   -956288.39145                  24774487.9934
         5.5004          6.7504
 98  6 12 16 40  0.0010000  0  8G 4G 8G 7G 5G 9G16G24G30
  21278977.2244     348742.59848    271747.34147                  21278983.1884
        29.5004         28.5004
  22277012.4114   -8768125.00947  -6638098.28846                  22277019.5174
        23.7504         23.0004
  23986522.2714   12738098.16146   9897497.78746                  23986530.4314
        14.7504         12.0004
  22069021.5364  -11678115.85347  -8960895.79446                  22069027.9114
        21.2504         20.7504
  21937855.9814    -273445.40447   -209334.34147                  21937862.2164
        26.5004         27.2504
  24991648.3254     645185.27845    527241.67845                  24991655.9464
         8.0004          6.0004
  20781971.2784  -10377580.18948  -8077366.70047                  20781978.5714
        30.2504         29.2504
  24767025.6144   -1468170.37544   -986803.67345                  24767033.2594
         7.2504          6.7504
 98  6 12 16 40 15.0010000  0  8G 4G 8G 7G 5G 9G16G24G30
  21284806.4114     379375.00248    295616.75247                  21284812.6464
        30.0004         28.5004
  22275281.9114   -8777220.01547  -6645185.29346                  22275288.4624
        23.7504         22.7504
  23994862.5674   12781927.17246   9931650.23146                  23994871.0094
        14.7504         12.0004
  22064258.0284  -11703148.87347  -8980402.02346                  22064264.4854
        21.5004         20.7504
  21943126.3964    -245748.74347   -187752.54847                  21943133.3024
        26.7504         27.7504
  24994600.2864     660698.44344    539329.86145                  24994607.2284
         7.2504          5.0004
  20780995.9584  -10382705.56648  -8081360.48947                  20781003.2634
        30.0004         28.7504
  24759578.5524   -1507300.61443  -1017294.70645                  24759588.5054
         6.0004          6.2504
 98  6 12 16 40 30.0010000  0  8G 4G 8G 7G 5G 9G16G24G30
  21290666.2714     410167.52048    319610.91447                  21290672.3534
        30.5004         28.7504
  22273584.9584   -8786138.29947  -6652134.59146                  22273591.8534
        23.5004         23.2504
  24003209.1144   12825788.47046   9965827.85345                  24003218.6924
        13.7504         11.7504
  22059508.2394  -11728107.65247  -8999850.40746                  22059514.4384
        21.0004         21.0004
  21948426.8494    -217894.25447   -166047.77147                  21948433.8964
        26.5004         28.0004
  24997581.2164     676365.24744    551537.78145                  24997587.6734
         7.0004          6.2504
  20780051.4034  -10387668.49348  -8085227.70347                  20780058.3564
        30.2504         28.7504
  24752138.4194   -1546401.54443  -1047762.94245                  24752143.1534
         5.5004          5.7504
 98  6 12 16 40 45.0010000  0  8G 4G 8G 7G 5G 9G16G24G30
  21296556.7004     441121.41948    343730.83247                  21296562.9354
        30.7504         29.0004
  22271922.0604   -8794876.02847  -6658943.21246                  22271929.1424
        24.2504         23.0004
  24011561.7314   12869683.28146  10000031.57145                  24011570.3254
        12.5004         11.2504
  22054774.0754  -11752986.78147  -9019236.73746                  22054780.9464
        21.0004         20.7504
  21953757.7314    -189881.03447   -144219.29847                  21953764.7784
        26.5004         27.5004
  25000591.3494     692186.43643    563865.91745                  25000602.2744
         5.2504          5.7504
  20779138.3804  -10392468.63648  -8088968.07147                  20779144.9894
        31.5004         28.7504
  24744702.3494   -1585473.08743  -1078208.22845                  24744711.5404
         5.2504          6.7504
 98  6 12 16 41  0.0010000  0  8G 4G 8G 7G 5G 9G16G24G30
  21302476.9504     472232.57248    367973.29247                  21302482.9504
        30.7504         29.5004
  22270293.0054   -8803436.85447  -6665613.97646                  22270299.5324
        24.5004         23.5004
  24019920.4974   12913608.39745  10034258.90145                  24019929.7824
        11.2504         10.7504
  22050054.4424  -11777788.40847  -9038562.64546                  22050061.4314
        21.0004         21.5004
  21959117.8024    -161713.41547   -122270.51247                  21959124.9664
        26.0004         27.7504
  25003629.1614     708160.06542    576312.92045                  25003647.1654
         4.0004          4.5004
  20778254.7314  -10397111.20248  -8092585.64647                  20778261.5524
        31.0004         29.5004
  24737273.2944   -1624515.32743  -1108630.70545                  24737282.9664
         5.5004          7.2504
 98  6 12 16 41 15.0010000  0  8G 4G 8G 7G 5G 9G16G24G30
  21308426.9504     503500.34848    392337.79047                  21308433.1854
        31.5004         29.7504
  22268697.7164   -8811820.02647  -6672146.29446                  22268704.2674
        22.7504         23.2504
  24028285.7244   12957568.23746  10068513.26145                  24028294.5874
        12.5004         11.2504
  22045350.3254  -11802508.64047  -9057825.14146                  22045357.1464
        20.5004         21.2504
  21964507.2244    -133391.08047   -100201.17147                  21964514.4814
        25.5004         27.7504
  25006700.9814     724289.14442    588880.94745                  25006715.3414
         4.7504          5.7504
  20777401.6614  -10401593.87348  -8096078.61647                  20777408.6964
        30.5004         29.7504
  24729852.1064   -1663521.81844  -1139025.31145                  24729858.7164
         6.2504          6.0004
 98  6 12 16 41 30.0010000  0  8G 4G 8G 7G 5G 9G16G24G30
  21314406.1694     534921.75048    416821.99347                  21314412.3334
        30.2504         29.2504
  22267136.2164   -8820025.47147  -6678540.14346                  22267142.7674
        23.5004         23.0004
  24036657.5914   13001561.38445  10102793.59245                  24036667.6384
        11.2504         11.5004
  22040661.7784  -11827147.03347  -9077023.88946                  22040668.5404
        21.0004         21.0004
  21969926.3494    -104915.99348    -78012.81047                  21969933.4074
        28.0004         28.5004
  25009799.2394     740572.23241    601568.97745                  25009809.2744
         3.2504          5.5004
  20776578.1854  -10405920.74948  -8099450.20247                  20776585.3844
        30.7504         29.5004
  24722435.8804   -1702497.05744  -1169395.58045                  24722441.3644
         6.5004          6.5004
 98  6 12 16 41 45.0010000  0  7G 4G 8G 7G 5G 9G24G30
  21320415.1224     566498.09548    441426.93047                  21320421.3334
        30.7504         29.2504
  22265609.1144   -8828050.11547  -6684793.09346                  22265615.9584
        24.5004         23.2504
  24045036.4424   13045589.52746  10137101.20145                  24045045.4114
        13.0004         11.5004
  22035989.3644  -11851700.13646  -9096156.16346                  22035996.3174
        19.7504         20.7504
  21975373.9274     -76288.29047    -55705.52247                  21975381.0444
        27.5004         28.0004
  20775784.6304  -10410090.72248  -8102699.52247                  20775791.4744
        30.5004         28.7504
  24715022.9034   -1741442.84543  -1199742.92345                  24715029.3724
         5.5004          6.5004
 98  6 12 16 42  0.0010000  0  8G 4G 8G 7G 5G 9G16G24G30
  21326452.9504     598228.69448    466152.06747                  21326459.0914
        30.5004         28.7504
  22264116.3414   -8835895.56547  -6690906.42946                  22264122.8334
        22.7504         22.5004
  24053420.9424   13089651.08346  10171434.87446                  24053430.0404
        13.2504         12.2504
  22031333.4814  -11876166.44847  -9115220.79146                  22031340.9384
        20.5004         21.2504
  21980850.5214     -47508.64347    -33279.84247                  21980857.8844
        27.7504         28.2504
  25016083.2004       4439.47052
         4.0004
  20775020.9034  -10414103.42848  -8105826.30147                  20775027.7744
        29.7504         28.5004
  24707618.0214   -1780358.02743  -1230066.32845                  24707624.8064
         5.5004          6.7504
 98  6 12 16 42 15.0010000  0  8G 4G 8G 7G 5G 9G16G24G30
  21332521.1224     630116.50248    490999.71147                  21332527.0404
        31.2504         29.0004
  22262657.9584   -8843559.43247  -6696878.26446                  22262664.3564
        24.5004         23.0004
  24061811.7784   13133748.98746  10205796.83245                  24061821.1924
        12.7504         11.7504
  22026695.4194  -11900541.06447  -9134213.99046                  22026702.5714
        20.5004         21.5004
  21986355.9114     -18575.80547    -10734.79147                  21986363.0994
        26.2504         27.0004
  25019274.4584      21197.78243
         5.7504
  20774287.4584  -10417957.43848  -8108829.41947                  20774294.3884
        30.5004         28.7504
  24700219.7554   -1819237.52744  -1260361.97445                  24700227.3414
         7.2504          6.2504
 98  6 12 16 42 30.0010000  0  8G 4G 8G 7G 5G 9G16G24G30
  21338618.5674     662159.29648    515968.11647                  21338624.6144
        30.5004         28.5004
  22261232.6614   -8851046.96347  -6702712.68146                  22261239.5794
        21.5004         22.5004
  24070210.1614   13177876.92146  10240182.18946                  24070220.2674
        13.0004         12.2504
  22022073.3414  -11924830.36947  -9153140.71046                  22022080.5994
        20.0004         21.0004
  21991889.2944      10503.05248     11924.04447                  21991896.2714
        28.0004         27.7504
  25022493.5524      38115.44644
         6.7504
  20773583.2864  -10421658.54948  -8111713.39047                  20773590.3804
        30.0004         28.5004
  24692825.5674   -1858091.79744  -1290638.02345                  24692832.3764
         7.2504          7.0004
 98  6 12 16 42 45.0010000  0  8G 4G 8G 7G 5G 9G16G24G30
  21344745.3964     694355.92448    541056.39447                  21344751.5014
        30.5004         28.2504
  22259842.2864   -8858355.01347  -6708407.27746                  22259848.8604
        21.7504         21.7504
  24078611.7084   13222033.82445  10274590.12145                  24078621.3214
        11.2504         11.7504
  22017467.6304  -11949034.49547  -9172001.05546                  22017475.0284
        20.2504         20.7504
  21997451.2244      39729.21048     34697.66647                  21997458.0564
        29.0004         27.7504
  25025743.8804      55195.15244
         7.2504
  20772908.6464  -10425204.77848  -8114476.68047                  20772915.8924
        30.0004         28.0004
  24685436.7314   -1896919.69145  -1320893.46545                  24685445.5364
         7.7504          7.0004
 98  6 12 16 43  0.0010000  0  8G 4G 8G 7G 5G 9G16G24G30
  21350901.9814     726709.00948    566266.58347                  21350907.9464
        30.2504         28.2504
  22258485.6854   -8865482.33147  -6713961.02546                  22258492.2824
        23.0004         22.2504
  24087021.4194   13266224.20145  10309024.14345                  24087031.3134
        11.2504         10.7504
  22012877.9034  -11973151.02747  -9190793.14446                  22012885.1034
        20.0004         20.5004
  22003041.3494      69106.08748     57588.71647                  22003048.3134
        29.7504         28.0004
  25029025.9424      72441.33845
         9.0004
  20772264.3104  -10428590.10848  -8117114.58747                  20772271.5324
        29.5004         27.7504
  24678055.4354   -1935714.23645  -1351122.92545                  24678063.5484
         8.2504          6.7504
 98  6 12 16 43 15.0010000  0  8G 4G 8G 7G 5G 9G16G24G30
  21357088.5914     759220.48948    591600.19547                  21357094.5914
        30.5004         28.0004
  22257163.9354   -8872428.68447  -6719373.75546                  22257170.7204
        21.2504         22.2504
  24095436.9194   13310448.92045  10343484.92245                  24095447.4814
        11.2504         11.7504
  22008305.3254  -11997180.81946  -9209517.63846                  22008312.6654
        19.5004         20.7504
  22008660.6774      98633.84048     80597.33447                  22008667.5834
        29.7504         28.2504
  25032339.0214      89855.52144      5441.90055                  25032344.2714
         6.5004          6.0004
  20771651.0674  -10431812.85148  -8119625.80347                  20771658.3724
        29.7504         28.2504
  24670679.4664   -1974475.27445  -1381326.29545                  24670684.9854
         8.2504          6.5004
 98  6 12 16 43 30.0010000  0  8G 4G 8G 7G 5G 9G16G24G30
  21363305.9504     791892.98748    617059.28647                  21363312.1384
        29.7504         28.2504
  22255876.7714   -8879193.73447  -6724645.22646                  22255883.7474
        21.2504         21.7504
  24103858.8964   13354707.68145  10377972.23545                  24103869.0714
        10.7504         11.5004
  22003749.0994  -12021121.84946  -9228172.96146                  22003756.5674
        19.5004         21.0004
  22014308.5604     128314.49848    103725.09747                  22014315.2864
        30.0004         28.7504
  25035685.8024     107437.85844     19142.46945                  25035692.6964
         7.2504          6.7504
  20771068.7864  -10434871.50848  -8122009.16747                  20771076.2314
        30.2504         28.5004
  24663309.5604   -2013204.98845  -1411505.21245                  24663315.9354
         7.7504          6.7504
 98  6 12 16 43 45.0010000  0  8G 4G 8G 7G 5G 9G16G24G30
  21369554.9584     824731.42248    642647.67647                  21369561.1464
        29.7504         28.2504
  22254624.4504   -8885772.97447  -6729771.90046                  22254631.4504
        21.5004         22.5004
  24112288.4354   13399002.65845  10412487.75045                  24112297.9784
        11.2504         11.5004
  21999210.8804  -12044970.96846  -9246756.66746                  21999218.4664
        19.5004         21.0004
  22019986.7634     158153.51448    126976.26647                  22019993.3494
        30.5004         28.5004
  25039063.7714     125191.20145     32976.22245                  25039070.7474
         7.5004          7.7504
  20770518.7244  -10437762.85748  -8124262.15947                  20770526.2744
        29.7504         28.5004
  24655945.3414   -2051900.39545  -1441657.47945                  24655950.2984
         8.0004          7.0004
 98  6 12 16 44  0.0010000  0  8G 4G 8G 7G 5G 9G16G24G30
  21375834.5674     857729.96048    668360.80847                  21375840.6614
        29.2504         28.0004
  22253406.9744   -8892172.74347  -6734758.72846                  22253414.1614
        20.5004         22.2504
  24120723.0284   13443327.86645  10447026.85445                  24120732.1614
        11.5004         11.7504
  21994688.8564  -12068734.61146  -9265273.78346                  21994695.6884
        19.7504         20.7504
  22025694.1924     188145.01648    150346.25147                  22025700.7434
        30.5004         28.0004
  25042471.7634     143111.50643     46940.12445                  25042482.5364
         5.7504          7.2504
  20769999.4274  -10440489.94948  -8126387.14647                  20770006.7784
        30.0004         28.0004
  24648588.1144   -2090564.60244  -1471785.37145                  24648596.0404
         6.5004          7.5004
 98  6 12 16 44 15.0010000  0  8G 4G 8G 7G 5G 9G16G24G30
  21382143.7714     890885.78248    694196.50747                  21382149.7824
        30.0004         28.2504
  22252223.4584   -8898391.75047  -6739604.71246                  22252231.0094
        21.5004         22.7504
  24129164.6774   13487686.95045  10481592.35845                  24129173.4354
        10.5004         11.7504
  21990183.0604  -12092414.27147  -9283725.44046                  21990190.0014
        20.0004         21.0004
  22031430.9354     218291.54548    173837.03147                  22031437.3924
        30.2504         28.7504
  25045915.5524     161199.28545     61034.49345                  25045927.0754
         7.5004          8.2504
  20769512.2474  -10443051.56648  -8128383.20147                  20769519.3644
        29.5004         28.5004
  24641237.0914   -2129195.68145  -1501887.41745                  24641244.2784
         9.0004          8.0004
 98  6 12 16 44 30.0010000  0  8G 4G 8G 7G 5G 9G16G24G30
  21388483.7394     924202.82248    720157.83747                  21388489.9854
        30.5004         28.5004
  22251075.4354   -8904424.06347  -6744305.20646                  22251082.7864
        20.5004         22.5004
  24137613.2554   13532086.53845  10516189.41245                  24137622.2474
        11.2504         11.2504
  21985693.3494  -12116008.16047  -9302110.28446                  21985699.9464
        21.0004         20.7504
  22037197.9664     248598.52448    197452.84647                  22037204.5634
        30.7504         28.7504
  25049389.9744     179459.02544     75262.87145                  25049402.7044
         6.7504          8.7504
  20769057.0674  -10445443.00548  -8130246.65947                  20769064.3724
        29.0004         28.0004
  24633891.9034   -2167790.66145  -1531961.39645                  24633900.9424
         8.0004          7.7504
 98  6 12 16 44 45.0010000  0  8G 4G 8G 7G 5G 9G16G24G30
  21394853.4194     957673.59348    746238.95447                  21394859.9934
        31.2504         29.0004
  22249962.3494   -8910274.81747  -6748864.23046                  22249969.5364
        20.5004         22.5004
  24146068.9194   13576523.47545  10550815.57845                  24146078.1464
        11.0004         11.2504
  21981219.3414  -12139519.39147  -9320430.70946                  21981225.6224
        21.0004         20.7504
  22042995.3494     279063.23348    221191.54447                  22043002.2314
        30.0004         28.7504
  25052896.4194     197885.33345     89621.03745                  25052908.0714
         7.7504          7.2504
  20768633.9664  -10447666.27548  -8131979.05847                  20768641.5284
        30.0004         28.2504
  24626554.4424   -2206351.63945  -1562008.87345                  24626562.3804
         8.0004          8.0004
 98  6 12 16 45  0.0010000  0  8G 4G 8G 7G 5G 9G16G24G30
  21401251.9504     991299.99748    772441.33447                  21401258.2314
        29.7504         28.7504
  22248883.3964   -8915943.08147  -6753281.05546                  22248890.6774
        21.5004         22.7504
  24154531.7864   13620999.80545  10585472.41945                  24154541.5524
         9.7504         10.5004
  21976762.0524  -12162942.50847  -9338682.47846                  21976768.5324
        20.2504         20.5004
  22048823.1614     309689.11647    245055.84847                  22048830.0794
        27.7504         27.0004
  25056434.3414     216477.18144    104108.20045                  25056444.7984
         7.2504          7.0004
  20768243.3174  -10449718.65648  -8133578.29747                  20768250.9034
        29.5004         28.0004
  24619223.5134   -2244872.89345  -1592025.35645                  24619231.0174
         9.5004          8.0004
 98  6 12 16 45 15.0010000  0  8G 4G 8G 7G 5G 9G16G24G30
  21407680.5674    1025082.46048    798765.32947                  21407686.6264
        31.5004         28.7504
  22247839.3414   -8921429.55247  -6757556.22546                  22247846.9154
        21.5004         22.7504
  24163003.9114   13665513.48845  10620158.32945                  24163014.7314
         9.7504         10.5004
  21972321.3334  -12186278.42046  -9356866.29946                  21972328.4034
        19.2504         21.2504
  22054681.8254     340476.91947    269046.32447                  22054688.8494
        27.7504         27.2504
  25060002.3564     235229.60244    118720.46745                  25060012.8494
         6.5004          8.0004
  20767885.3024  -10451600.76048  -8135044.87347                  20767892.8764
        29.5004         28.5004
  24611900.4194   -2283356.07745  -1622012.22145                  24611908.5444
         9.2504          8.7504
 98  6 12 16 45 30.0010000  0  8G 4G 8G 7G 5G 9G16G24G30
  21414138.7634    1059019.43648    825209.72147                  21414144.8564
        32.2504         29.2504
  22246829.9814   -8926735.34947  -6761690.60146                  22246836.9814
        20.2504         23.2504
  24171481.2714   13710065.10745  10654873.87145                  24171492.0564
         9.5004         11.0004
  21967896.5214  -12209527.89046  -9374982.76046                  21967903.5914
        19.5004         21.0004
  22060571.4034     371426.46548    293162.84747                  22060577.9544
        28.7504         28.2504
  25063601.5834     254141.29245    133456.85545                  25063613.7634
         7.7504          7.5004
  20767559.4114  -10453312.56948  -8136378.73847                  20767566.8684
        29.0004         28.7504
  24604584.1774   -2321801.31745  -1651969.51945                  24604591.0604
         8.7504          8.5004
 98  6 12 16 45 45.0010000  0  8G 4G 8G 7G 5G 9G16G24G30
  21420624.9354    1093105.25248    851770.09447                  21420631.1224
        31.7504         28.7504
  22245853.9504   -8931863.88647  -6765686.86646                  22245860.9504
        21.0004         22.7504
  24179966.6144   13754652.66745  10689617.36645                  24179977.6344
        10.0004         10.5004
  21963488.1224  -12232695.68547  -9393035.56846                  21963495.0054
        20.5004         20.7504
  22066490.7164     402531.67348    317400.66247                  22066497.4894
        28.5004         28.0004
  25067231.2554     273209.54445    148315.23745                  25067243.0244
         8.5004          8.2504
  20767265.4354  -10454857.22948  -8137582.36147                  20767272.8684
        28.2504         28.2504
  24597275.1534   -2360211.81045  -1681899.72445                  24597282.0134
         9.0004          8.2504
 98  6 12 16 46  0.0010000  0  8G 4G 8G 7G 5G 9G16G24G30
  21427139.5834    1127340.75448    878447.10347                  21427145.7004
        31.2504         29.0004
  22244912.5214   -8936810.87447  -6769541.65046                  22244919.8494
        21.0004         22.7504
  24188458.4744   13799279.93045  10724391.80745                  24188468.6034
        11.0004         11.0004
  21959095.8334  -12255777.42447  -9411021.32146                  21959102.2204
        20.7504         21.2504
  22072439.6144     433793.14847    341760.22747                  22072446.6964
        27.0004         28.0004
  25070887.2864     292435.98544    163296.86345                  25070898.2004
         7.2504          7.7504
  20767003.9814  -10456230.95048  -8138652.77447                  20767011.4744
        29.5004         28.5004
  24589973.0994   -2398583.98745  -1711800.09345                  24589980.5914
         8.0004          8.7504
 98  6 12 16 46 15.0010000  0  8G 4G 8G 7G 5G 9G16G24G30
  21433683.0134    1161723.88448    905239.15147                  21433688.9424
        32.0004         28.5004
  22244005.9354   -8941576.46447  -6773255.07846                  22244013.4274
        20.0004         22.2504
  24196957.8494   13843946.10645  10759196.61745                  24196967.3454
         9.5004         11.2504
  21954720.0914  -12278772.80247  -9428939.78046                  21954726.3024
        21.7504         21.2504
  22078417.5524     465207.77947    366239.13347                  22078424.7984
        26.5004         27.7504
  25074578.5054     311819.50644    178400.94045                  25074590.8374
         7.2504          7.5004
  20766775.3174  -10457434.63348  -8139590.70247                  20766782.7044
        30.0004         28.7504
  24582679.2004   -2436918.79645  -1741671.33945                  24582685.8454
        10.0004          9.0004
 98  6 12 16 46 30.0010000  0  8G 4G 8G 7G 5G 9G16G24G30
  21440253.8174    1196254.49548    932146.11547                  21440259.6654
        32.2504         28.7504
  22243133.5674   -8946160.46447  -6776827.01946                  22243140.8844
        21.2504         22.2504
  24205464.5364   13888646.93345  10794028.38945                  24205475.5094
         9.7504         11.0004
  21950361.2004  -12301679.97647  -9446789.51546                  21950367.5634
        21.2504         21.5004
  22084424.4354     496774.11547    390836.26947                  22084431.1964
        27.5004         27.5004
  25078295.4974     331355.85444    193624.06945                  25078307.6304
         6.2504          7.2504
  20766577.7784  -10458472.11348  -8140399.11547                  20766585.2124
        29.0004         28.5004
  24575390.0364   -2475218.99145  -1771515.58545                  24575397.5174
         8.7504          8.7504
 98  6 12 16 46 45.0010000  0  9G10G 4G 8G 7G 5G 9G16G24G30
  25164837.9194     -31808.56955
         8.2504
  21446853.5134    1230937.04448    959171.47947                  21446859.3604
        31.5004         28.7504
  22242296.3494   -8950559.40147  -6780254.75146                  22242303.3604
        21.2504         22.5004
  24213977.3174   13933381.68245  10828886.59445                  24213987.5404
        10.5004         11.0004
  21946020.1064  -12324492.11247  -9464565.18446                  21946026.5874
        20.2504         21.2504
  22090460.2554     528492.93347    415552.22047                  22090466.9114
        27.0004         27.5004
  25082042.8804     351046.37444    208967.35245                  25082054.4274
         6.7504          8.7504
  20766412.6924  -10459341.02948  -8141076.18847                  20766420.2084
        30.0004         29.5004
  24568109.1534   -2513482.12845  -1801330.98545                  24568115.6694
         9.2504          9.2504
 98  6 12 16 47  0.0010000  0  9G10G 4G 8G 7G 5G 9G16G24G30
  25157855.3024     -68507.21244
         7.2504
  21453481.4664    1265767.00748    986311.70447                  21453487.6884
        30.0004         28.2504
  22241494.1144   -8954775.38547  -6783539.92846                  22241501.0564
        21.0004         22.2504
  24222495.3254   13978144.72345  10863766.86345                  24222504.5524
        11.2504         10.5004
  21941696.8334  -12347210.10346  -9482267.50146                  21941703.2434
        19.7504         20.5004
  22096524.6224     560361.37047    440384.75247                  22096531.5284
        25.2504         27.2504
  25085817.9354     370888.74344    224428.93845                  25085829.1424
         6.7504          8.2504
  20766278.8724  -10460043.95148  -8141623.89747                  20766286.1654
        31.5004         29.7504
  24560833.8254   -2551711.08445  -1831119.75445                  24560841.4704
         8.7504          9.7504
 98  6 12 16 47 15.0010000  0  9G10G 4G 8G 7G 5G 9G16G24G30
  25150873.5054    -105193.78744
         6.7504
  21460137.7864    1300746.51548   1013568.45547                  21460143.9854
        30.2504         27.7504
  22240726.9974   -8958806.53247  -6786681.07746                  22240733.6064
        21.0004         21.5004
  24231019.3884   14022939.07645  10898671.49945                  24231028.6614
        11.7504         10.2504
  21937391.5604  -12369834.11946  -9499896.59046                  21937398.1344
        19.7504         20.5004
  22102617.9894     592381.25847    465335.29947                  22102624.6224
        26.5004         26.7504
  25089624.0134     390885.78445    240011.02545                  25089635.3494
         7.7504          8.7504
  20766176.7244  -10460580.21848  -8142041.75047                  20766183.9704
        30.5004         28.5004
  24553566.1384   -2589906.58445  -1860882.43245                  24553573.2554
         8.0004          9.0004
 98  6 12 16 47 30.0010000  0  9G10G 4G 8G 7G 5G 9G16G24G30
  25143895.4354    -141866.18242
         4.7504
  21466822.5364    1335875.31048   1040941.53447                  21466828.6184
        31.0004         27.5004
  22239995.1694   -8962651.12447  -6789676.85246                  22240002.2984
        20.5004         20.7504
  24239550.8414   14067767.66146  10933602.85945                  24239559.5174
        13.5004         10.0004
  21933104.1854  -12392363.57947  -9517451.99846                  21933110.6884
        20.5004         19.7504
  22108739.9274     624552.14147    490403.50147                  22108746.3494
        27.7504         26.7504
  25093458.8884     411040.83644    255716.30945                  25093469.1464
         6.7504          8.2504
  20766106.3564  -10460950.63948  -8142330.39147                  20766113.5794
        29.2504         28.2504
  24546304.2784   -2628069.46345  -1890619.68445                  24546311.9934
         9.5004          9.2504
 98  6 12 16 47 45.0010000  0  9G10G 4G 8G 7G 5G 9G16G24G30
  25136919.9664    -178524.44442
         4.2504
  21473535.6064    1371152.22148   1068430.02947                  21473541.6184
        30.7504         28.5004
  22239299.3564   -8966307.58647  -6792526.02346                  22239306.3564
        20.5004         21.0004
  24248087.3564   14112631.00245  10968561.27745                  24248095.1884
        11.5004         10.2504
  21928835.4664  -12414796.17647  -9534931.92146                  21928842.1694
        20.0004         20.5004
  22114890.1144     656872.36248    515588.06847                  22114896.6424
        28.5004         28.2504
  25097325.6304     431355.73645    271546.11445                  25097336.1574
         7.5004          8.2504
  20766067.0674  -10461156.71948  -8142490.96147                  20766074.2904
        29.7504         29.2504
  24539047.7004   -2666198.86245  -1920330.87845                  24539055.3104
         9.0004          9.5004
 98  6 12 16 48  0.0010000  0  9G10G 4G 8G 7G 5G 9G16G24G30
  25129949.0054    -215166.81443    -24743.70755                  25129960.8454
         5.5004          5.0004
  21480277.7314    1406582.22848   1096037.83247                  21480283.8964
        30.5004         28.0004
  22238640.4034   -8969770.03147  -6795224.02246                  22238647.0714
        21.5004         20.5004
  24256631.5914   14157529.31546  11003546.95345                  24256639.2714
        12.5004          9.7504
  21924586.0524  -12437126.54546  -9552332.20246                  21924592.4034
        19.7504         20.0004
  22121069.9424     689346.37748    540892.47347                  22121076.4464
        28.5004         27.5004
  25101221.3104     451831.59243    287501.31145                  25101230.4074
         6.0004          7.7504
  20766058.9034  -10461198.02548  -8142523.13847                  20766066.0674
        30.5004         28.7504
  24531798.6614   -2704292.88045  -1950014.48845                  24531807.2674
         8.0004          9.2504
 98  6 12 16 48 15.0010000  0  9G10G 4G 8G 7G 5G 9G16G24G30
  25122978.9194    -251790.87644    -53281.86245                  25122992.5404
         6.5004          6.2504
  21487049.3024    1442168.21448   1123767.17147                  21487055.4074
        31.0004         28.2504
  22238019.2084   -8973036.68047  -6797769.46746                  22238025.4544
        21.5004         21.0004
  24265182.4584   14202462.18446  11038559.54345                  24265190.3724
        12.5004         10.5004
  21920356.9584  -12459350.95446  -9569649.91646                  21920363.2634
        19.5004         20.5004
  22127279.5054     721977.73448    566319.49147                  22127285.6464
        28.5004         27.5004
  25105148.6534     472467.99744    303581.64545                  25105158.1384
         6.7504          7.2504
  20766081.9664  -10461076.77048  -8142428.63247                  20766088.8724
        30.5004         29.2504
  24524556.8884   -2742349.51445  -1979668.93945                  24524564.3104
         8.7504          9.7504
 98  6 12 16 48 30.0010000  0  9G10G 4G 8G 7G 5G 9G16G24G30
  25116012.7714    -288396.55445    -81805.73045                  25116018.5954
         7.5004          5.7504
  21493851.0834    1477912.00648   1151619.47047                  21493857.4934
        30.0004         28.5004
  22237434.7164   -8976107.05047  -6800161.95746                  22237441.4314
        20.0004         20.7504
  24273739.3104   14247431.84545  11073600.81445                  24273748.9114
        11.7504         10.7504
  21916148.2314  -12481469.32146  -9586885.01146                  21916154.4074
        19.2504         20.5004
  22133519.1064     754768.89848    591871.03147                  22133525.2714
        28.7504         27.0004
  25109105.5284     493267.35644    319788.91745                  25109115.3644
         6.2504          7.5004
  20766136.4744  -10460791.24248  -8142206.13447                  20766143.8134
        29.7504         29.2504
  24517321.8334   -2780365.91145  -2009292.08345                  24517328.8924
         8.7504          9.7504
 98  6 12 16 48 45.0010000  0  9G10G 4G 8G 7G 5G 9G16G24G30
  25109048.9744    -324986.16144   -110317.09644                  25109052.4544
         7.2504          4.2504
  21500682.6304    1513811.73448   1179593.26747                  21500689.2634
        29.5004         28.7504
  22236887.2554   -8978983.69747  -6802403.49546                  22236893.9114
        20.5004         20.2504
  24282304.1384   14292438.63245  11108670.99945                  24282313.4234
        10.5004         10.5004
  21911958.0674  -12503486.91647  -9604041.55746                  21911964.6534
        20.5004         20.7504
  22139789.1924     787717.80748    617545.48347                  22139795.3454
        30.5004         27.5004
  25113095.1774     514227.86645    336121.81145                  25113105.3064
         7.5004          8.2504
  20766221.8964  -10460342.25148  -8141856.26947                  20766229.2354
        29.5004         28.7504
  24510095.8104   -2818343.73445  -2038885.16145                  24510103.8884
         8.2504         10.2504
 98  6 12 16 49  0.0010000  0  9G10G 4G 8G 7G 5G 9G16G24G30
  25102089.3174    -361557.57045   -138814.22845                  25102105.5054
         7.5004          6.0004
  21507543.5914    1549865.47548   1207687.09147                  21507549.8964
        30.7504         29.0004
  22236376.2004   -8981669.34447  -6804496.18746                  22236382.9154
        20.2504         21.2504
  24290876.6064   14337487.62746  11143774.11345                  24290885.7984
        12.2504         10.7504
  21907787.2164  -12525406.37647  -9621121.64746                  21907793.7674
        20.2504         20.7504
  22146089.3644     820826.51048    643344.44947                  22146095.8214
        29.5004         27.7504
  25117114.3024     535352.00444    352582.18245                  25117122.9314
         7.2504          7.5004
  20766338.9974  -10459727.49648  -8141377.23047                  20766346.3134
        31.0004         29.2504
  24502876.5754   -2856280.16045  -2068445.96645                  24502884.1964
         8.0004          9.7504
 98  6 12 16 49 15.0010000  0  9G10G 4G 8G 7G 5G 9G16G24G30
  25095132.1774    -398114.31344   -167299.91644                  25095147.4154
         7.2504          4.2504
  21514433.7164    1586073.36648   1235901.02647                  21514440.0914
        31.5004         29.0004
  22235900.6694   -8984168.59747  -6806443.65846                  22235907.3494
        20.0004         20.7504
  24299456.9664   14382580.07845  11178911.07245                  24299466.4974
        10.5004          9.7504
  21903633.3334  -12547233.70746  -9638129.94046                  21903639.8844
        19.5004         20.7504
  22152420.3104     854094.19448    669267.29247                  22152426.7554
        28.0004         27.5004
  25121164.0914     556637.68443    369168.41245                  25121175.6384
         6.0004          7.7504
  20766486.7634  -10458949.20648  -8140770.74947                  20766494.2554
        29.0004         29.0004
  24495664.8414   -2894174.23945  -2097973.75445                  24495670.7714
         7.5004          9.7504
 98  6 12 16 49 30.0010000  0  9G10G 4G 8G 7G 5G 9G16G24G30
  25088179.1464    -434651.72644   -195770.71545                  25088186.1574
         6.7504          5.0004
  21521354.8964    1622443.83048   1264241.64747                  21521361.2824
        30.5004         29.5004
  22235461.6854   -8986475.71147  -6808241.41146                  22235468.0014
        21.2504         21.7504
  24308046.7944   14427721.93645  11214086.52545                  24308056.0564
        10.5004         10.5004
  21899497.9744  -12568964.46046  -9655062.97346                  21899504.8454
        18.5004         20.7504
  22158782.0444     887524.98348    695317.24647                  22158788.3134
        28.5004         27.5004
  25125245.8494     578090.06744    385884.59145                  25125256.0484
         6.5004          7.2504
  20766667.0214  -10458002.44048  -8140033.00447                  20766674.6064
        28.7504         29.2504
  24488463.4194   -2932020.52645  -2127464.32045                  24488471.9544
         7.5004          9.2504
 98  6 12 16 49 45.0010000  0  9G10G 4G 8G 7G 5G 9G16G24G30
  25081229.3104    -471173.25043   -224228.92945                  25081238.5954
         5.7504          4.7504
  21528306.5364    1658976.56148   1292708.70547                  21528312.8994
        30.5004         29.0004
  22235059.2864   -8988588.44447  -6809887.68446                  22235065.7204
        20.7504         21.5004
  24316646.6384   14472910.14845  11249298.07145                  24316655.2784
        11.0004         10.0004
  21895381.5054  -12590596.48046  -9671919.07746                  21895388.7044
        18.7504         20.2504
  22165174.5054     921118.47748    721493.97947                  22165180.9034
        29.5004         27.0004
  25129360.5134     599709.91943    402731.22545                  25129372.7044
         5.7504          6.5004
  20766879.8884  -10456884.19748  -8139161.63847                  20766887.1694
        30.0004         29.0004
  24481270.2634   -2969817.57045  -2156916.50145                  24481278.5634
         7.5004          9.7504
 98  6 12 16 50  0.0010000  0  9G10G 4G 8G 7G 5G 9G16G24G30
  25074282.3414    -507682.40842   -252677.69345                  25074301.0484
         4.7504          4.5004
  21535288.6384    1695667.59048   1321299.11147                  21535295.0244
        30.7504         29.2504
  22234693.7394   -8990509.73946  -6811384.78146                  22234701.1494
        19.2504         22.0004
  24325252.7164   14518139.52645  11284541.67745                  24325261.5324
        10.5004          9.5004
  21891283.5994  -12612133.02446  -9688700.79046                  21891290.4194
        19.7504         20.5004
  22171597.6924     954872.06148    747795.44447                  22171604.3254
        28.2504         27.0004
  25133505.9744     621494.02443    419705.86945                  25133520.5794
         6.0004          5.5004
  20767125.0054  -10455595.76848  -8138157.65947                  20767132.3454
        30.0004         29.0004
  24474086.3564   -3007568.49944  -2186332.78845                  24474093.3804
         6.2504          9.2504
 98  6 12 16 50 15.0010000  0  9G10G 4G 8G 7G 5G 9G16G24G30
  25067338.4274    -544180.13242   -281117.48445                  25067352.7394
         4.7504          5.0004
  21542300.5914    1732514.29948   1350010.82347                  21542306.7674
        30.7504         28.7504
  22234364.2944   -8992242.14546  -6812734.72046                  22234371.7984
        19.5004         21.7504
  24333867.9974   14563410.04645  11319817.37445                  24333877.4704
        10.7504          9.0004
  21887203.0604  -12633575.26747  -9705409.01346                  21887209.5994
        20.0004         20.5004
  22178050.7084     988783.29648    774219.76447                  22178057.4704
        28.0004         27.0004
  25137683.3494     643441.74044    436808.02045                  25137696.5834
         6.2504          5.5004
  20767403.1064  -10454134.97948  -8137019.37747                  20767410.3644
        30.0004         29.2504
  24466912.1694   -3045275.14544  -2215714.55245                  24466920.5754
         7.2504          9.7504
 98  6 12 16 50 30.0010000  0  9G10G 4G 8G 7G 5G 9G16G24G30
  25060397.2394    -580664.99543   -309547.28445                  25060411.2124
         5.7504          6.0004
  21549341.1924    1769513.72948   1378841.54747                  21549347.1574
        30.2504         28.0004
  22234070.0604   -8993787.64046  -6813938.98546                  22234076.8104
        19.7504         21.2504
  24342491.5214   14608724.85445  11355127.59145                  24342500.5244
        11.0004          9.2504
  21883140.8494  -12654923.74847  -9722044.18146                  21883147.1534
        20.5004         20.2504
  22184533.7004    1022850.52947    800765.64447                  22184540.8174
        26.0004         26.5004
  25141891.9814     665555.91644    454039.87445                  25141908.2394
         6.2504          5.7504
  20767714.9664  -10452496.54148  -8135742.65247                  20767722.0364
        30.7504         29.2504
  24459745.5674   -3082934.77945  -2245059.67245                  24459753.5874
         7.7504          9.5004
 98  6 12 16 50 45.0010000  0  9G10G 4G 8G 7G 5G 9G16G24G30
  25053455.6774    -617136.45244   -337966.59745                  25053470.0134
         7.2504          6.5004
  21556410.5214    1806664.12748   1407789.90447                  21556416.6144
        29.7504         28.5004
  22233811.2244   -8995147.96646  -6814998.97046                  22233818.2594
        18.7504         21.7504
  24351122.6854   14654081.81245  11390470.63745                  24351132.2044
        11.2504         10.2504
  21879095.3724  -12676181.51247  -9738608.66846                  21879101.7124
        21.5004         21.0004
  22191045.6464    1057071.66747    827431.44647                  22191052.4424
        26.7504         27.0004
  25146130.8254     687838.63443    471402.97245                  25146140.8604
         5.7504          5.2504
  20768060.2784  -10450681.02948  -8134327.95647                  20768067.1384
        31.5004         29.7504
  24452586.7944   -3120551.31445  -2274371.22245                  24452596.0214
         8.0004         10.0004
 98  6 12 16 51  0.0010000  0  9G10G 4G 8G 7G 5G 9G16G24G30
  25046518.5444    -653588.29345   -366370.55245                  25046531.5444
         8.0004          6.5004
  21563509.1144    1843966.75948   1436856.88347                  21563515.1964
        28.7504         27.7504
  22233587.9424   -8996321.12647  -6815913.13146                  22233595.3064
        20.0004         21.7504
  24359761.5754   14699480.34345  11425846.13045                  24359771.3294
         9.7504          9.5004
  21875067.8104  -12697345.25347  -9755099.87746                  21875074.1854
        21.2504         21.2504
  22197587.5214    1091450.43747    854220.08447                  22197594.3644
        27.0004         26.5004
  25150404.2004     710292.35243    488899.35745                  25150417.1654
         5.7504          5.2504
  20768440.0054  -10448686.82048  -8132774.01447                  20768446.9234
        32.0004         29.5004
  24445436.8104   -3158124.64045  -2303649.06945                  24445444.9234
         9.0004         10.0004
 98  6 12 16 51 15.0010000  0  9G10G 4G 8G 7G 5G 9G16G24G30
  25039585.8334    -690019.68345   -394758.61645                  25039596.6424
         9.0004          6.7504
  21570636.4744    1881421.09948   1466042.06547                  21570642.6854
        29.7504         27.7504
  22233399.7394   -8997308.11346  -6816682.19846                  22233406.6814
        18.7504         19.7504
  24368407.9194   14744917.95145  11461251.97945                  24368419.3134
         9.7504          9.2504
  21871059.5754  -12718411.69047  -9771515.27146                  21871066.2204
        21.7504         21.0004
  22204158.8104    1125983.96947    881129.31347                  22204165.9154
        26.5004         26.5004
  25154709.8644     732918.91443    506530.46445                  25154722.3724
         5.5004          5.7504
  20768853.5364  -10446513.86148  -8131080.80047                  20768860.3684
        31.2504         29.2504
  24438294.7944   -3195657.83145  -2332895.67045                  24438303.6464
         8.7504         10.0004
 98  6 12 16 51 30.0010000  0  9G10G 4G 8G 7G 5G 9G16G24G30
  25032656.1614    -726427.57045   -423128.34945                  25032668.0244
         8.0004          6.7504
  21577793.1924    1919030.02548   1495347.71447                  21577799.2744
        29.2504         27.5004
  22233248.6464   -8998103.98046  -6817302.34846                  22233255.7284
        19.7504         20.5004
  24377061.5834   14790393.31145  11496687.32745                  24377072.4034
        10.2504          9.0004
  21867070.2164  -12739374.70847  -9787850.08446                  21867076.9664
        21.5004         21.7504
  22210760.3174    1160672.64047    908159.42447                  22210767.4114
        26.0004         26.2504
  25159049.4894     755722.03942    524299.12645                  25159066.6144
         4.2504          4.7504
  20769301.3334  -10444159.47448  -8129246.19947                  20769308.4384
        31.2504         29.5004
  24431160.1064   -3233150.17545  -2362110.43945                  24431168.4194
         9.2504          9.2504
 98  6 12 16 51 45.0010000  0  9G10G 4G 8G 7G 5G 9G16G24G30
  25025730.8024    -762817.87045   -451484.37845                  25025742.9584
         7.5004          7.2504
  21584977.5834    1956784.23848   1524766.58347                  21584983.6654
        30.2504         27.5004
  22233132.8564   -8998713.57147  -6817777.36846                  22233139.9384
        22.0004         20.2504
  24385720.7944   14835897.85745  11532145.39545                  24385731.4154
         9.7504          9.7504
  21863100.3254  -12760236.43747  -9804105.95146                  21863107.1464
        22.2504         21.5004
  22217389.6384    1195509.55247    935305.05747                  22217396.8134
        26.7504         26.2504
  25163421.2084     778697.74043    542202.29945                  25163434.6304
         5.2504          4.5004
  20769782.8254  -10441629.86848  -8127275.06847                  20769789.5634
        31.7504         29.0004
  24424032.1384   -3270607.63245  -2391298.03245                  24424039.7474
         8.0004          9.7504
 98  6 12 16 52  0.0010000  0  9G10G 4G 8G 7G 5G 9G16G24G30
  25018809.9424    -799189.92444   -479826.22545                  25018819.4624
         6.5004          6.7504
  21592189.0364    1994681.07948   1554296.58747                  21592195.1654
        30.5004         28.2504
  22233051.7244   -8999139.18146  -6818109.00046                  22233058.2164
        19.7504         20.2504
  24394385.1464   14881432.69345  11567627.02245                  24394395.1924
         9.0004          9.0004
  21859150.1224  -12780995.33347  -9820281.68846                  21859156.2984
        22.7504         22.0004
  22224047.1384    1230494.42548    962565.98047                  22224054.0674
        28.0004         26.5004
  25167825.2394     801845.49842    560239.25943                  25167830.4074
         4.5004          2.5004
  20770297.4274  -10438924.85648  -8125167.25347                  20770304.3454
        30.7504         29.2504
  24416911.1774   -3308028.93945  -2420457.40645                  24416918.0094
         8.7504         10.2504
 98  6 12 16 52 15.0010000  0  9G10G 4G 8G 7G 5G 9G16G24G30
  25011892.4274    -835541.86142   -508152.35045                  25011903.7744
         4.7504          6.5004
  21599428.2394    2032722.91948   1583939.56647                  21599434.3564
        30.0004         28.0004
  22233005.7634   -8999381.06646  -6818297.50046                  22233011.7744
        19.7504         19.0004
  24403057.3804   14927003.06345  11603136.37845                  24403065.9274
         8.0004          9.0004
  21855219.4744  -12801650.19347  -9836376.37646                  21855225.5564
        21.2504         21.5004
  22230732.7084    1265628.96847    989943.52447                  22230739.4354
        26.5004         26.0004
  25172263.5994     825165.85442
         4.0004
  20770845.2474  -10436045.17248  -8122923.33547                  20770852.5284
        30.5004         29.2504
  24409797.5914   -3345409.14645  -2449584.86045                  24409806.1384
         9.7504         10.2504
 98  6 12 16 52 30.0010000  0  9G10G 4G 8G 7G 5G 9G16G24G30
  25004979.9584    -871875.38242   -536464.21545                  25004993.5674
         4.5004          6.7504
  21606694.5834    2070907.96448   1613694.13847                  21606700.9584
        29.5004         28.2504
  22232994.2394   -8999441.17947  -6818344.33946                  22233000.9784
        20.0004         20.5004
  24411736.7394   14972609.54045  11638673.82745                  24411747.5244
         9.0004         10.0004
  21851308.1384  -12822202.86747  -9852391.43946                  21851314.2674
        21.7504         22.0004
  22237446.9194    1300911.49547   1017436.38047                  22237453.6104
        25.5004         26.0004
  25176733.3254     848656.62542
         4.0004
  20771425.8564  -10432995.39148  -8120546.88047                  20771433.0324
        30.0004         29.2504
  24402693.0524   -3382747.70645  -2478679.77445                  24402699.5444
        10.0004         10.2504
 98  6 12 16 52 45.0010000  0  9G10G 4G 8G 7G 5G 9G16G24G30
  24998069.5674    -908187.10244   -564759.06745                  24998083.0954
         6.5004          8.2504
  21613989.2864    2109241.15548   1643564.14647                  21613995.5794
        29.5004         28.5004
  22233018.2164   -8999315.90046  -6818246.69846                  22233025.1344
        19.7504         21.0004
  24420421.9664   15018252.56045  11674239.82445                  24420431.7784
        10.5004         10.5004
  21847417.1464  -12842652.22747  -9868325.99746                  21847423.5674
        22.7504         21.7504
  22244189.9424    1336345.10347   1045046.97047                  22244196.7394
        26.2504         26.2504
  25181237.4114     872321.80542
         4.7504
  20772038.3174  -10429777.00348  -8118039.03247                  20772045.5634
        31.2504         29.5004
  24395595.8564   -3420043.52345  -2507741.40145                  24395602.5134
        10.5004         10.0004
 98  6 12 16 53  0.0020000  0  9G10G 4G 8G 7G 5G 9G16G24G30
  24991162.9084    -944480.76645   -593039.79245                  24991175.3574
         8.0004          8.7504
  21621312.2294    2147724.08148   1673550.84847                  21621318.6154
        29.0004         28.2504
  22233077.5494   -8999003.98447  -6818003.65946                  22233083.7254
        21.0004         21.0004
  24429115.5184   15063932.93045  11709834.86445                  24429125.5294
         9.0004         10.7504
  21843545.1974  -12862998.70247  -9884180.37846                  21843551.5844
        22.7504         22.2504
  22250961.3934    1371931.40747   1072776.53847                  22250968.0614
        27.7504         27.0004
  25185773.6584     896161.75443
         5.7504
  20772682.2134  -10426391.90148  -8115401.29047                  20772689.4824
        30.5004         29.7504
  24388506.0494   -3457298.92745  -2536771.53645                  24388513.0144
        10.2504         10.7504
 98  6 12 16 53 15.0020000  0  9G10G 4G 8G 7G 5G 9G16G24G30
  24984260.5494    -980752.17845   -621303.17245                  24984272.5184
         9.7504          9.5004
  21628662.7604    2186351.70648   1703650.28647                  21628669.0294
        28.5004         28.5004
  22233172.8464   -8998503.57647  -6817613.73646                  22233179.2564
        21.2504         21.7504
  24437814.7754   15109648.31945  11745457.16245                  24437824.3544
        11.5004         11.2504
  21839694.6274  -12883234.52347  -9899948.53946                  21839701.3074
        22.5004         23.0004
  22257761.1434    1407663.92947   1100620.03247                  22257767.9164
        27.2504         27.0004
  25190343.6974     920172.16243
         5.7504
  20773358.7914  -10422837.32048  -8112631.47947                  20773365.9434
        30.7504         29.2504
  24381426.4794   -3494501.55045  -2565760.52945                  24381433.5964
        11.0004         10.7504
 98  6 12 16 53 30.0020000  0  9G10G 4G 8G 7G 5G 9G16G24G30
  24977360.9164   -1017008.81745   -649555.02245                  24977373.1664
         8.7504          8.5004
  21636041.2134    2225125.61048   1733863.71247                  21636047.4004
        28.2504         27.7504
  22233303.8144   -8997815.02647  -6817077.19546                  22233310.7564
        21.0004         21.5004
  24446520.7054   15155400.71646  11781108.38346                  24446530.8814
        12.2504         12.5004
  21835864.4944  -12903363.61547  -9915633.53846                  21835871.3144
        23.7504         23.0004
  22264588.1664    1443541.90047   1128576.87247                  22264594.8574
        24.5004         26.5004
  25194945.0024     944349.80244     16333.74455                  25194955.9394
         6.5004          6.7504
  20774066.7524  -10419116.64148  -8109732.23747                  20774073.7524
        30.5004         29.2504
  24374356.7914   -3531652.36645  -2594709.22645                  24374363.6744
        11.0004         10.7504
 98  6 12 16 53 45.0020000  0  9G10G 4G 8G 7G 5G 9G16G24G30
  24970463.2754   -1053249.69945   -677794.65645                  24970478.5374
         7.5004          8.0004
  21643448.2684    2264048.96748   1764193.59547                  21643454.2564
        28.7504         27.5004
  22233470.7134   -8996936.16347  -6816392.38746                  22233477.1704
        21.2504         21.0004
  24455234.8854   15201192.75545  11816790.45445                  24455246.3614
        10.0004         11.0004
  21832053.6044  -12923386.34547  -9931235.63946                  21832060.1784
        23.5004         22.7504
  22271443.8464    1479567.72847   1156648.92946                  22271450.6314
        24.5004         24.7504
  25199577.1194     968692.60445     35302.21445                  25199589.2174
         7.5004          8.0004
  20774806.3934  -10415230.54548  -8106704.10347                  20774813.0844
        31.5004         28.7504
  24367298.5574   -3568746.86345  -2623613.94645                  24367306.3304
        10.7504         10.5004
 98  6 12 16 54  0.0020000  0  9G10G 4G 8G 7G 5G 9G16G24G30
  24963570.3774   -1089471.68943   -706019.50345                  24963584.4904
         6.0004          7.7504
  21650883.7524    2303123.69248   1794641.41547                  21650890.1744
        28.7504         27.5004
  22233674.7364   -8995864.06347  -6815556.98046                  22233681.1234
        21.0004         20.2504
  24463956.8224   15247029.80045  11852507.58245                  24463967.7254
        10.0004         10.5004
  21828263.9004  -12943303.12547  -9946755.19946                  21828270.3114
        24.2504         22.7504
  22278328.4554    1515744.85147   1184838.85946                  22278334.9944
        26.7504         25.0004
  25204240.7914     993201.67845     54400.16945                  25204249.9714
         7.7504          7.7504
  20775578.2054  -10411174.45448  -8103543.50747                  20775585.0494
        30.5004         28.5004
  24360250.2834   -3605783.63546  -2652473.72645                  24360258.5144
        12.5004         11.2504
 98  6 12 16 54 15.0020000  0  9G10G 4G 8G 7G 5G 9G16G24G30
  24956682.4794   -1125675.65343   -734230.32045                  24956697.0724
         6.0004          7.7504
  21658347.8614    2342347.01748   1825205.03347                  21658354.1894
        28.2504         27.0004
  22233915.6504   -8994599.35047  -6814571.49446                  22233922.9554
        20.5004         21.2504
  24472688.0804   15292911.41245  11888259.48745                  24472697.8814
        11.5004         10.7504
  21824493.3304  -12963117.36647  -9962194.86146                  21824499.3894
        23.0004         22.0004
  22285241.0414    1552071.02747   1213144.96546                  22285247.3814
        27.5004         25.2504
  25208935.2294    1017871.73145     73623.64045                  25208946.4364
         8.7504          7.2504
  20776381.6894  -10406951.20348  -8100252.65847                  20776388.7604
        30.7504         28.0004
  24353212.7524   -3642768.16446  -2681292.82545                  24353220.3504
        12.7504         11.0004
 98  6 12 16 54 30.0020000  0  9G10G 4G 8G 7G 5G 9G16G24G30
  24949797.7134   -1161857.96144   -762424.35445                  24949811.4514
         7.0004          7.7504
  21665840.5254    2381722.54048   1855887.25147                  21665846.5844
        28.7504         27.2504
  22234193.7684   -8993139.28647  -6813433.76246                  22234200.8034
        21.5004         20.0004
  24481428.2524   15338838.50645  11924046.83645                  24481439.4124
        10.5004         11.0004
  21820742.3854  -12982829.31247  -9977554.81146                  21820748.3854
        23.7504         22.0004
  22292182.7444    1588548.68247   1241569.08447                  22292189.7684
        25.0004         26.7504
  25213659.6744    1042703.32945     92972.93945                  25213669.8614
         8.0004          7.2504
  20777217.4474  -10402559.90948  -8096830.85347                  20777224.4944
        32.0004         28.7504
  24346184.1434   -3679698.70845  -2710069.82645                  24346191.9514
        11.0004         11.2504
 98  6 12 16 54 45.0020000  0  9G10G 4G 8G 7G 5G 9G16G24G30
  24942917.0494   -1198016.67544   -790599.90845                  24942929.1704
         7.2504          7.2504
  21673362.3774    2421249.83448   1886687.73947                  21673368.3544
        29.7504         27.2504
  22234508.5254   -8991483.95347  -6812143.89646                  22234515.2294
        22.0004         22.0004
  24490175.1114   15384806.81845  11959866.23245                  24490185.9434
        11.0004         11.2504
  21817010.5494  -13002438.36147  -9992834.58146                  21817016.6074
        23.2504         22.2504
  22299152.7684    1625177.12847   1270110.71447                  22299159.7914
        25.0004         26.2504
  25218416.6114    1067697.06045    112448.56645                  25218428.5804
         8.0004          8.2504
  20778085.3934  -10397999.04148  -8093276.92447                  20778091.9674
        31.2504         28.5004
  24339166.5024   -3716578.43146  -2738807.20445                  24339173.5724
        12.2504         10.0004
 98  6 12 16 55  0.0020000  0  9G10G 4G 8G 7G 5G 9G16G24G30
  24936039.4474   -1234155.32245   -818759.83845                  24936050.3734
         8.0004          7.0004
  21680912.3464    2460924.14648   1917602.77947                  21680918.3464
        29.5004         27.5004
  22234860.0024   -8989638.00047  -6810705.49146                  22234866.7754
        21.5004         20.7504
  24498929.1744   15430811.14245  11995713.77445                  24498938.1314
         9.5004         10.5004
  21813298.3144  -13021947.47347 -10008036.49446                  21813304.5144
        24.2504         23.2504
  22306150.9474    1661952.93747   1298767.16347                  22306158.2524
        25.7504         27.5004
  25223202.8384    1092849.18945    132047.68845                  25223214.4434
         9.2504          7.7504
  20778985.2684  -10393269.21248  -8089591.33047                  20778991.5964
        31.5004         28.0004
  24332157.7524   -3753410.34246  -2767507.38945                  24332163.9634
        12.0004         10.5004
 98  6 12 16 55 15.0020000  0  9G10G 4G 8G 7G 5G 9G16G24G30
  24929165.9944   -1270270.37745   -846901.32045                  24929179.1004
         9.2504          7.2504
  21688490.3934    2500747.13348   1948633.67747                  21688496.5574
        29.7504         27.5004
  22235247.5414   -8987600.82147  -6809118.06946                  22235254.0684
        22.7504         21.0004
  24507691.4004   15476855.20145  12031592.21045                  24507700.1114
         9.2504         10.2504
  21809605.3614  -13041353.65047 -10023158.17246                  21809611.8894
        25.0004         23.5004
  22313177.5254    1698878.89247   1327540.60247                  22313184.6664
        27.2504         27.7504
  25228019.0644    1118156.92545    151768.00845                  25228027.9284
         9.7504          8.5004
  20779918.0724  -10388368.27248  -8085772.40647                  20779924.3654
        31.7504         28.2504
  24325158.1894   -3790191.71445  -2796168.14145                  24325164.6114
        11.0004         10.2504
 98  6 12 16 55 30.0020000  0  9G10G 4G 8G 7G 5G 9G16G24G30
  24922298.2914   -1306364.76245   -875026.79245                  24922309.3934
        10.2504          7.2504
  21696096.7524    2540718.30848   1979780.03447                  21696102.8694
        28.7504         27.2504
  22235670.9794   -8985376.20847  -6807384.59246                  22235677.0614
        22.0004         19.7504
  24516461.1584   15522937.91045  12067500.77645                  24516471.8964
         8.5004          9.5004
  21805931.2684  -13060662.20347 -10038203.78846                  21805937.7954
        24.0004         23.7504
  22320233.2684    1735954.69947   1356430.82647                  22320240.0884
        27.5004         27.5004
  25232863.4944    1143616.77245    171606.83145                  25232872.4754
         8.7504          8.0004
  20780882.2754  -10383300.96948  -8081823.85447                  20780888.6974
        32.0004         28.5004
  24318167.2134   -3826928.00645  -2824793.75145                  24318174.8814
        11.2504         10.7504
 98  6 12 16 55 45.0020000  0  9G10G 4G 8G 7G 5G 9G16G24G30
  24915433.8934   -1342434.01945   -903132.70245                  24915448.1934
         9.2504          7.5004
  21703731.0574    2580836.95948   2011041.31947                  21703736.9514
        29.2504         27.2504
  22236130.1044   -8982964.32247  -6805505.17946                  22236136.6894
        21.0004         20.0004
  24525235.3694   15569056.04345  12103436.97545                  24525245.1704
         8.7504         10.2504
  21802274.6354  -13079877.13947 -10053176.45446                  21802281.0684
        23.5004         24.2504
  22327317.5024    1773183.53947   1385440.29247                  22327324.2754
        26.5004         27.5004
  25237737.7914    1169230.14545    191565.30845                  25237747.8964
         8.0004          8.0004
  20781877.9864  -10378068.39648  -8077746.51047                  20781884.5614
        32.0004         28.7504
  24311185.0104   -3863623.15546  -2853387.37945                  24311192.3384
        12.2504         10.2504
 98  6 12 16 56  0.0020000  0  9G10G 4G 8G 7G 5G 9G16G24G30
  24908574.2294   -1378478.67145   -931219.35645                  24908588.4594
         7.5004          8.0004
  21711392.5574    2621097.88648   2042413.46247                  21711398.4044
        30.2504         27.5004
  22236624.2604   -8980366.40847  -6803480.83446                  22236631.1784
        22.0004         20.5004
  24534017.9634   15615206.00245  12139397.90645                  24534026.6504
         8.2504          9.0004
  21798636.4084  -13098997.01047 -10068075.04746                  21798642.9364
        24.5004         24.2504
  22334430.8224    1810563.68547   1414567.66147                  22334437.5024
        27.7504         28.2504
  25242640.6824    1194998.74344    211644.69345                  25242654.1394
         7.0004          8.5004
  20782904.9084  -10372672.11648  -8073541.60347                  20782911.2254
        31.7504         28.2504
  24304209.2524   -3900279.93545  -2881951.06845                  24304217.2014
        11.2504         10.0004
 98  6 12 16 56 15.0020000  0  9G10G 4G 8G 7G 5G 9G16G24G30
  24901719.8384   -1414499.54043   -959287.54245                  24901734.4434
         6.0004          7.0004
  21719079.7754    2661496.28548   2073892.72847                  21719085.6464
        29.7504         27.5004
  22237153.8854   -8977583.17747  -6801312.10246                  22237160.6114
        22.5004         20.5004
  24542806.9324   15661383.78145  12175380.56745                  24542814.7754
         9.7504          9.7504
  21795015.6434  -13118022.94847 -10082900.45046                  21795022.2174
        24.7504         24.2504
  22341572.3544    1848092.43148   1443810.82247                  22341579.0924
        28.0004         28.2504
  25247574.1194    1220921.76543    231844.51145                  25247583.9434
         6.0004          7.0004
  20783962.2364  -10367115.40648  -8069211.68647                  20783968.6114
        31.5004         28.0004
  24297240.5254   -3936901.04645  -2910486.93645                  24297248.6394
        10.0004          9.7504
 98  6 12 16 56 30.0020000  0  9G10G 4G 8G 7G 5G 9G16G24G30
  24894869.6664   -1450498.77344   -987338.78745                  24894883.1234
         6.5004          6.5004
  21726793.8544    2702033.50848   2105480.17547                  21726800.2644
        28.7504         27.5004
  22237718.3144   -8974616.89947  -6799000.73346                  22237725.2214
        23.5004         21.2504
  24551597.9084   15707586.66945  12211382.76445                  24551607.2524
         9.5004         10.5004
  21791413.1824  -13136954.75647 -10097652.47846                  21791419.9434
        24.7504         24.7504
  22348741.8144    1885767.94547   1473168.33747                  22348748.7914
        27.5004         28.2504
  25252535.7214    1246998.42045    252164.00445                  25252548.5104
         7.5004          7.5004
  20785049.6434  -10361401.63848  -8064759.39447                  20785056.1934
        31.5004         28.2504
  24290278.7444   -3973481.89945  -2938991.42645                  24290287.2324
        11.2504         10.0004
 98  6 12 16 56 45.0020000  0  9G10G 4G 8G 7G 5G 9G16G24G30
  24888024.2684   -1486472.47643  -1015370.24345                  24888036.9514
         5.7504          6.2504
  21734534.8074    2742712.81948   2137178.33347                  21734541.3224
        28.2504         27.7504
  22238317.8614   -8971466.46047  -6796545.79546                  22238324.9204
        23.7504         22.0004
  24560396.1504   15753814.77245  12247404.56245                  24560405.6584
         9.2504          9.7504
  21787829.0334  -13155788.96347 -10112328.48546                  21787835.6434
        24.5004         24.7504
  22355939.1434    1923589.16347   1502639.40547                  22355946.1314
        26.2504         27.5004
  25257528.3774    1273234.64645    272607.81945                  25257534.5764
         7.7504          6.2504
  20786167.3464  -10355528.07648  -8060182.58547                  20786174.0614
        31.7504         28.2504
  24283325.8774   -4010018.75945  -2967461.69845                  24283333.1464
        11.0004         10.5004
 98  6 12 16 57  0.0020000  0  9G10G 4G 8G 7G 5G 9G16G24G30
  24881182.9084   -1522422.34344  -1043383.09245                  24881193.8814
         7.2504          6.0004
  21742302.2294    2783531.61248   2168985.17347                  21742308.3114
        29.5004         27.5004
  22238952.5724   -8968131.75647  -6793947.32946                  22238959.6894
        22.0004         20.5004
  24569196.0334   15800067.92345  12283445.95245                  24569206.3854
         8.2504         10.0004
  21784263.7754  -13174525.04147 -10126928.01846                  21784270.0454
        25.2504         25.0004
  22363163.2754    1961552.78347   1532221.42647                  22363170.4284
        27.0004         27.2504
  25262552.4554    1299630.22045    293175.83045                  25262560.1464
         7.7504          7.7504
  20787315.3694  -10349494.72148  -8055481.25747                  20787322.0964
        30.5004         27.7504
  24276381.0184   -4046514.83045  -2995900.13245                  24276388.8034
         9.5004          9.7504
 98  6 12 16 57 15.0020000  0  9G10G 4G 8G 7G 5G 9G16G24G30
  24874344.7364   -1558353.62744  -1071381.34745                  24874357.8074
         6.7504          6.7504
  21750096.1584    2824486.92748   2200898.39047                  21750102.4754
        29.5004         27.7504
  22239621.2214   -8964616.72347  -6791208.33646                  22239628.8424
        22.0004         20.2504
  24578002.7134   15846343.29145  12319504.66545                  24578011.8694
         9.2504         10.0004
  21780716.0334  -13193169.38847 -10141456.07446                  21780722.5374
        25.2504         25.2504
  22370413.5184    1999653.96847   1561910.64347                  22370420.5644
        26.7504         27.2504
  25267604.0184    1326176.54645    313861.31045                  25267613.9364
         8.0004          6.0004
  20788492.5334  -10343308.36648  -8050660.70747                  20788499.2604
        32.0004         28.0004
  24269442.3384   -4082975.93645  -3024311.32445                  24269451.5294
        10.0004          9.7504
 98  6 12 16 57 30.0020000  0  9G10G 4G 8G 7G 5G 9G16G24G30
  24867512.0724   -1594264.26645  -1099363.67745                  24867521.4284
         7.5004          6.7504
  21757916.2684    2865581.99148   2232920.51347                  21757923.1004
        28.7504         28.0004
  22240325.3304   -8960916.47047  -6788324.99746                  22240332.6234
        23.5004         21.0004
  24586813.9244   15892645.52645  12355584.28145                  24586823.8544
         9.7504         10.5004
  21777186.0724  -13211719.26947 -10155910.51946                  21777192.5064
        26.2504         25.5004
  22377690.4944    2037893.65747   1591707.78847                  22377697.2794
        27.2504         27.7504
  25272684.0644    1352878.93945    334668.40645                  25272693.3614
         7.5004          6.2504
  20789699.5254  -10336966.49148  -8045718.98647                  20789706.1824
        32.2504         28.0004
  24262511.1894   -4119399.81245  -3052693.54545                  24262519.9364
        10.5004         10.2504
 98  6 12 16 57 45.0020000  0  9G10G 4G 8G 7G 5G 9G16G24G30
  24860681.5644   -1630153.08143  -1127328.91745                  24860694.1074
         6.0004          5.7504
  21765762.5884    2906814.49948   2265049.73746                  21765769.5064
        30.0004         25.5004
  22241065.1434   -8957029.84847  -6785296.47746                  22241071.6934
        25.2504         20.2504
  24595630.1894   15938971.93745  12391682.75245                  24595640.9394
         9.7504          9.5004
  21773673.9864  -13230174.87547 -10170291.49346                  21773680.7014
        26.0004         23.0004
  22384993.3224    2076269.58047   1621611.07146                  22384999.9904
        26.0004         24.5004
  25277796.3934    1379740.64444    355599.59345                  25277807.4944
         6.7504          6.2504
  20790936.4084  -10330466.29448  -8040653.88346                  20790943.3964
        31.2504         25.2504
  24255587.6354   -4155784.91845  -3081045.54645                  24255596.8264
        10.0004          9.5004
 98  6 12 16 58  0.0020000  0  9G10G 4G 8G 7G 5G 9G16G24G30
  24853856.1114   -1666026.40544  -1155282.10845                  24853869.5684
         6.5004          7.2504
  21773633.6664    2948178.13948   2297281.13547                  21773640.0884
        29.0004         27.2504
  22241839.2834   -8952961.64347  -6782126.43446                  22241845.7404
        25.7504         23.2504
  24604449.6434   15985318.73945  12427797.11945                  24604459.7714
        10.5004          9.5004
  21770179.5024  -13248537.56947 -10184600.07846                  21770186.0534
        26.0004         25.2504
  22392320.1894    2114774.45547   1651614.85347                  22392327.0724
        25.0004         26.0004
  25282937.2134    1406756.12245    376650.60345                  25282948.0924
         8.5004          7.2504
  20792202.6044  -10323810.62448  -8035467.63247                  20792209.5214
        30.7504         27.5004
  24248670.6974   -4192134.31845  -3109369.66245                  24248678.9984
         9.7504         10.0004
 98  6 12 16 58 15.0020000  0  9G10G 4G 8G 7G 5G 9G16G24G30
  24847033.6354   -1701884.74444  -1183223.62345                  24847043.2714
         6.5004          7.5004
  21781530.3074    2989675.03148   2329616.37247                  21781536.6354
        29.2504         27.2504
  22242648.1744   -8948710.28647  -6778813.67946                  22242654.3734
        24.2504         20.5004
  24613274.1974   16031693.24645  12463933.07045                  24613285.0644
         9.5004         10.2504
  21766703.4554  -13266804.26047 -10198833.84047                  21766710.1464
        26.2504         26.2504
  22399672.0724    2153408.46747   1681719.26547                  22399679.3774
        25.5004         27.0004
  25288106.7994    1433926.08645    397822.07545                  25288116.7174
         7.7504          7.2504
  20793499.7604  -10316994.85048  -8030156.63547                  20793506.3574
        31.5004         28.2504
  24241760.3384   -4228444.33545  -3137663.13945                  24241768.1584
         9.2504         10.2504
 98  6 12 16 58 30.0020000  0  9G10G 4G 8G 7G 5G 9G16G24G30
  24840211.2364   -1737728.79344  -1211153.93345                  24840221.6234
         6.2504          6.0004
  21789452.5964    3031306.36848   2362056.36147                  21789459.3464
        29.7504         27.5004
  22243491.3614   -8944279.87547  -6775361.41946                  22243497.7014
        25.5004         22.2504
  24622105.2214   16078097.74645  12500092.36545                  24622116.5804
        11.0004         10.2504
  21763245.2134  -13284978.23847 -10212995.37747                  21763251.8694
        25.7504         26.0004
  22407047.9864    2192169.66547   1711922.76547                  22407055.4674
        24.5004         26.2504
  25293306.1044    1461247.22445    419111.29645                  25293318.6824
         8.2504          7.2504
  20794827.6744  -10310017.24948  -8024719.54047                  20794834.4124
        31.7504         28.0004
  24234858.5574   -4264716.60245  -3165927.21345                  24234867.3384
         9.7504         10.5004
 98  6 12 16 58 45.0020000  0  9G10G 4G 8G 7G 5G 9G16G24G30
  24833393.8074   -1773553.74144  -1239069.42845                  24833408.6114
         6.2504          8.2504
  21797401.1114    3073075.79348   2394603.95847                  21797407.7444
        29.5004         27.0004
  22244369.0494   -8939666.98447  -6771766.97946                  22244375.6004
        23.7504         23.0004
  24630942.1354   16124538.82545  12536280.18745                  24630951.9824
         9.5004         10.2504
  21759805.0184  -13303054.49247 -10227080.76147                  21759811.3934
        26.7504         25.7504
  22414449.1894    2231062.49447   1742228.84747                  22414456.3304
        25.5004         25.7504
  25298535.0964    1488723.53845    440521.43145                  25298543.2914
         8.7504          6.7504
  20796187.1114  -10302871.70248  -8019151.57047                  20796193.9324
        31.0004         27.5004
  24227964.1974   -4300948.15345  -3194159.52445                  24227972.5334
        11.5004         10.0004
 98  6 12 16 59  0.0020000  0  9G10G 4G 8G 7G 5G 9G16G24G30
  24826581.4944   -1809358.96545  -1266969.53145                  24826593.7214
         8.7504          7.5004
  21805375.0334    3114978.59148   2427255.48547                  21805381.2564
        29.5004         27.0004
  22245281.9554   -8934870.38647  -6768029.37546                  22245288.4824
        25.0004         23.7504
  24639786.4474   16171018.40145  12572498.00545                  24639795.1934
        11.0004         10.2504
  21756384.4714  -13321031.96247 -10241089.16247                  21756390.8574
        26.7504         25.7504
  22421875.2524    2270087.39147   1772637.84746                  22421882.4394
        25.2504         25.2504
  25303791.6584    1516353.28345    462051.03545                  25303802.9244
         9.5004          8.2504
  20797579.2994  -10295557.40448  -8013452.11547                  20797586.2644
        31.0004         27.5004
  24221076.4164   -4337141.62945  -3222362.20745                  24221084.8694
        11.2504         10.7504
 98  6 12 16 59 15.0020000  0  9G10G 4G 8G 7G 5G 9G16G24G30
  24819769.3694   -1845151.19144  -1294859.46645                  24819779.2524
         7.2504          7.7504
  21813372.8544    3157008.69148   2460006.21847                  21813378.7954
        29.7504         26.5004
  22246228.7294   -8929893.71547  -6764151.42746                  22246235.2444
        25.0004         24.0004
  24648638.3384   16217533.89045  12608743.82045                  24648648.8774
        10.0004         10.2504
  21752981.2214  -13338915.74247 -10255024.57446                  21752987.2214
        27.2504         25.5004
  22429326.4944    2309243.29747   1803148.92546                  22429333.4244
        25.5004         25.0004
  25309078.3694    1544129.90446    483695.21145                  25309090.5374
        12.7504          8.7504
  20799002.8464  -10288077.30048  -8007623.45247                  20799009.8934
        31.0004         27.5004
  24214195.7444   -4373299.43645  -3250537.04945                  24214204.1504
         9.2504         10.5004
 98  6 12 16 59 30.0020000  0  9G10G 4G 8G 7G 5G 9G16G24G30
  24812961.0104   -1880935.29245  -1322743.17745                  24812970.9284
         8.5004          8.0004
  21821394.4004    3199161.91548   2492852.87447                  21821400.4124
        30.0004         26.5004
  22247209.8224   -8924739.58547  -6760135.20846                  22247216.4794
        25.2504         24.0004
  24657496.3934   16264081.19645  12645014.40345                  24657505.5494
        11.7504         10.0004
  21749595.1584  -13356709.29947 -10268889.66347                  21749601.4754
        27.7504         26.0004
  22436801.7834    2348526.98947   1833759.57646                  22436808.5104
        24.5004         24.2504
  25314391.8224    1572052.19645    505452.83645                  25314404.2254
        11.5004          9.2504
  20800456.8074  -10280435.05748  -8001668.45647                  20800463.6274
        31.5004         27.7504
  24207321.1434   -4409421.98445  -3278684.41445                  24207328.4004
         9.7504         10.7504
 98  6 12 16 59 45.0020000  0  9G10G 4G 8G 7G 5G 9G16G24G30
  24806152.3224   -1916707.76745  -1350617.70945                  24806163.2014
         8.2504          7.5004
  21829439.1434    3241436.49248   2525794.09547                  21829445.4594
        29.7504         27.2504
  22248224.0804   -8919407.39047  -6755980.28646                  22248230.4204
        26.2504         24.2504
  24666360.2364   16310660.76045  12681310.13745                  24666369.2294
        11.7504         10.2504
  21746227.0804  -13374407.95247 -10282680.81447                  21746233.4554
        27.2504         26.2504
  22444301.7294    2387939.59147   1864470.65046                  22444308.5614
        24.0004         24.7504
  25319732.9244    1600123.38045    527326.46245                  25319743.6394
        10.5004          8.5004
  20801942.6044  -10272628.00648  -7995585.03247                  20801949.3544
        31.2504         27.7504
  24200454.8774   -4445504.38145  -3306800.53045                  24200461.8424
        11.0004         10.0004
 98  6 12 17  0  0.0020000  0  9G10G 4G 8G 7G 5G 9G16G24G30
  24799347.6354   -1952470.28845  -1378484.54445                  24799359.4634
         8.2504          7.7504
  21837506.2604    3283829.94148   2558827.94247                  21837512.6464
        30.0004         26.7504
  22249271.7994   -8913901.91647  -6751690.31046                  22249278.3034
        25.5004         23.7504
  24675229.7754   16357269.57045  12717628.64045                  24675239.4474
        11.7504         10.2504
  21742877.2214  -13392012.19847 -10296398.40047                  21742883.6894
        27.0004         26.0004
  22451825.6974    2427479.37447   1895280.86146                  22451832.8854
        24.0004         24.2504
  25325102.7754    1628338.80145    549312.55345                  25325112.5184
        10.5004          7.7504
  20803459.1274  -10264658.40048  -7989374.94247                  20803466.0804
        31.2504         27.5004
  24193595.5884   -4481549.47445  -3334887.62045                  24193603.6894
        10.5004         10.5004
 98  6 12 17  0 15.0020000  0  8G10G 4G 8G 7G 5G 9G24G30
  24792544.0254   -1988222.62745  -1406343.48045                  24792557.1314
         8.0004          7.7504
  21845597.1194    3326346.79348   2591957.94547                  21845603.5764
        30.0004         26.7504
  22250352.8144   -8908221.10447  -6747263.70546                  22250359.5064
        26.7504         24.0004
  24684104.5104   16403910.41845  12753972.15245                  24684114.2754
         9.5004          9.7504
  21739545.4394  -13409520.20747 -10310040.99447                  21739551.6864
        27.2504         26.2504
  22459374.7134    2467147.29447   1926190.89946                  22459381.6784
        26.0004         25.0004
  20805006.6194  -10256527.15448  -7983038.90647                  20805013.0644
        31.5004         27.5004
  24186743.8934   -4517557.24745  -3362945.56545                  24186752.3344
        10.2504         10.5004
 98  6 12 17  0 30.0020000  0  8G10G 4G 8G 7G 5G 9G24G30
  24785743.3224   -2023960.52645  -1434191.08245                  24785756.1464
         9.2504          8.0004
  21853711.1824    3368987.97748   2625184.84347                  21853717.3574
        30.0004         26.5004
  22251467.5024   -8902363.26247  -6742699.15946                  22251474.5724
        25.0004         23.7504
  24692985.1354   16450579.58545  12790337.69145                  24692996.4124
         9.2504          9.5004
  21736231.9944  -13426932.73447 -10323609.18647                  21736238.2404
        27.2504         26.5004
  22466947.7994    2506944.15447   1957201.43046                  22466954.6824
        26.2504         24.5004
  20806584.6894  -10248234.22348  -7976576.87547                  20806591.2754
        31.7504         27.5004
  24179899.6114   -4553527.32845  -3390974.12845                  24179907.7954
        11.0004         10.5004
 98  6 12 17  0 45.0020000  0  8G10G 4G 8G 7G 5G 9G24G30
  24778944.5884   -2059688.48645  -1462031.01245                  24778953.0764
         8.7504          8.0004
  21861848.3224    3411748.04448   2658504.36747                  21861854.4634
        29.0004         26.2504
  22252615.1974   -8896331.55447  -6737999.12546                  22252622.0924
        24.7504         22.2504
  24701869.8854   16497268.40645  12826718.53545                  24701880.2954
         9.5004          9.0004
  21732935.9084  -13444253.26548 -10337105.69347                  21732942.2254
        28.5004         27.0004
  22474544.3774    2546865.01247   1988308.56146                  22474551.0334
        24.7504         24.5004
  20808191.9164  -10239788.27148  -7969995.60347                  20808198.4324
        31.7504         27.5004
  24173060.3304   -4589466.48546  -3418978.62245                  24173067.7174
        12.2504         10.7504
 98  6 12 17  1  0.0020000  0  8G10G 4G 8G 7G 5G 9G24G30
  24772147.3464   -2095405.73445  -1489862.55345                  24772159.2094
         7.7504          7.7504
  21870007.4474    3454625.09448   2691915.04847                  21870013.7994
        28.5004         26.0004
  22253796.9084   -8890122.87347  -6733161.17446                  22253803.9554
        26.5004         24.7504
  24710758.6824   16543975.77945  12863113.88245                  24710769.9474
         8.0004          8.2504
  21729657.8304  -13461480.29248 -10350529.33347                  21729664.1704
        29.0004         27.5004
  22482164.8854    2586911.16547   2019513.34146                  22482171.8034
        23.7504         24.0004
  20809827.9394  -10231189.81148  -7963295.49347                  20809834.5724
        32.0004         27.5004
  24166226.6824   -4625372.66945  -3446957.43145                  24166234.7014
         9.2504          9.7504
 98  6 12 17  1 15.0020000  0  8G10G 4G 8G 7G 5G 9G24G30
  24765352.3774   -2131112.22945  -1517685.74245                  24765365.8814
         7.7504          7.7504
  21878189.5104    3497621.07747   2725418.40547                  21878195.9904
        27.7504         26.2504
  22255011.7214   -8883739.14547  -6728186.84846                  22255018.5534
        24.5004         22.7504
  24719649.4554   16590698.79345  12899521.34745                  24719660.8034
         8.7504          8.7504
  21726396.8224  -13478616.74448 -10363882.40547                  21726403.1044
        29.5004         27.7504
  22489809.3934    2627082.77547   2050815.86546                  22489816.3574
        26.0004         25.2504
  20811493.2684  -10222439.25548  -7956476.88247                  20811500.0534
        32.0004         28.0004
  24159401.3224   -4661242.95045  -3474908.25845                  24159409.7174
        10.2504         10.0004
 98  6 12 17  1 30.0020000  0  8G10G 4G 8G 7G 5G 9G24G30
  24758561.3384   -2166802.64745  -1545496.37245                  24758573.2714
         7.7504          8.0004
  21886395.0724    3540741.43848   2759018.68147                  21886401.4594
        29.7504         26.5004
  22256260.1824   -8877179.50947  -6723075.46446                  22256266.8264
        25.5004         22.2504
  24728543.5964   16637437.87245  12935941.35445                  24728553.2324
         9.5004          8.5004
  21723153.2214  -13495660.31248 -10377163.09047                  21723159.6894
        28.2504         28.0004
  22497478.5254    2667383.98847   2082219.39746                  22497485.7364
        26.2504         25.0004
  20813187.6194  -10213533.73848  -7949537.51047                  20813194.3694
        32.0004         28.0004
  24152583.0334   -4697073.39345  -3502828.02845                  24152591.5334
        10.0004          9.5004
 98  6 12 17  1 45.0020000  0  8G10G 4G 8G 7G 5G 9G24G30
  24751773.6824   -2202474.97545  -1573292.90545                  24751785.0884
         8.2504          9.2504
  21894623.9554    3583984.08648   2792714.23847                  21894630.0964
        30.0004         26.2504
  22257540.5964   -8870449.00647  -6717830.91846                  22257547.0184
        25.0004         23.2504
  24737441.3304   16684191.43045  12972372.66045                  24737450.5334
         9.2504          8.5004
  21719927.7834  -13512611.72748 -10390371.96847                  21719934.3224
        28.7504         28.7504
  22505171.8304    2707812.20447   2113721.87347                  22505178.5574
        27.2504         25.7504
  20814911.2994  -10204477.08448  -7942480.36347                  20814918.2054
        32.0004         28.0004
  24145771.0574   -4732866.56545  -3530718.77045                  24145781.3964
         8.2504          8.7504
 98  6 12 17  2  0.0020000  0  8G10G 4G 8G 7G 5G 9G24G30
  24744988.3464   -2238127.11144  -1601073.72645                  24745003.7014
         7.2504          9.0004
  21902875.9084    3627348.99348   2826505.07047                  21902882.0614
        29.2504         26.2504
  22258853.5964   -8863549.22247  -6712454.45746                  22258860.7134
        23.2504         23.7504
  24746340.7294   16730960.58845  13008816.14345                  24746350.6824
         8.2504          8.2504
  21716719.4634  -13529471.59648 -10403509.52447                  21716725.9794
        29.5004         28.2504
  22512889.0414    2748366.59047   2145322.67147                  22512895.9824
        26.0004         26.0004
  20816662.9714  -10195272.23448  -7935307.74947                  20816669.6504
        32.0004         27.7504
  24138967.2684   -4768624.20145  -3558581.80445                  24138976.8344
         8.7504          9.5004
 98  6 12 17  2 15.0020000  0  8G10G 4G 8G 7G 5G 9G24G30
  24738207.6194   -2273759.73545  -1628839.32145                  24738220.7834
         8.5004          8.2504
  21911151.4554    3670837.92448   2860392.54646                  21911157.6434
        29.7504         25.5004
  22260199.3304   -8856477.86047  -6706944.31746                  22260206.2014
        23.0004         21.5004
  24755244.2834   16777745.51845  13045271.92945                  24755252.5254
        10.5004          7.5004
  21713528.5334  -13546241.21348 -10416576.74747                  21713535.0024
        30.2504         27.5004
  22520630.2684    2789047.26047   2177021.87646                  22520637.3614
        25.5004         24.2504
  20818442.1114  -10185923.08148  -7928022.69247                  20818448.6394
        31.7504         26.7504
  24132168.8694   -4804346.89645  -3586417.63245                  24132176.1974
         9.5004          8.5004
 98  6 12 17  2 30.0020000  0  8G10G 4G 8G 7G 5G 9G24G30
  24731430.8464   -2309372.10745  -1656589.12645                  24731442.0534
         8.2504          8.2504
  21919450.2294    3714448.61548   2894374.89346                  21919456.6974
        28.0004         25.5004
  22261577.8224   -8849233.01847  -6701298.99146                  22261584.1864
        25.0004         22.2504
  24764149.9394   16824546.48545  13081740.13745                  24764160.1974
        10.5004          8.5004
  21710354.7054  -13562918.83348 -10429572.28147                  21710361.0804
        30.2504         28.2504
  22528395.5644    2829853.55547   2208818.96946                  22528402.8574
        26.2504         25.2504
  20820248.5414  -10176429.49548  -7920625.08147                  20820254.9864
        32.2504         27.2504
  24125378.2604   -4840030.62945  -3614223.11045                  24125386.7364
         9.0004          8.5004
 98  6 12 17  2 45.0020000  0  8G10G 4G 8G 7G 5G 9G24G30
  24724658.2524   -2344963.25745  -1684322.43045                  24724669.6934
         7.5004          8.5004
  21927772.0644    3758178.88248   2928450.41146                  21927778.5214
        28.2504         25.2504
  22262989.4944   -8841815.98447  -6695519.48146                  22262996.0454
        24.5004         22.2504
  24773058.8854   16871367.20845  13118223.78945                  24773067.4674
         9.0004          7.5004
  21707198.8224  -13579503.20948 -10442495.15847                  21707205.1394
        30.7504         28.0004
  22536185.4004    2870787.88347   2240715.82346                  22536192.4824
        26.7504         25.0004
  20822082.5024  -10166792.33348  -7913115.59347                  20822088.8184
        30.2504         27.5004
  24118596.4554   -4875672.58945  -3641996.04545                  24118607.3574
         7.7504          8.2504
 98  6 12 17  3  0.0020000  0  8G10G 4G 8G 7G 5G 9G24G30
  24717887.9394   -2380536.82444  -1712042.00545                  24717898.8654
         7.2504          8.5004
  21936115.9004    3802026.21548   2962617.15646                  21936122.1934
        28.7504         25.5004
  22264433.4794   -8834229.18547  -6689607.71146                  22264439.8074
        25.0004         23.0004
  24781973.0804   16918207.01045  13154722.30745                  24781980.2794
         8.2504          7.2504
  21704060.1744  -13595995.73448 -10455346.46747                  21704066.2564
        29.5004         28.2504
  22543999.1354    2911848.92747   2272711.42047                  22544006.4394
        27.5004         26.2504
  20823943.2364  -10157014.09648  -7905496.17847                  20823949.6464
        31.7504         27.5004
  24111822.3224   -4911271.86645  -3669735.65945                  24111829.9084
         8.7504          8.5004
 98  6 12 17  3 15.0020000  0  8G10G 4G 8G 7G 5G 9G24G30
  24711122.3224   -2416090.26844  -1739745.91045                  24711138.6394
         6.7504          7.0004
  21944482.6504    3845994.24148   2996877.94847                  21944488.9084
        29.5004         26.0004
  22265908.4554   -8826475.52847  -6683565.88046                  22265914.7014
        21.5004         21.7504
  24790890.2054   16965067.59845  13191237.06545                  24790901.7054
         8.7504          8.0004
  21700939.6744  -13612395.43248 -10468125.44147                  21700946.1434
        29.7504         28.7504
  22551836.3934    2953035.41547   2304804.76446                  22551843.6744
        26.5004         25.2504
  20825830.7994  -10147094.74248  -7897766.81247                  20825837.3144
        31.2504         27.7504
  24105055.7524   -4946825.19445  -3697439.49745                  24105062.6354
         8.2504          8.5004
 98  6 12 17  3 30.0020000  0  8G10G 4G 8G 7G 5G 9G24G30
  24704361.4164   -2451622.05744  -1767432.89145                  24704377.0064
         6.7504          8.0004
  21952872.6194    3890083.28148   3031233.03447                  21952879.0294
        29.7504         26.7504
  22267416.0414   -8818553.60247  -6677392.97546                  22267422.6274
        23.0004         22.5004
  24799810.8144   17011950.18345  13227768.90345                  24799821.6464
         8.7504          7.7504
  21697837.2214  -13628698.28748 -10480828.95847                  21697844.0644
        29.0004         29.2504
  22559697.4714    2994345.90847   2336994.74447                  22559704.8934
        25.0004         25.7504
  20827745.3224  -10137034.56748  -7889927.70847                  20827751.9674
        32.0004         28.0004
  24098299.6584   -4982334.16245  -3725108.83345                  24098308.2404
         9.5004          9.7504
 98  6 12 17  3 45.0020000  0  8G10G 4G 8G 7G 5G 9G24G30
  24697601.9714   -2487135.89843  -1795105.89445                  24697617.3504
         5.7504          7.0004
  21961285.0024    3934290.17448   3065679.94547                  21961291.3424
        30.5004         26.0004
  22268955.7834   -8810462.32247  -6671088.09546                  22268962.5454
        23.7504         22.0004
  24808737.1434   17058855.92245  13264318.80945                  24808749.6044
         8.2504          7.2504
  21694753.6504  -13644903.43648 -10493456.33547                  21694760.5334
        29.5004         28.0004
  22567581.3384    3035775.91147   2369277.83546                  22567588.8184
        25.0004         24.5004
  20829685.4004  -10126836.94248  -7881981.48847                  20829691.9754
        31.7504         26.7504
  24091549.2604   -5017804.60245  -3752748.09345                  24091559.4004
         8.0004          8.5004
 98  6 12 17  4  0.0020000  0  8G10G 4G 8G 7G 5G 9G24G30
  24690847.5104   -2522633.79043  -1822766.50645                  24690861.3654
         6.0004          8.0004
  21969719.2524    3978613.16548   3100217.33347                  21969725.3694
        28.5004         25.7504
  22270528.4554   -8802199.06347  -6664649.17546                  22270535.3734
        23.7504         22.0004
  24817667.8384   17105786.30845  13300887.93845                  24817678.8344
         8.0004          6.7504
  21691688.3304  -13661010.28848 -10506007.11447                  21691694.8934
        29.7504         28.2504
  22575486.9244    3077320.94247   2401650.55946                  22575493.9244
        26.0004         24.5004
  20831651.7134  -10116505.17148  -7873930.75347                  20831658.0414
        31.5004         26.5004
  24084806.4714   -5053238.56045  -3780358.91545                  24084815.6044
         7.5004          8.7504
 98  6 12 17  4 15.0020000  0  8G10G 4G 8G 7G 5G 9G24G30
  24684095.0024   -2558114.93842  -1850414.11645                  24684106.1504
         4.7504          7.0004
  21978175.9324    4023054.34048   3134846.80647                  21978182.1664
        28.5004         26.0004
  22272134.5574   -8793757.89947  -6658071.63446                  22272141.6504
        21.7504         21.7504
  24826603.3224   17152742.82844  13337477.35345                  24826617.8814
         6.7504          7.0004
  21688642.2754  -13677016.94948 -10518479.83047                  21688648.6864
        29.7504         28.5004
  22583415.0964    3118983.20047   2434114.64646                  22583421.9904
        26.7504         25.0004
  20833643.7684  -10106036.05548  -7865773.00047                  20833650.2714
        31.7504         27.0004
  24078071.4244   -5088633.85645  -3807939.64745                  24078081.0494
         8.7504          9.2504
 98  6 12 17  4 30.0020000  0  8G10G 4G 8G 7G 5G 9G24G30
  24677345.3384   -2593583.03743  -1878051.42445                  24677358.9944
         5.0004          6.7504
  21986653.9244    4067606.12248   3169562.47047                  21986660.1584
        29.5004         26.2504
  22273773.9634   -8785143.52647  -6651359.17346                  22273780.6544
        23.0004         21.7504
  24835542.6434   17199720.77445  13374083.54845                  24835554.5064
         8.0004          7.5004
  21685614.6584  -13692927.49748 -10530877.64847                  21685620.9044
        30.0004         28.2504
  22591364.5334    3160757.85747   2466666.31046                  22591371.6864
        25.5004         25.0004
  20835662.0184  -10095430.21048  -7857508.69647                  20835669.0294
        32.0004         27.2504
  24071342.1894   -5123994.56245  -3835493.42145                  24071351.1464
         9.0004          9.5004
 98  6 12 17  4 45.0020000  0  8G10G 4G 8G 7G 5G 9G24G30
  24670600.7754   -2629034.39744  -1905675.82045                  24670611.1624
         6.2504          7.0004
  21995152.9164    4112267.79348   3204363.75846                  21995159.2214
        29.5004         25.5004
  22275446.0184   -8776356.28947  -6644511.95546                  22275453.0414
        20.2504         20.7504
  24844486.3694   17246720.82045  13410706.92045                  24844495.0804
         8.5004          7.7504
  21682605.2294  -13708742.33548 -10543200.89747                  21682611.3574
        30.0004         28.0004
  22599335.8614    3202647.43847   2499307.52146                  22599343.0724
        25.2504         25.0004
  20837707.4794  -10084681.97648  -7849133.44747                  20837714.6894
        32.0004         27.0004
  24064619.4324   -5159321.45245  -3863020.79945                  24064626.9124
         9.2504          9.5004
 98  6 12 17  5  0.0020000  0  8G10G 4G 8G 7G 5G 9G24G30
  24663858.0574   -2664467.70144  -1933286.09045                  24663870.7994
         7.2504          7.0004
  22003672.9944    4157040.82448   3239251.81947                  22003679.1234
        30.0004         26.0004
  22277150.5184   -8767398.36347  -6637531.76546                  22277157.3034
        20.0004         20.2504
  24853434.5104   17293739.79345  13447345.02445                  24853447.1234
         7.7504          7.5004
  21679613.2604  -13724465.03448 -10555452.33947                  21679619.4244
        29.5004         28.0004
  22607329.1044    3244651.69047   2532038.08746                  22607336.3964
        23.5004         24.5004
  20839779.4554  -10073792.67948  -7840648.27147                  20839786.2754
        32.0004         27.2504
  24057902.9324   -5194618.44745  -3890524.91545                  24057909.8964
         9.5004         10.0004
 98  6 12 17  5 15.0020000  0  8G10G 4G 8G 7G 5G 9G24G30
  24657118.2054   -2699885.10345  -1960883.97945                  24657129.0144
         7.7504          7.0004
  22012213.5964    4201922.00848   3274224.16747                  22012219.6434
        29.5004         26.0004
  22278887.0574   -8758271.53947  -6630419.93346                  22278894.0334
        20.5004         21.2504
  24862384.2444   17340772.56945  13483993.90245                  24862394.4084
         9.0004          8.0004
  21676638.3074  -13740099.34348 -10567634.91047                  21676644.5644
        30.0004         28.5004
  22615342.7214    3286764.76847   2564853.43546                  22615350.0374
        25.0004         24.7504
  20841878.1434  -10062764.64848  -7832055.00047                  20841884.5534
        32.0004         26.7504
  24051190.1354   -5229889.35745  -3918008.69645                  24051198.8464
         9.2504         10.0004
 98  6 12 17  5 30.0020000  0  8G10G 4G 8G 7G 5G 9G24G30
  24650381.8304   -2735285.78945  -1988468.86545                  24650395.1234
         8.7504          6.7504
  22020774.6664    4246910.89448   3309280.43347                  22020780.6434
        30.5004         26.2504
  22280656.2524   -8748976.36247  -6623176.95946                  22280663.5214
        21.7504         21.5004
  24871337.1044   17387820.31745  13520654.44745                  24871347.2324
         9.5004          7.7504
  21673679.8854  -13755646.16848 -10579749.30247                  21673686.2834
        30.0004         29.0004
  22623377.4244    3328985.79747   2597752.91346                  22623384.7524
        25.5004         25.0004
  20844003.6274  -10051595.03748  -7823351.38647                  20844010.0144
        32.0004         27.2504
  24044484.0494   -5265135.85345  -3945473.44645                  24044492.4204
        10.0004         10.2504
 98  6 12 17  5 45.0020000  0  8G10G 4G 8G 7G 5G 9G24G30
  24643648.2604   -2770668.22245  -2016039.52945                  24643659.2214
        10.0004          7.7504
  22029356.5254    4292008.33748   3344421.29647                  22029362.5964
        30.5004         25.7504
  22282458.0574   -8739507.18546  -6615798.36746                  22282465.1624
        19.0004         20.7504
  24880293.5644   17434885.42345  13557328.48845                  24880304.7014
         9.0004          8.5004
  21670737.9084  -13771105.98448 -10591795.90447                  21670744.2364
        30.5004         28.5004
  22631433.7604    3371319.99747   2630740.58646                  22631440.8184
        24.7504         24.5004
  20846157.3694  -10040278.02948  -7814532.94147                  20846163.9324
        31.7504         27.5004
  24037782.0024   -5300355.36545  -3972917.18545                  24037791.2524
         9.7504         10.5004
 98  6 12 17  6  0.0020000  0  8G10G 4G 8G 7G 5G 9G24G30
  24636918.1274   -2806032.69545  -2043596.18845                  24636930.1784
        10.0004          7.5004
  22037958.9084    4337214.04648   3379646.50847                  22037964.8614
        29.5004         26.0004
  22284292.2604   -8729870.26446  -6608289.08546                  22284298.7054
        19.2504         21.2504
  24889252.5574   17481964.02245  13594013.09645                  24889261.2914
        10.5004          9.5004
  21667811.6114  -13786483.08948 -10603778.05047                  21667817.9044
        30.0004         28.7504
  22639510.7444    3413766.20447   2663815.52246                  22639517.7684
        25.2504         24.5004
  20848338.5254  -10028815.53948  -7805601.12547                  20848345.5254
        32.0004         27.7504
  24031085.6434   -5335546.23445  -4000338.60245                  24031092.3344
        10.2504         10.5004
 98  6 12 17  6 15.0020000  0  8G10G 4G 8G 7G 5G 9G24G30
  24630192.1194   -2841378.44545  -2071138.30745                  24630201.7914
         9.5004          7.0004
  22046581.5884    4382527.50047   3414955.67846                  22046587.7174
        27.7504         25.5004
  22286157.0724   -8720068.62147  -6600651.44246                  22286163.0144
        20.2504         20.0004
  24898212.6974   17529051.43845  13630704.57445                  24898223.0024
        10.2504          9.2504
  21664901.3384  -13801777.15848 -10615695.50047                  21664907.9004
        30.5004         29.0004
  22647609.6974    3456325.20047   2696978.36746                  22647616.5804
        25.2504         24.0004
  20850547.9474  -10017205.61448  -7796554.42047                  20850554.5214
        31.7504         27.0004
  24024394.3464   -5370704.02345  -4027734.26345                  24024401.1074
        10.0004         10.7504
 98  6 12 17  6 30.0020000  0  8G10G 4G 8G 7G 5G 9G24G30
  24623469.7994   -2876704.82245  -2098665.27745                  24623480.8304
         9.2504          7.0004
  22055224.9164    4427949.04648   3450349.09046                  22055230.9514
        29.0004         25.0004
  22288053.5334   -8710103.52546  -6592886.42946                  22288059.7794
        19.5004         20.0004
  24907174.0024   17576145.53345  13667401.25345                  24907184.4594
        10.0004          9.2504
  21662006.6664  -13816988.72748 -10627548.66447                  21662013.1824
        30.0004         28.7504
  22655730.0644    3498998.13147   2730229.99246                  22655737.1354
        26.0004         24.0004
  20852785.9324  -10005445.45748  -7787390.65347                  20852792.0024
        31.7504         27.0004
  24017710.3774   -5405825.46845  -4055101.57945                  24017717.8344
         9.5004         10.7504
 98  6 12 17  6 45.0020000  0  8G10G 4G 8G 7G 5G 9G24G30
  24616751.3304   -2912008.08145  -2126174.24945                  24616764.6584
         8.0004          7.7504
  22063890.0414    4473483.80348   3485830.69846                  22063896.0414
        28.7504         25.0004
  22289981.3614   -8699972.51047  -6584992.11946                  22289988.1584
        20.2504         21.0004
  24916138.6584   17623250.29745  13704106.19945                  24916149.0334
        11.0004          9.7504
  21659128.5494  -13832112.72648 -10639333.58847                  21659134.9944
        30.7504         29.0004
  22663873.1664    3541790.44347   2763574.62746                  22663879.6934
        25.2504         23.7504
  20855053.1744   -9993530.41648  -7778106.20447                  20855059.3964
        32.0004         27.2504
  24011036.1434   -5440904.71445  -4082436.02145                  24011042.6004
         8.5004         10.0004
 98  6 12 17  7  0.0020000  0  8G10G 4G 8G 7G 5G 9G24G30
  24610036.7054   -2947295.85045  -2153671.12645                  24610047.9474
         7.5004          8.5004
  22072576.6114    4519131.27648   3521400.14747                  22072582.9394
        28.7504         25.7504
  22291939.7684   -8689680.13846  -6576972.11146                  22291946.6624
        18.7504         20.5004
  24925102.5804   17670361.02545  13740815.79245                  24925111.7484
        11.2504         10.0004
  21656266.7684  -13847152.02148 -10651052.51447                  21656272.9794
        30.7504         28.7504
  22672038.4164    3584698.69647   2797009.59846                  22672045.0844
        25.2504         23.5004
  20857348.5644   -9981467.33948  -7768706.39147                  20857355.2444
        31.7504         27.2504
  24004367.5184   -5475946.68745  -4109741.41845                  24004374.4124
         8.5004         10.5004
 98  6 12 17  7 15.0020000  0  8G10G 4G 8G 7G 5G 9G24G30
  24603323.6584   -2982568.73944  -2181156.41445                  24603334.2914
         6.2504          7.7504
  22081284.6354    4564893.37748   3557058.92646                  22081290.6354
        29.5004         25.5004
  22293929.6194   -8679224.44347  -6568824.78746                  22293936.5024
        20.2504         20.7504
  24934069.2684   17717480.99845  13777532.64145                  24934080.4394
         8.7504          9.5004
  21653421.4324  -13862104.10548 -10662703.47747                  21653427.6894
        30.5004         28.5004
  22680225.0254    3627721.34447   2830533.73146                  22680231.9794
        23.5004         23.0004
  20859672.2054   -9969256.54048  -7759191.47247                  20859678.8264
        31.7504         26.7504
  23997705.9944   -5510948.24345  -4137015.30845                  23997714.8814
         8.2504         10.0004
 98  6 12 17  7 30.0020000  0  8G10G 4G 8G 7G 5G 9G24G30
  24596614.3934   -3017829.95845  -2208632.58945                  24596625.9754
         8.0004          8.7504
  22090014.0184    4610766.45448   3592804.17546                  22090020.0294
        29.7504         25.5004
  22295949.9324   -8668607.09246  -6560551.56046                  22295956.4824
        16.0004         19.0004
  24943038.4324   17764611.18845  13814257.44045                  24943049.3464
        11.2504          9.5004
  21650593.1044  -13876967.96348 -10674285.69347                  21650599.3614
        30.5004         29.0004
  22688433.6504    3670857.05447   2864145.94646                  22688440.6744
        24.2504         23.5004
  20862023.9324   -9956898.63748  -7749561.93947                  20862030.4244
        31.7504         26.7504
  23991052.5334   -5545910.09545  -4164258.27945                  23991060.0724
         8.7504         10.2504
 98  6 12 17  7 45.0020000  0  8G10G 4G 8G 7G 5G 9G24G30
  24589905.9794   -3053081.46545  -2236101.20645                  24589915.9674
         8.2504          8.0004
  22098763.8544    4656747.31148   3628633.39246                  22098769.8184
        29.5004         25.5004
  22298000.5804   -8657829.76746  -6552153.61346                  22298007.3424
        17.7504         19.5004
  24952008.5334   17811749.53345  13850988.56245                  24952018.7444
        11.2504         10.0004
  21647781.1894  -13891744.29848 -10685799.71047                  21647787.4944
        30.0004         29.0004
  22696663.3304    3714104.22947   2897845.01346                  22696670.2604
        26.5004         23.5004
  20864402.7214   -9944397.13848  -7739820.50847                  20864409.2484
        31.7504         26.7504
  23984406.9004   -5580836.01345  -4191473.24645                  23984416.4324
         8.2504         10.2504
 98  6 12 17  8  0.0020000  0  8G10G 4G 8G 7G 5G 9G24G30
  24583201.3224   -3088314.51745  -2263555.45345                  24583213.0684
         7.7504          8.0004
  22107535.5884    4702841.22048   3664550.71846                  22107541.6824
        29.7504         25.2504
  22300083.2054   -8646886.47246  -6543626.37746                  22300090.5334
        16.7504         19.0004
  24960982.1354   17858902.74646  13887731.29245                  24960991.5024
        12.5004         10.0004
  21644987.9394  -13906422.93948 -10697237.59947                  21644994.0104
        30.0004         29.0004
  22704915.3614    3757468.45047   2931635.30746                  22704922.1464
        26.0004         23.5004
  20866809.0884   -9931750.89648  -7729966.27647                  20866815.8734
        30.7504         26.7504
  23977768.7214   -5615720.21045  -4218655.69545                  23977778.0644
         8.5004         10.5004
 98  6 12 17  8 15.0020000  0  8G10G 4G 8G 7G 5G 9G24G30
  24576498.9164   -3123533.60145  -2290998.79245                  24576510.1704
         7.7504          7.2504
  22116326.5724    4749038.64048   3700548.69446                  22116332.6314
        29.5004         25.2504
  22302196.3694   -8635783.09346  -6534974.41046                  22302203.0024
        16.7504         18.7504
  24969956.5184   17906066.04145  13924481.88045                  24969965.6864
         9.5004         10.0004
  21642212.8544  -13921006.90248 -10708601.72647                  21642219.2054
        30.2504         29.0004
  22713188.0414    3800941.91947   2965510.70946                  22713194.9364
        26.0004         23.7504
  20869241.7444   -9918967.29848  -7720005.02447                  20869248.4594
        30.7504         26.5004
  23971137.8544   -5650570.13845  -4245811.44145                  23971144.6044
         9.0004         10.7504
 98  6 12 17  8 30.0020000  0  8G10G 4G 8G 7G 5G 9G24G30
  24569799.8144   -3158739.18145  -2318431.67045                  24569809.5684
         7.7504          7.2504
  22125136.6824    4795335.34548   3736624.04447                  22125142.7644
        30.7504         26.0004
  22304339.8144   -8624516.52846  -6526195.23146                  22304346.6584
        16.2504         19.0004
  24978933.6894   17953240.49745  13961241.12745                  24978943.3384
        10.2504          9.7504
  21639455.2524  -13935497.45848 -10719893.05647                  21639461.8144
        30.0004         29.2504
  22721481.5414    3844524.54547   2999471.18446                  22721488.7754
        24.5004         24.0004
  20871700.2364   -9906047.33448  -7709937.52347                  20871706.5534
        31.0004         26.7504
  23964511.4394   -5685389.32645  -4272943.27745                  23964518.6044
         8.7504         10.5004
 98  6 12 17  8 45.0020000  0  8G10G 4G 8G 7G 5G 9G24G30
  24563102.6824   -3193932.96645  -2345855.34645                  24563113.6314
         8.2504          7.7504
  22133964.8224    4841728.47548   3772774.53247                  22133970.8114
        30.7504         25.7504
  22306514.5964   -8613088.61146  -6517290.38446                  22306521.9474
        17.2504         19.2504
  24987912.5964   18000427.55545  13998010.20545                  24987924.9864
         9.7504          9.7504
  21636714.6584  -13949897.69148 -10731114.00147                  21636721.0454
        29.5004         29.0004
  22729795.1584    3888215.27447   3033515.87446                  22729802.3114
        23.7504         23.5004
  20874184.1974   -9892994.77248  -7699766.68447                  20874190.7364
        31.2504         26.5004
  23957890.7444   -5720181.80245  -4300054.26945                  23957898.4714
         8.5004         11.0004
 98  6 12 17  9  0.0020000  0  8G10G 4G 8G 7G 5G 9G24G30
  24556408.6044   -3229114.23145  -2373269.24645                  24556418.9084
         9.0004          7.5004
  22142812.0104    4888220.53448   3809002.09946                  22142817.9754
        29.5004         25.2504
  22308720.1434   -8601498.32846  -6508259.00146                  22308726.6934
        18.2504         19.5004
  24996895.6974   18047629.42945  14034790.85245                  24996905.4634
         9.7504          9.2504
  21633992.4634  -13964204.13848 -10742261.87347                  21633998.8264
        29.5004         29.0004
  22738130.1584    3932013.42347   3067644.28446                  22738137.1464
        26.0004         24.0004
  20876693.4244   -9879808.28048  -7689491.49447                  20876700.0334
        32.2504         27.0004
  23951274.9164   -5754950.46845  -4327146.67145                  23951282.5494
         9.2504         10.5004
 98  6 12 17  9 15.0020000  0  8G10G 4G 8G 7G 5G 9G24G30
  24549716.7994   -3264279.27345  -2400670.53245                  24549725.7324
         8.7504          7.0004
  22151677.8304    4934812.23048   3845307.31546                  22151683.8774
        28.2504         25.0004
  22310957.0414   -8589744.51646  -6499100.18746                  22310963.2994
        18.2504         19.0004
  25005880.8614   18094847.66745  14071584.21445                  25005891.2254
         9.5004          9.5004
  21631288.1974  -13978414.68448 -10753335.01147                  21631294.1744
        30.0004         28.2504
  22746484.4944    3975915.61547   3101853.75946                  22746491.3034
        25.7504         23.7504
  20879228.4324   -9866487.85748  -7679111.93647                  20879234.8424
        31.5004         26.7504
  23944663.3384   -5789693.30245  -4354218.99745                  23944671.2754
        10.0004         10.7504
 98  6 12 17  9 30.0020000  0  8G10G 4G 8G 7G 5G 9G24G30
  24543028.3934   -3299425.41345  -2428057.09245                  24543036.0494
         8.2504          6.5004
  22160561.9164    4981499.02148   3881686.62246                  22160568.1974
        28.0004         25.0004
  22313224.9004   -8577828.08646  -6489814.65646                  22313231.8774
        16.2504         19.5004
  25014868.8224   18142080.53445  14108388.99645                  25014877.9204
         9.2504          9.5004
  21628602.1664  -13992530.06548 -10764334.00247                  21628608.4824
        29.7504         28.7504
  22754857.9394    4019919.88547   3136142.78446                  22754865.0454
        26.0004         23.7504
  20881788.4324   -9853034.08348  -7668628.47347                  20881794.9364
        31.7504         27.0004
  23938056.8074   -5824409.06045  -4381270.19145                  23938064.5684
         9.5004         11.0004
 98  6 12 17  9 45.0020000  0  8G10G 4G 8G 7G 5G 9G24G30
  24536342.9324   -3334552.36344  -2455428.65145                  24536354.5374
         7.2504          6.7504
  22169464.2604    5028280.69647   3918139.87146                  22169470.5644
        27.5004         24.5004
  22315523.2364   -8565749.43346  -6480402.71246                  22315530.2134
        19.5004         20.5004
  25023858.8544   18189325.61445  14145203.32045                  25023866.2754
         8.0004          8.0004
  21625934.6744  -14006549.31948 -10775258.08247                  21625940.7444
        30.0004         28.5004
  22763251.3614    4064027.21147   3170512.12046                  22763258.1824
        25.7504         23.7504
  20884373.4474   -9839449.47648  -7658043.05647                  20884379.9164
        31.7504         27.0004
  23931455.4474   -5859100.15145  -4408302.16845                  23931463.7484
         9.0004         11.0004
 98  6 12 17 10  0.0020000  0  8G10G 4G 8G 7G 5G 9G24G30
  24529661.9554   -3369658.92043  -2482784.40745                  24529676.2214
         5.5004          6.7504
  22178384.9394    5075158.62548   3954668.11446                  22178391.1624
        28.0004         25.5004
  22317852.9474   -8553505.90446  -6470862.30746                  22317859.6974
        19.2504         20.5004
  25032851.6274   18236582.55645  14182026.82145                  25032859.9634
         9.0004          8.5004
  21623285.0184  -14020472.59848 -10786107.38347                  21623290.9244
        30.2504         28.7504
  22771664.4244    4108236.52847   3204960.92446                  22771671.7174
        25.2504         24.2504
  20886983.3144   -9825734.59448  -7647356.12947                  20886989.5964
        31.0004         27.2504
  23924859.3934   -5893765.60345  -4435314.19045                  23924866.9794
         9.7504         11.7504
 98  6 12 17 10 15.0020000  0  8G10G 4G 8G 7G 5G 9G24G30
  24522985.5254   -3404749.72543  -2510127.75645                  24522997.8464
         5.0004          6.2504
  22187323.8144    5122131.27047   3991270.15946                  22187330.0374
        27.5004         25.2504
  22320214.1194   -8541098.70246  -6461194.35946                  22320220.6704
        19.7504         21.2504
  25041846.9554   18283849.27545  14218858.03145                  25041853.8854
        10.2504          9.2504
  21620653.3544  -14034301.95348 -10796883.49147                  21620659.3544
        29.7504         28.7504
  22780095.7754    4152544.46947   3239486.56146                  22780102.7994
        25.0004         24.2504
  20889618.2054   -9811889.54248  -7636567.77647                  20889624.5104
        30.5004         27.5004
  23918267.6744   -5928403.43845  -4462304.67846                  23918275.9984
        10.7504         12.2504
 98  6 12 17 10 30.0020000  0  8G10G 4G 8G 7G 5G 9G24G30
  24516310.8854   -3439826.92743  -2537460.59145                  24516323.0764
         5.5004          7.2504
  22196280.9864    5169202.09947   4027948.72346                  22196287.0454
        27.5004         24.7504
  22322606.5964   -8528525.94047  -6451397.38746                  22322613.5024
        20.0004         20.7504
  25050842.3464   18331124.71945  14255695.97745                  25050850.7404
        10.7504          8.7504
  21618039.4634  -14048037.61848 -10807586.60847                  21618045.5454
        28.5004         28.0004
  22788546.5724    4196953.21447   3274090.76146                  22788553.7014
        24.7504         24.5004
  20892278.6044   -9797909.42348  -7625674.17147                  20892285.1194
        30.7504         27.7504
  23911682.1664   -5963010.61045  -4489271.26846                  23911689.7644
        11.7504         12.5004
 98  6 12 17 10 45.0020000  0  8G10G 4G 8G 7G 5G 9G24G30
  24509638.2834   -3474892.14943  -2564784.03345                  24509651.3894
         6.0004          7.5004
  22205257.9474    5216376.30448   4064707.83246                  22205264.1354
        28.5004         25.0004
  22325030.4474   -8515787.67546  -6441471.47446                  22325037.6934
        18.2504         21.7504
  25059841.2754   18378410.64145  14292542.07945                  25059853.3144
        10.7504         10.0004
  21615443.2684  -14061679.62947 -10818216.72947                  21615449.3734
        27.2504         28.0004
  22797016.9164    4241462.60247   3308773.36946                  22797024.4794
        26.2504         24.7504
  20894964.6274   -9783792.36548  -7614673.85347                  20894970.9794
        31.5004         27.5004
  23905102.8224   -5997586.84445  -4516213.75646                  23905110.0924
        11.7504         12.7504
 98  6 12 17 11  0.0020000  0  8G10G 4G 8G 7G 5G 9G24G30
  24502967.8144   -3509944.05645  -2592097.10845                  24502978.4824
         7.5004          8.5004
  22214255.1044    5263658.69947   4101551.25146                  22214261.4554
        27.0004         25.2504
  22327485.7444   -8502885.45047  -6431417.78746                  22327492.5534
        20.5004         21.5004
  25068842.0644   18425709.39345
        10.7504
  21612865.5964  -14075225.76547 -10828772.15147                  21612871.7134
        27.2504         28.0004
  22805505.3304    4286071.17447   3343533.27947                  22805512.5184
        26.5004         25.7504
  20897677.9394   -9769536.99648  -7603565.77347                  20897684.1274
        31.5004         27.7504
  23898528.5884   -6032131.44346  -4543131.57946                  23898535.3854
        12.5004         13.0004
 98  6 12 17 11 15.0020000  0  8G10G 4G 8G 7G 5G 9G24G30
  24496299.4634   -3544980.57045  -2619398.20445                  24496309.5214
         7.7504          9.0004
  22223273.1894    5311047.55948   4138477.62746                  22223279.6934
        28.0004         25.2504
  22329972.2754   -8489819.70746  -6421236.66846                  22329979.8614
        19.2504         22.2504
  25077844.5574   18473019.96945
        11.5004
  21610306.2684  -14088674.96947 -10839252.04547                  21610312.3384
        27.7504         27.5004
  22814012.9554    4330778.74747   3378370.33746                  22814020.0374
        25.5004         24.7504
  20900416.3384   -9755144.77448  -7592351.04947                  20900422.4674
        32.0004         27.2504
  23891961.4944   -6066641.64546  -4570022.60946                  23891969.0924
        12.2504         12.7504
 98  6 12 17 11 30.0020000  0  8G10G 4G 8G 7G 5G 9G24G30
  24489636.5024   -3580000.00745  -2646685.97745                  24489647.2524
         8.7504          8.5004
  22232310.6824    5358540.11248   4175484.79346                  22232317.2094
        28.2504         25.5004
  22332489.5334   -8476590.31346  -6410928.05646                  22332497.2714
        18.5004         22.2504
  25086849.5724   18520340.39945      9830.61055                  25086859.6194
         8.7504          8.5004
  21607764.2444  -14102033.31047 -10849661.13247                  21607770.3264
        27.7504         27.2504
  22822539.0334    4375585.69647   3413284.81146                  22822546.1274
        25.0004         23.7504
  20903180.3464   -9740618.95248  -7581032.22347                  20903186.6744
        31.7504         26.7504
  23885401.4474   -6101114.04746  -4596884.20346                  23885408.2444
        12.0004         13.0004
 98  6 12 17 11 45.0020000  0  8G10G 4G 8G 7G 5G 9G24G30
  24482974.7054   -3615001.40645  -2673959.72945                  24482986.7214
         7.7504          8.7504
  22241368.3144    5406137.42848   4212573.60047                  22241374.6664
        28.2504         26.5004
  22335038.6354   -8463194.02547  -6400489.39046                  22335045.5294
        22.5004         21.5004
  25095856.6274   18567672.46145     46712.64945                  25095866.7684
        10.0004          9.2504
  21605239.5574  -14115300.83647 -10859999.45747                  21605245.8964
        27.2504         27.5004
  22831085.1114    4420495.19547   3448279.21746                  22831092.3224
        23.2504         24.5004
  20905970.1044   -9725958.30048  -7569608.33247                  20905976.6544
        31.5004         27.5004
  23878849.2914   -6135548.15246  -4623715.93846                  23878856.7834
        12.7504         13.7504
 98  6 12 17 12  0.0020000  0  8G10G 4G 8G 7G 5G 9G24G30
  24476318.2294   -3649985.22744  -2701219.74545                  24476332.0724
         7.2504          8.2504
  22250445.9864    5453839.78848   4249744.25147                  22250452.3734
        28.5004         26.0004
  22337619.7994   -8449630.21347  -6389920.18946                  22337626.6584
        22.7504         22.2504
  25104866.0104   18615018.20745     83605.42745                  25104876.5374
         9.0004          9.2504
  21602731.9714  -14128478.35547 -10870267.65647                  21602738.3224
        26.0004         27.5004
  22839650.3694    4465505.37647   3483352.05346                  22839657.8614
        24.5004         25.0004
  20908786.2364   -9711159.60748  -7558076.88247                  20908792.9514
        31.2504         27.2504
  23872304.4944   -6169942.37446  -4650516.59446                  23872311.1274
        13.5004         13.5004
 98  6 12 17 12 15.0020000  0  8G10G 4G 8G 7G 5G 9G24G30
  24469665.0254   -3684951.11044  -2728465.88945                  24469676.8424
         7.2504          8.5004
  22259542.7364    5501645.02748   4286995.08147                  22259549.4044
        28.5004         25.7504
  22340232.1744   -8435901.87147  -6379222.78246                  22340239.1864
        23.2504         22.0004
  25113878.5494   18662379.76244    120510.49545                  25113891.3504
         7.2504          9.0004
  21600241.1044  -14141567.98547 -10880467.35347                  21600247.7484
        25.0004         27.5004
  22848234.5104    4510614.77247   3518502.21046                  22848241.4984
        25.0004         24.2504
  20911629.1434   -9696219.95348  -7546435.59347                  20911635.7524
        30.2504         26.7504
  23865767.0024   -6204294.99746  -4677284.85346                  23865773.4364
        14.5004         14.2504
 98  6 12 17 12 30.0020000  0  7G10G 4G 8G 5G 9G24G30
  24463014.3464   -3719897.01945  -2755696.39445                  24463026.0334
         8.2504          8.2504
  22268659.0964    5549551.81248   4324325.03446                  22268665.6824
        28.0004         25.5004
  22342875.3934   -8422012.17847  -6368399.66046                  22342882.5104
        22.2504         23.0004
  21597766.2684  -14154572.69047 -10890600.88147                  21597772.5024
        26.2504         27.2504
  22856837.9864    4555825.47247   3553731.30646                  22856845.2564
        25.5004         25.0004
  20914499.0964   -9681137.74448  -7534683.22247                  20914505.6704
        30.5004         27.2504
  23859237.4944   -6238606.23346  -4704020.82046                  23859244.3774
        14.0004         13.7504
 98  6 12 17 12 45.0020000  0  7G10G 4G 8G 5G 9G24G30
  24456369.0104   -3754818.66945  -2782908.00945                  24456380.0064
         7.5004          7.0004
  22277794.2914    5597558.24547   4361732.63546                  22277800.7604
        27.7504         24.7504
  22345548.6274   -8407964.05347  -6357453.07446                  22345555.5214
        23.2504         23.0004
  21595307.2444  -14167494.39347 -10900669.73847                  21595313.5494
        26.7504         26.7504
  22865460.5414    4601138.15747   3589039.88346                  22865467.9394
        24.7504         24.5004
  20917395.9714   -9665914.65748  -7522821.07347                  20917402.7444
        31.5004         27.7504
  23852716.0024   -6272877.41946  -4730725.61446                  23852722.4714
        13.5004         13.7504
 98  6 12 17 13  0.0020000  0  7G10G 4G 8G 5G 9G24G30
  24449727.8774   -3789715.58344  -2810100.40245                  24449740.1624
         7.0004          7.0004
  22286947.2684    5645658.93947   4399213.69346                  22286953.3854
        27.0004         24.0004
  22348252.0884   -8393758.81047  -6346384.06646                  22348259.1004
        22.2504         23.2504
  21592864.2444  -14180332.82747 -10910673.70547                  21592870.2564
        26.7504         26.5004
  22874102.5254    4646552.15947   3624427.39146                  22874109.5844
        24.5004         24.2504
  20920318.9084   -9650554.64948  -7510852.23247                  20920325.5764
        31.2504         28.0004
  23846202.6274   -6307107.65346  -4757398.48746                  23846209.7444
        13.0004         14.2504
 98  6 12 17 13 15.0020000  0  7G10G 4G 8G 5G 9G24G30
  24443092.3694   -3824586.82745  -2837272.69945                  24443105.0534
         9.0004          7.2504
  22296117.8304    5693848.68547   4436764.13446                  22296124.0294
        27.5004         25.0004
  22350985.2294   -8379395.31347  -6335191.74546                  22350992.0374
        21.5004         23.2504
  21590437.4244  -14193085.93447 -10920611.18047                  21590443.5064
        27.0004         26.5004
  22882763.8384    4692067.90047   3659894.18146                  22882771.2604
        23.5004         24.5004
  20923267.9084   -9635058.16148  -7498777.04047                  20923274.7054
        31.2504         28.0004
  23839697.1894   -6341293.08346  -4784036.45646                  23839704.1194
        14.7504         14.5004
 98  6 12 17 13 30.0020000  0  7G10G 4G 8G 5G 9G24G30
  24436461.0964   -3859435.85945  -2864427.67545                  24436471.3424
         9.5004          8.2504
  22305303.6824    5742121.57947   4474379.37046                  22305310.1974
        27.7504         25.2504
  22353748.5644   -8364873.89147  -6323876.34046                  22353754.8224
        22.2504         23.0004
  21588026.0964  -14205758.95747 -10930486.25947                  21588032.0024
        27.0004         26.7504
  22891444.0964    4737682.25347   3695437.81646                  22891451.6704
        23.5004         24.2504
  20926242.0884   -9619428.41548  -7486598.01547                  20926248.7684
        31.7504         28.0004
  23833200.0574   -6375436.83446  -4810641.95346                  23833206.7484
        14.5004         14.7504
 98  6 12 17 13 45.0020000  0  7G10G 4G 8G 5G 9G24G30
  24429834.6744   -3894259.38545  -2891562.80445                  24429844.8614
         9.7504          9.2504
  22314506.9244    5790483.20347   4512063.73846                  22314513.5924
        27.2504         25.2504
  22356542.8774   -8350188.75947  -6312433.40546                  22356549.4864
        22.5004         23.0004
  21585630.8224  -14218345.90347 -10940294.27247                  21585636.8574
        27.2504         26.7504
  22900143.9944    4783399.90947   3731061.93346                  22900151.5454
        23.0004         24.2504
  20929243.3144   -9603657.53148  -7474309.01147                  20929249.9004
        31.7504         28.0004
  23826710.2294   -6409539.12246  -4837215.12546                  23826717.1934
        14.5004         14.5004
 98  6 12 17 14  0.0020000  0  7G10G 4G 8G 5G 9G24G30
  24423210.7294   -3929064.41345  -2918683.53645                  24423220.9044
        10.0004          9.7504
  22323725.3694    5838927.08647   4549812.20446                  22323732.5214
        26.5004         25.2504
  22359367.3774   -8335347.69547  -6300868.96646                  22359374.1974
        24.5004         23.5004
  21583251.8854  -14230847.49648 -10950035.76747                  21583257.8734
        29.0004         27.0004
  22908862.2214    4829215.10247   3766762.06846                  22908869.3614
        24.2504         24.7504
  20932270.5644   -9587748.26048  -7461912.16547                  20932277.1864
        31.5004         28.0004
  23820227.0254   -6443608.87346  -4863762.95246                  23820234.5184
        14.5004         15.0004
 98  6 12 17 14 15.0020000  0  7G10G 4G 8G 5G 9G24G30
  24416591.1504   -3963848.92545  -2945788.27445                  24416602.3114
        10.0004         10.0004
  22332959.7834    5887454.77547   4587625.96846                  22332966.8304
        27.2504         25.5004
  22362220.9324   -8320351.15847  -6289183.34746                  22362227.7294
        22.2504         23.2504
  21580890.1354  -14243258.23448 -10959706.45747                  21580896.1114
        28.2504         27.0004
  22917599.3464    4875129.60647   3802539.58846                  22917606.4044
        23.2504         24.2504
  20935324.5804   -9571700.03248  -7449407.04847                  20935331.2834
        31.5004         27.5004
  23813750.0414   -6477643.06946  -4890283.06446                  23813757.9204
        14.7504         15.2504
 98  6 12 17 14 30.0020000  0  7G10G 4G 8G 5G 9G24G30
  24409976.5644   -3998610.55545  -2972875.18145                  24409986.9284
        11.0004          9.7504
  22342210.1824    5936067.29547   4625505.84246                  22342217.2644
        24.7504         24.2504
  22365104.0804   -8305198.96247  -6277376.44546                  22365110.7834
        21.7504         23.0004
  21578545.8774  -14255577.22147 -10969305.66247                  21578551.8894
        27.7504         26.2504
  22926355.6114    4921144.20347   3838395.10346                  22926362.9634
        23.0004         23.5004
  20938404.1434   -9555516.87648  -7436796.79747                  20938410.7644
        31.7504         27.5004
  23807280.6744   -6511642.24246  -4916775.90446                  23807288.4244
        15.0004         14.5004
